[[{"header":{"parameterUnit":"m.s-1","parameterCategory":1,"la1":31.0,"la2":29.5877,"lo1":-88.7671,"lo2":-86.6584,"dy":0.0162,"dx":0.0185,"nx":115,"ny":88,"refTime":"2026-05-02T12:00:00:Z","depth":0,"parameterNumber":2,"parameterNumberName":"U-component_of_WINDS"},"data":[0.0,0.0,0.0,0.0,0.0,0.0,0.0,0.0,0.0,0.0,0.0,0.0,0.0,0.0,0.0,0.0,0.0,0.0,0.0,0.0,0.0,0.0,0.0,0.0,0.0,0.0,0.0,0.0,0.0,0.0,0.0,0.0,0.0,0.0,0.0,0.0,0.0,0.0,0.0,0.0,0.0,0.0,0.0,0.0,0.0,0.0,0.0,0.0,0.0,0.0,0.0,0.0,0.0,0.0,0.0,0.0,0.0,0.0,0.0,0.0,0.0,0.0,0.0,0.0,0.0,0.0,0.0,0.0,0.0,0.0,0.0,0.0,0.0,0.0,0.0,0.0,0.0,0.0,0.0,0.0,0.0,0.0,0.0,0.0,0.0,0.0,0.0,0.0,0.0,0.0,0.0,0.0,0.0,0.0,0.0,0.0,0.0,0.0,0.0,0.0,0.0,0.0,0.0,0.0,0.0,0.0,0.0,0.0,0.0,0.0,0.0,0.0,0.0,0.0,0.0,0.0,0.0,0.0,0.0,0.0,0.0,0.0,0.0,0.0,0.0,0.0,0.0,0.0,0.0,0.0,0.0,0.0,0.0,0.0,0.0,0.0,0.0,0.0,0.0,0.0,0.0,0.0,0.0,0.0,0.0,0.0,0.0,0.0,0.0,0.0,0.0,0.0,0.0,0.0,0.0,0.0,0.0,0.0,0.0,0.0,0.0,0.0,0.0,0.0,0.0,0.0,0.0,0.0,0.0,0.0,0.0,0.0,0.0,0.0,0.0,0.0,0.0,0.0,0.0,0.0,0.0,0.0,0.0,0.0,0.0,0.0,0.0,0.0,0.0,0.0,0.0,0.0,0.0,0.0,0.0,0.0,0.0,0.0,0.0,0.0,0.0,0.0,0.0,0.0,0.0,0.0,0.0,0.0,0.0,0.0,0.0,0.0,0.0,0.0,0.0,0.0,0.0,0.0,0.0,0.0,0.0,0.0,0.0,0.0,0.0,0.0,0.0,0.0,0.0,0.0,0.0,0.0,0.0,0.0,0.0,0.0,0.0,0.0,0.0,0.0,0.0,0.0,0.0,0.0,0.0,0.0,0.0,0.0,0.0,0.0,0.0,0.0,0.0,0.0,0.0,0.0,0.0,0.0,0.0,0.0,0.0,0.0,0.0,0.0,0.0,0.0,0.0,0.0,0.0,0.0,0.0,0.0,0.0,0.0,0.0,0.0,0.0,0.0,0.0,0.0,0.0,0.0,0.0,0.0,0.0,0.0,0.0,0.0,0.0,0.0,0.0,0.0,0.0,0.0,0.0,0.0,0.0,0.0,0.0,0.0,0.0,0.0,0.0,0.0,0.0,0.0,0.0,0.0,0.0,0.0,0.0,0.0,0.0,0.0,0.0,0.0,0.0,0.0,0.0,0.0,0.0,0.0,0.0,0.0,0.0,0.0,0.0,0.0,0.0,0.0,0.0,0.0,0.0,0.0,0.0,0.0,0.0,0.0,0.0,0.0,0.0,0.0,0.0,0.0,0.0,0.0,0.0,0.0,0.0,0.0,0.0,0.0,0.0,0.0,0.0,0.0,0.0,0.0,0.0,0.0,0.0,0.0,0.0,0.0,0.0,0.0,0.0,0.0,0.0,0.0,0.0,0.0,0.0,0.0,0.0,0.0,0.0,0.0,0.0,0.0,0.0,0.0,0.0,0.0,0.0,0.0,0.0,0.0,0.0,0.0,0.0,0.0,0.0,0.0,0.0,0.0,0.0,0.0,0.0,0.0,0.0,0.0,0.0,0.0,0.0,0.0,0.0,0.0,0.0,0.0,0.0,0.0,0.0,0.0,0.0,0.0,0.0,0.0,0.0,0.0,0.0,0.0,0.0,0.0,0.0,0.0,0.0,0.0,0.0,0.0,0.0,0.0,0.0,0.0,0.0,0.0,0.0,0.0,0.0,0.0,0.0,0.0,0.0,0.0,0.0,0.0,0.0,0.0,0.0,0.0,0.0,0.0,0.0,0.0,0.0,0.0,0.0,0.0,0.0,0.0,0.0,0.0,0.0,0.0,0.0,0.0,0.0,0.0,0.0,0.0,0.0,0.0,0.0,0.0,0.0,0.0,0.0,0.0,0.0,0.0,0.0,0.0,0.0,0.0,0.0,0.0,0.0,0.0,0.0,0.0,0.0,0.0,0.0,0.0,0.0,0.0,0.0,0.0,0.0,0.0,0.0,0.0,0.0,0.0,0.0,0.0,0.0,0.0,0.0,0.0,0.0,0.0,0.0,0.0,0.0,0.0,0.0,0.0,0.0,0.0,0.0,0.0,0.0,0.0,0.0,0.0,0.0,0.0,0.0,0.0,0.0,0.0,0.0,0.0,0.0,0.0,0.0,0.0,0.0,0.0,0.0,0.0,0.0,0.0,0.0,0.0,0.0,0.0,0.0,0.0,0.0,0.0,0.0,0.0,0.0,0.0,0.0,0.0,0.0,0.0,0.0,0.0,0.0,0.0,0.0,0.0,0.0,0.0,0.0,0.0,0.0,0.0,0.0,0.0,0.0,0.0,0.0,0.0,0.0,0.0,0.0,0.0,0.0,0.0,0.0,0.0,0.0,0.0,0.0,0.0,0.0,0.0,0.0,0.0,0.0,0.0,0.0,0.0,0.0,0.0,0.0,0.0,0.0,0.0,0.0,0.0,0.0,0.0,0.0,0.0,0.0,0.0,0.0,0.0,0.0,0.0,0.0,0.0,0.0,0.0,0.0,0.0,0.0,0.0,0.0,0.0,0.0,0.0,0.0,0.0,0.0,0.0,0.0,0.0,0.0,0.0,0.0,0.0,0.0,0.0,0.0,0.0,0.0,0.0,0.0,0.0,0.0,0.0,0.0,0.0,0.0,0.0,0.0,0.0,0.0,0.0,0.0,0.0,0.0,0.0,0.0,0.0,0.0,0.0,0.0,0.0,0.0,0.0,0.0,0.0,0.0,0.0,0.0,0.0,0.0,0.0,0.0,0.0,0.0,0.0,0.0,0.0,0.0,0.0,0.0,0.0,0.0,0.0,0.0,0.0,0.0,0.0,0.0,0.0,0.0,0.0,0.0,0.0,0.0,0.0,0.0,0.0,0.0,0.0,0.0,0.0,0.0,0.0,0.0,0.0,0.0,0.0,0.0,0.0,0.0,0.0,0.0,0.0,0.0,0.0,0.0,0.0,0.0,0.0,0.0,0.0,0.0,0.0,0.0,0.0,0.0,0.0,0.0,0.0,0.0,0.0,0.0,0.0,0.0,0.0,0.0,0.0,0.0,0.0,0.0,0.0,0.0,0.0,0.0,0.0,0.0,0.0,0.0,0.0,0.0,0.0,0.0,0.0,0.0,0.0,0.0,0.0,0.0,0.0,0.0,0.0,0.0,0.0,0.0,0.0,0.0,0.0,0.0,0.0,0.0,0.0,0.0,0.0,0.0,0.0,0.0,0.0,0.0,0.0,0.0,0.0,0.0,0.0,0.0,0.0,0.0,0.0,0.0,0.0,0.0,0.0,0.0,0.0,0.0,0.0,0.0,0.0,0.0,0.0,0.0,0.0,0.0,0.0,0.0,0.0,0.0,0.0,0.0,0.0,0.0,0.0,0.0,0.0,0.0,0.0,0.0,0.0,0.0,0.0,0.0,0.0,0.0,0.0,0.0,0.0,0.0,0.0,0.0,0.0,0.0,0.0,0.0,0.0,0.0,0.0,0.0,0.0,0.0,0.0,0.0,0.0,0.0,0.0,0.0,0.0,0.0,0.0,0.0,0.0,0.0,0.0,0.0,0.0,0.0,0.0,0.0,0.0,0.0,0.0,0.0,0.0,0.0,0.0,0.0,0.0,0.0,0.0,0.0,0.0,0.0,0.0,0.0,0.0,0.0,0.0,0.0,0.0,0.0,0.0,0.0,0.0,0.0,0.0,0.0,0.0,0.0,0.0,0.0,0.0,0.0,0.0,0.0,0.0,0.0,0.0,0.0,0.0,0.0,0.0,0.0,0.0,0.0,0.0,0.0,0.0,0.0,0.0,0.0,0.0,0.0,0.0,0.0,0.0,0.0,0.0,0.0,0.0,0.0,0.0,0.0,0.0,0.0,0.0,0.0,0.0,0.0,0.0,0.0,0.0,0.0,0.0,0.0,0.0,0.0,0.0,0.0,0.0,0.0,0.0,0.0,0.0,0.0,0.0,0.0,0.0,0.0,0.0,0.0,0.0,0.0,0.0,0.0,0.0,0.0,0.0,0.0,0.0,0.0,0.0,0.0,0.0,3.0898,0.0,0.0,0.0,0.0,0.0,0.0,0.0,0.0,0.0,0.0,0.0,0.0,0.0,0.0,0.0,0.0,0.0,0.0,0.0,0.0,0.0,0.0,0.0,0.0,0.0,0.0,0.0,0.0,0.0,0.0,0.0,0.0,0.0,0.0,0.0,0.0,0.0,0.0,0.0,0.0,0.0,0.0,0.0,0.0,0.0,0.0,0.0,0.0,0.0,0.0,0.0,0.0,0.0,0.0,0.0,0.0,0.0,0.0,0.0,0.0,0.0,0.0,0.0,0.0,0.0,0.0,0.0,0.0,0.0,0.0,0.0,0.0,0.0,0.0,0.0,0.0,0.0,0.0,0.0,0.0,0.0,0.0,0.0,0.0,0.0,0.0,0.0,0.0,0.0,0.0,0.0,0.0,0.0,0.0,0.0,0.0,0.0,0.0,0.0,0.0,0.0,0.0,0.0,0.0,0.0,0.0,0.0,0.0,0.0,0.0,3.0898,3.0898,3.0898,3.0898,3.0898,0.0,0.0,0.0,0.0,0.0,0.0,0.0,0.0,0.0,0.0,0.0,0.0,0.0,0.0,0.0,0.0,0.0,0.0,0.0,0.0,0.0,0.0,0.0,0.0,0.0,0.0,0.0,0.0,0.0,0.0,0.0,0.0,0.0,0.0,0.0,0.0,0.0,0.0,0.0,0.0,0.0,0.0,0.0,0.0,0.0,0.0,0.0,0.0,0.0,0.0,0.0,0.0,0.0,0.0,0.0,0.0,0.0,0.0,0.0,0.0,0.0,0.0,0.0,0.0,0.0,0.0,0.0,0.0,0.0,0.0,0.0,0.0,0.0,0.0,0.0,0.0,0.0,0.0,0.0,0.0,0.0,0.0,0.0,0.0,0.0,0.0,0.0,0.0,0.0,0.0,0.0,0.0,0.0,0.0,0.0,0.0,0.0,0.0,0.0,0.0,0.0,0.0,0.0,0.0,0.0,0.0,0.0,0.0,0.0,0.0,0.0,0.0,3.1484,3.1367,3.1211,0.0,0.0,0.0,0.0,0.0,0.0,0.0,0.0,0.0,0.0,0.0,0.0,0.0,0.0,0.0,0.0,0.0,0.0,0.0,0.0,0.0,0.0,0.0,0.0,0.0,0.0,0.0,0.0,0.0,0.0,0.0,0.0,0.0,0.0,0.0,0.0,0.0,0.0,0.0,0.0,0.0,0.0,0.0,0.0,0.0,0.0,0.0,0.0,0.0,0.0,0.0,0.0,0.0,0.0,0.0,0.0,0.0,0.0,0.0,0.0,0.0,0.0,0.0,0.0,0.0,0.0,0.0,0.0,0.0,0.0,0.0,0.0,0.0,0.0,0.0,0.0,0.0,0.0,0.0,0.0,0.0,0.0,0.0,0.0,0.0,0.0,0.0,0.0,0.0,0.0,0.0,0.0,0.0,0.0,0.0,0.0,0.0,0.0,0.0,0.0,0.0,0.0,0.0,0.0,0.0,0.0,0.0,0.0,0.0,0.0,3.2422,3.3125,3.3164,0.0,3.2109,0.0,0.0,0.0,0.0,0.0,0.0,0.0,0.0,0.0,0.0,0.0,0.0,0.0,0.0,0.0,0.0,0.0,0.0,0.0,0.0,0.0,0.0,0.0,0.0,0.0,0.0,0.0,0.0,0.0,0.0,0.0,0.0,0.0,0.0,0.0,0.0,0.0,0.0,0.0,0.0,0.0,0.0,0.0,0.0,0.0,0.0,0.0,0.0,0.0,0.0,0.0,0.0,0.0,0.0,0.0,0.0,0.0,0.0,0.0,0.0,0.0,0.0,0.0,0.0,0.0,0.0,0.0,0.0,0.0,0.0,0.0,0.0,0.0,0.0,0.0,0.0,0.0,0.0,0.0,0.0,0.0,0.0,0.0,0.0,0.0,0.0,0.0,0.0,0.0,0.0,0.0,0.0,0.0,0.0,0.0,0.0,0.0,0.0,0.0,0.0,0.0,0.0,0.0,0.0,0.0,0.0,0.0,0.0,0.0,0.0,3.332,3.418,3.418,3.3555,0.0,0.0,0.0,0.0,0.0,0.0,0.0,0.0,0.0,0.0,0.0,0.0,0.0,0.0,0.0,0.0,0.0,0.0,0.0,0.0,0.0,0.0,0.0,0.0,0.0,0.0,0.0,0.0,0.0,0.0,0.0,0.0,0.0,0.0,0.0,0.0,0.0,0.0,0.0,0.0,0.0,0.0,0.0,0.0,0.0,0.0,0.0,0.0,0.0,0.0,0.0,0.0,0.0,0.0,0.0,0.0,0.0,0.0,0.0,0.0,0.0,0.0,0.0,0.0,0.0,0.0,0.0,0.0,0.0,0.0,0.0,0.0,0.0,0.0,0.0,0.0,0.0,0.0,0.0,0.0,0.0,0.0,0.0,0.0,0.0,0.0,0.0,0.0,0.0,0.0,0.0,0.0,0.0,0.0,0.0,0.0,0.0,0.0,0.0,0.0,0.0,0.0,0.0,0.0,0.0,0.0,0.0,0.0,0.0,0.0,3.2656,3.3945,3.5,3.5078,3.418,3.2266,0.0,0.0,0.0,0.0,0.0,0.0,0.0,0.0,0.0,0.0,0.0,0.0,0.0,0.0,0.0,0.0,0.0,0.0,0.0,0.0,0.0,0.0,0.0,0.0,0.0,0.0,0.0,0.0,0.0,0.0,0.0,0.0,0.0,0.0,0.0,0.0,0.0,0.0,0.0,0.0,0.0,0.0,0.0,0.0,0.0,0.0,0.0,0.0,0.0,0.0,0.0,0.0,0.0,0.0,0.0,0.0,0.0,0.0,0.0,0.0,0.0,0.0,0.0,0.0,0.0,0.0,0.0,0.0,0.0,0.0,0.0,0.0,0.0,0.0,0.0,0.0,0.0,0.0,0.0,0.0,0.0,0.0,0.0,0.0,0.0,0.0,0.0,0.0,0.0,0.0,0.0,0.0,0.0,0.0,0.0,0.0,0.0,0.0,0.0,0.0,0.0,0.0,0.0,0.0,0.0,0.0,0.0,0.0,0.0,3.2969,3.4219,3.582,3.5937,3.4766,0.0,0.0,0.0,0.0,0.0,0.0,0.0,0.0,0.0,0.0,0.0,0.0,0.0,0.0,0.0,0.0,0.0,0.0,0.0,0.0,0.0,0.0,0.0,0.0,0.0,0.0,0.0,0.0,0.0,0.0,0.0,0.0,0.0,0.0,0.0,0.0,0.0,0.0,0.0,0.0,0.0,0.0,0.0,0.0,0.0,0.0,0.0,0.0,0.0,0.0,0.0,0.0,0.0,0.0,0.0,0.0,0.0,0.0,0.0,0.0,0.0,0.0,0.0,0.0,0.0,0.0,0.0,0.0,0.0,0.0,0.0,0.0,0.0,0.0,0.0,0.0,0.0,0.0,0.0,0.0,0.0,0.0,0.0,0.0,0.0,0.0,0.0,0.0,0.0,0.0,0.0,0.0,0.0,0.0,0.0,0.0,0.0,0.0,0.0,0.0,0.0,0.0,0.0,0.0,0.0,0.0,0.0,0.0,0.0,3.2305,3.3516,3.4531,3.5117,3.4609,3.3398,0.0,0.0,0.0,0.0,0.0,0.0,0.0,0.0,0.0,0.0,0.0,0.0,0.0,0.0,0.0,0.0,0.0,0.0,0.0,0.0,0.0,0.0,0.0,0.0,0.0,0.0,0.0,0.0,0.0,0.0,0.0,0.0,0.0,0.0,0.0,0.0,0.0,0.0,0.0,0.0,0.0,0.0,0.0,0.0,0.0,0.0,0.0,0.0,0.0,0.0,0.0,0.0,0.0,0.0,0.0,0.0,0.0,0.0,0.0,0.0,0.0,0.0,0.0,0.0,0.0,0.0,0.0,0.0,0.0,0.0,0.0,0.0,0.0,0.0,0.0,0.0,0.0,0.0,0.0,0.0,0.0,0.0,0.0,0.0,0.0,0.0,0.0,0.0,0.0,0.0,0.0,0.0,0.0,0.0,0.0,0.0,0.0,0.0,0.0,0.0,0.0,0.0,0.0,0.0,0.0,0.0,0.0,0.0,0.0,3.3516,0.0,3.582,0.0,3.4687,3.332,0.0,0.0,0.0,0.0,0.0,0.0,0.0,0.0,0.0,0.0,0.0,0.0,0.0,0.0,0.0,0.0,0.0,0.0,0.0,0.0,0.0,0.0,0.0,0.0,0.0,0.0,0.0,0.0,0.0,0.0,0.0,0.0,0.0,0.0,0.0,0.0,0.0,0.0,0.0,0.0,0.0,0.0,0.0,0.0,0.0,0.0,0.0,0.0,0.0,0.0,0.0,0.0,0.0,0.0,0.0,0.0,0.0,0.0,0.0,0.0,0.0,0.0,0.0,0.0,0.0,0.0,0.0,0.0,0.0,0.0,0.0,0.0,0.0,0.0,0.0,0.0,0.0,0.0,0.0,0.0,0.0,0.0,0.0,0.0,0.0,0.0,0.0,0.0,0.0,0.0,0.0,0.0,0.0,0.0,0.0,0.0,0.0,0.0,0.0,0.0,0.0,0.0,0.0,0.0,0.0,0.0,0.0,0.0,3.5195,3.6016,3.7656,3.8086,3.7305,3.6289,3.4726,0.0,0.0,0.0,0.0,0.0,0.0,0.0,0.0,0.0,0.0,0.0,0.0,0.0,0.0,0.0,0.0,0.0,0.0,0.0,0.0,0.0,0.0,0.0,0.0,0.0,0.0,0.0,0.0,0.0,0.0,0.0,0.0,0.0,0.0,0.0,0.0,0.0,0.0,0.0,0.0,0.0,0.0,0.0,0.0,0.0,0.0,0.0,0.0,0.0,0.0,0.0,0.0,0.0,0.0,0.0,0.0,0.0,0.0,0.0,0.0,0.0,0.0,0.0,0.0,0.0,0.0,0.0,0.0,0.0,0.0,0.0,0.0,0.0,0.0,0.0,0.0,0.0,0.0,0.0,0.0,0.0,0.0,0.0,0.0,0.0,0.0,0.0,0.0,0.0,0.0,0.0,0.0,0.0,0.0,0.0,0.0,0.0,0.0,0.0,0.0,0.0,0.0,0.0,0.0,0.0,0.0,0.0,0.0,0.0,3.7851,3.8906,3.8789,3.7305,3.5273,3.3594,0.0,0.0,0.0,0.0,0.0,0.0,0.0,0.0,0.0,0.0,0.0,0.0,0.0,0.0,0.0,0.0,0.0,0.0,0.0,0.0,0.0,0.0,0.0,0.0,0.0,0.0,0.0,0.0,0.0,0.0,0.0,0.0,0.0,0.0,0.0,0.0,0.0,0.0,0.0,0.0,0.0,0.0,0.0,0.0,0.0,0.0,0.0,0.0,0.0,0.0,0.0,0.0,0.0,0.0,0.0,0.0,0.0,0.0,0.0,0.0,0.0,0.0,0.0,0.0,0.0,0.0,0.0,0.0,0.0,0.0,0.0,0.0,0.0,0.0,0.0,0.0,0.0,0.0,0.0,0.0,0.0,0.0,0.0,0.0,0.0,0.0,0.0,0.0,0.0,0.0,0.0,0.0,0.0,0.0,0.0,0.0,0.0,0.0,0.0,0.0,0.0,0.0,0.0,0.0,0.0,0.0,0.0,0.0,0.0,4.1992,4.2187,4.1445,3.9726,3.7187,3.5273,3.4101,0.0,0.0,0.0,0.0,0.0,0.0,0.0,0.0,0.0,0.0,0.0,0.0,0.0,0.0,0.0,0.0,0.0,0.0,0.0,0.0,0.0,0.0,0.0,0.0,0.0,0.0,0.0,0.0,0.0,0.0,0.0,0.0,0.0,0.0,0.0,0.0,0.0,0.0,0.0,0.0,0.0,0.0,0.0,0.0,0.0,0.0,0.0,0.0,0.0,0.0,0.0,0.0,0.0,0.0,0.0,0.0,0.0,0.0,0.0,0.0,0.0,0.0,0.0,0.0,0.0,0.0,0.0,0.0,0.0,0.0,0.0,0.0,0.0,0.0,0.0,0.0,0.0,0.0,0.0,0.0,0.0,0.0,0.0,0.0,0.0,0.0,0.0,0.0,0.0,0.0,0.0,0.0,0.0,0.0,0.0,0.0,0.0,0.0,0.0,0.0,0.0,0.0,0.0,0.0,0.0,0.0,0.0,0.0,4.7734,4.7187,4.5937,4.3906,4.1406,3.9258,0.0,0.0,0.0,0.0,0.0,0.0,0.0,0.0,0.0,0.0,0.0,0.0,0.0,0.0,0.0,0.0,0.0,0.0,0.0,0.0,0.0,0.0,0.0,0.0,0.0,0.0,0.0,0.0,0.0,0.0,0.0,0.0,0.0,0.0,0.0,0.0,0.0,0.0,0.0,0.0,0.0,0.0,0.0,0.0,0.0,0.0,0.0,0.0,0.0,0.0,0.0,0.0,0.0,0.0,0.0,0.0,0.0,0.0,0.0,0.0,0.0,0.0,0.0,0.0,0.0,0.0,0.0,0.0,0.0,0.0,0.0,0.0,0.0,0.0,0.0,0.0,0.0,0.0,0.0,0.0,0.0,0.0,0.0,0.0,0.0,0.0,0.0,0.0,0.0,0.0,0.0,0.0,0.0,0.0,0.0,0.0,0.0,0.0,0.0,0.0,0.0,0.0,0.0,0.0,0.0,0.0,0.0,0.0,0.0,4.9492,5.2383,5.1562,4.6758,4.4062,4.1289,0.0,0.0,0.0,0.0,0.0,0.0,0.0,0.0,0.0,0.0,0.0,0.0,0.0,0.0,0.0,0.0,0.0,0.0,0.0,0.0,0.0,0.0,0.0,0.0,0.0,0.0,0.0,0.0,0.0,0.0,0.0,0.0,0.0,0.0,0.0,0.0,0.0,0.0,0.0,0.0,0.0,0.0,0.0,0.0,0.0,0.0,0.0,0.0,0.0,0.0,0.0,0.0,0.0,0.0,0.0,0.0,0.0,0.0,0.0,0.0,0.0,0.0,0.0,0.0,0.0,0.0,0.0,0.0,0.0,0.0,0.0,0.0,0.0,0.0,0.0,0.0,0.0,0.0,0.0,0.0,0.0,0.0,0.0,0.0,0.0,0.0,0.0,0.0,0.0,0.0,0.0,0.0,0.0,0.0,0.0,0.0,0.0,0.0,0.0,0.0,0.0,0.0,0.0,0.0,0.0,0.0,0.0,0.0,4.8476,5.1758,5.5976,5.5859,5.0937,4.7617,4.4297,0.0,0.0,0.0,0.0,0.0,0.0,0.0,0.0,0.0,0.0,0.0,0.0,0.0,0.0,0.0,0.0,0.0,0.0,0.0,0.0,0.0,0.0,0.0,0.0,0.0,0.0,0.0,0.0,0.0,0.0,0.0,0.0,0.0,0.0,0.0,0.0,0.0,0.0,0.0,0.0,0.0,0.0,0.0,0.0,0.0,0.0,0.0,0.0,0.0,0.0,0.0,0.0,0.0,0.0,0.0,0.0,0.0,0.0,0.0,0.0,0.0,0.0,0.0,0.0,0.0,0.0,0.0,0.0,0.0,0.0,0.0,0.0,0.0,0.0,0.0,0.0,0.0,0.0,0.0,0.0,0.0,0.0,0.0,0.0,0.0,0.0,0.0,0.0,0.0,0.0,0.0,0.0,0.0,0.0,0.0,0.0,0.0,0.0,0.0,0.0,0.0,0.0,0.0,0.0,0.0,0.0,0.0,0.0,5.0,5.4062,5.832,5.8945,5.5625,5.1484,4.7578,0.0,0.0,0.0,0.0,0.0,0.0,0.0,0.0,0.0,0.0,0.0,0.0,0.0,0.0,0.0,0.0,0.0,0.0,0.0,0.0,0.0,0.0,0.0,0.0,0.0,0.0,0.0,0.0,0.0,0.0,0.0,0.0,0.0,0.0,0.0,0.0,0.0,0.0,0.0,0.0,0.0,0.0,0.0,0.0,0.0,0.0,0.0,0.0,0.0,0.0,0.0,0.0,0.0,0.0,0.0,0.0,0.0,0.0,0.0,0.0,0.0,0.0,0.0,0.0,0.0,0.0,0.0,0.0,0.0,0.0,0.0,0.0,0.0,0.0,0.0,0.0,0.0,0.0,0.0,0.0,0.0,0.0,0.0,0.0,0.0,0.0,0.0,0.0,0.0,0.0,0.0,0.0,0.0,0.0,0.0,0.0,0.0,0.0,0.0,0.0,0.0,0.0,0.0,0.0,0.0,0.0,0.0,0.0,5.2031,5.5,5.9219,6.0117,5.7383,5.3789,4.9648,0.0,0.0,0.0,0.0,0.0,0.0,0.0,0.0,0.0,0.0,0.0,0.0,0.0,0.0,0.0,0.0,0.0,0.0,0.0,0.0,0.0,0.0,0.0,0.0,0.0,0.0,0.0,0.0,0.0,0.0,0.0,0.0,0.0,0.0,0.0,0.0,0.0,0.0,0.0,0.0,0.0,0.0,0.0,0.0,0.0,0.0,0.0,0.0,3.5968,0.0,0.0,0.0,0.0,0.0,0.0,0.0,0.0,0.0,0.0,0.0,0.0,0.0,0.0,0.0,0.0,0.0,0.0,0.0,0.0,0.0,0.0,0.0,0.0,0.0,0.0,0.0,0.0,0.0,0.0,0.0,0.0,0.0,0.0,0.0,0.0,0.0,0.0,0.0,0.0,0.0,0.0,0.0,0.0,0.0,0.0,0.0,0.0,0.0,0.0,0.0,0.0,0.0,0.0,0.0,0.0,0.0,0.0,0.0,5.3476,5.6484,5.9922,6.0664,5.8555,5.6328,5.2344,0.0,0.0,0.0,0.0,0.0,0.0,0.0,0.0,0.0,0.0,0.0,0.0,0.0,0.0,0.0,0.0,0.0,0.0,0.0,0.0,0.0,0.0,0.0,0.0,0.0,0.0,0.0,0.0,0.0,0.0,0.0,0.0,0.0,0.0,0.0,0.0,0.0,0.0,0.0,0.0,0.0,0.0,0.0,0.0,0.0,0.0,0.0,0.0,0.0,0.0,0.0,0.0,0.0,0.0,0.0,0.0,0.0,0.0,0.0,0.0,0.0,0.0,0.0,0.0,0.0,0.0,0.0,0.0,0.0,0.0,0.0,0.0,0.0,0.0,0.0,0.0,0.0,0.0,0.0,0.0,0.0,0.0,0.0,0.0,0.0,0.0,0.0,0.0,0.0,0.0,0.0,0.0,0.0,0.0,0.0,0.0,0.0,0.0,0.0,0.0,0.0,0.0,0.0,0.0,0.0,0.0,0.0,5.0781,5.4648,5.7812,6.039,6.0898,5.9258,5.8086,5.4453,4.8047,0.0,0.0,0.0,0.0,0.0,0.0,0.0,0.0,0.0,0.0,0.0,0.0,0.0,0.0,0.0,0.0,0.0,0.0,0.0,0.0,0.0,0.0,0.0,0.0,0.0,0.0,0.0,0.0,0.0,0.0,0.0,0.0,0.0,0.0,0.0,0.0,0.0,0.0,2.9759,3.2801,0.0,0.0,0.0,0.0,0.0,0.0,0.0,0.0,3.4272,0.0,0.0,0.0,0.0,0.0,0.0,0.0,0.0,0.0,0.0,0.0,0.0,0.0,0.0,0.0,0.0,0.0,0.0,0.0,0.0,0.0,0.0,0.0,0.0,0.0,0.0,0.0,0.0,0.0,0.0,0.0,0.0,0.0,0.0,0.0,0.0,0.0,0.0,0.0,0.0,0.0,0.0,0.0,0.0,0.0,0.0,0.0,0.0,0.0,0.0,0.0,0.0,0.0,0.0,0.0,0.0,4.6289,5.1953,5.5859,5.789,6.039,6.0898,5.9219,5.6953,5.3516,4.8906,0.0,0.0,0.0,0.0,0.0,0.0,0.0,0.0,0.0,0.0,0.0,0.0,0.0,0.0,0.0,0.0,0.0,0.0,0.0,0.0,0.0,0.0,0.0,0.0,0.0,0.0,0.0,0.0,0.0,0.0,0.0,0.0,0.0,0.0,0.0,0.0,0.0,0.0,0.0,3.6305,3.8147,0.0,0.0,0.0,0.0,0.0,0.0,0.0,0.0,3.4554,0.0,0.0,0.0,0.0,0.0,0.0,0.0,0.0,0.0,0.0,0.0,0.0,0.0,0.0,0.0,0.0,0.0,0.0,0.0,0.0,0.0,0.0,0.0,0.0,0.0,0.0,0.0,0.0,0.0,0.0,0.0,0.0,0.0,0.0,0.0,0.0,0.0,0.0,0.0,0.0,0.0,0.0,0.0,0.0,0.0,0.0,0.0,0.0,0.0,0.0,0.0,0.0,0.0,0.0,0.0,4.832,5.3828,5.7461,5.918,6.082,6.0703,5.8555,5.6015,5.2617,0.0,0.0,0.0,0.0,0.0,0.0,0.0,0.0,0.0,0.0,0.0,0.0,0.0,0.0,0.0,0.0,0.0,0.0,0.0,0.0,0.0,0.0,0.0,0.0,0.0,0.0,0.0,0.0,0.0,0.0,0.0,0.0,0.0,0.0,0.0,0.0,0.0,0.0,0.0,0.0,3.806,3.9747,3.9339,0.0,0.0,0.0,0.0,0.0,0.0,3.5123,3.4403,0.0,0.0,0.0,0.0,0.0,0.0,0.0,0.0,0.0,0.0,0.0,0.0,0.0,0.0,0.0,0.0,0.0,0.0,0.0,0.0,0.0,0.0,0.0,0.0,0.0,0.0,0.0,0.0,0.0,0.0,0.0,0.0,0.0,0.0,0.0,0.0,0.0,0.0,0.0,0.0,0.0,0.0,0.0,0.0,0.0,0.0,0.0,0.0,0.0,0.0,0.0,0.0,0.0,0.0,0.0,5.0156,5.5273,5.8711,6.0351,6.125,6.0469,5.7969,5.5351,5.1914,0.0,0.0,0.0,0.0,0.0,0.0,0.0,0.0,0.0,0.0,0.0,0.0,0.0,0.0,0.0,0.0,0.0,0.0,0.0,0.0,0.0,0.0,0.0,0.0,0.0,0.0,0.0,0.0,0.0,0.0,0.0,0.0,0.0,0.0,0.0,0.0,0.0,0.0,0.0,0.0,0.0,4.1206,4.103,4.0585,0.0,0.0,0.0,0.0,3.6546,3.6059,0.0,0.0,0.0,0.0,0.0,0.0,0.0,0.0,0.0,0.0,0.0,0.0,0.0,0.0,0.0,0.0,0.0,0.0,0.0,0.0,0.0,0.0,0.0,0.0,0.0,0.0,0.0,0.0,0.0,0.0,0.0,0.0,0.0,0.0,0.0,0.0,0.0,0.0,0.0,0.0,0.0,0.0,0.0,0.0,0.0,0.0,0.0,0.0,0.0,0.0,0.0,0.0,0.0,0.0,0.0,0.0,5.0156,5.5273,5.8711,6.0312,6.125,6.0469,5.7969,5.5351,5.1601,0.0,0.0,0.0,0.0,0.0,0.0,0.0,0.0,0.0,0.0,0.0,0.0,0.0,0.0,0.0,0.0,0.0,0.0,0.0,0.0,0.0,0.0,0.0,0.0,0.0,0.0,0.0,0.0,0.0,0.0,0.0,0.0,0.0,0.0,0.0,0.0,0.0,0.0,0.0,0.0,0.0,4.3579,4.2915,4.3316,4.3162,0.0,0.0,4.0781,4.0077,4.0462,0.0,0.0,0.0,0.0,0.0,0.0,0.0,0.0,0.0,0.0,0.0,0.0,0.0,0.0,0.0,0.0,0.0,0.0,0.0,0.0,0.0,0.0,0.0,0.0,0.0,0.0,0.0,0.0,0.0,0.0,0.0,0.0,0.0,0.0,0.0,0.0,0.0,0.0,0.0,0.0,0.0,0.0,0.0,0.0,0.0,0.0,0.0,0.0,0.0,0.0,0.0,0.0,0.0,0.0,0.0,4.5469,5.0195,5.5781,5.9219,6.039,6.125,6.0469,5.7969,5.4883,5.1055,0.0,0.0,0.0,0.0,0.0,0.0,0.0,0.0,0.0,0.0,0.0,0.0,0.0,0.0,0.0,0.0,0.0,0.0,0.0,0.0,0.0,0.0,0.0,0.0,0.0,0.0,0.0,0.0,0.0,0.0,0.0,0.0,0.0,0.0,0.0,0.0,0.0,0.0,0.0,0.0,0.0,0.0,4.5145,4.5547,0.0,0.0,0.0,4.4414,4.3541,0.0,0.0,0.0,0.0,0.0,0.0,0.0,0.0,0.0,0.0,0.0,0.0,0.0,0.0,0.0,0.0,0.0,0.0,0.0,0.0,0.0,0.0,0.0,0.0,0.0,0.0,0.0,0.0,0.0,0.0,0.0,0.0,0.0,0.0,0.0,0.0,0.0,0.0,0.0,0.0,0.0,0.0,0.0,0.0,0.0,0.0,0.0,0.0,0.0,0.0,0.0,0.0,0.0,0.0,0.0,0.0,0.0,5.0195,5.6133,5.9609,6.039,6.125,6.0508,5.7969,5.4922,0.0,0.0,0.0,0.0,0.0,0.0,0.0,0.0,0.0,0.0,0.0,0.0,0.0,0.0,0.0,0.0,0.0,0.0,0.0,0.0,0.0,0.0,0.0,0.0,0.0,0.0,0.0,2.3072,0.0,0.0,0.0,0.0,0.0,0.0,0.0,0.0,0.0,0.0,0.0,0.0,0.0,0.0,4.5247,4.6954,4.7568,4.7855,0.0,0.0,4.7774,4.6698,4.7083,4.6061,0.0,0.0,0.0,0.0,0.0,0.0,0.0,0.0,0.0,0.0,0.0,0.0,0.0,0.0,0.0,0.0,0.0,0.0,0.0,0.0,0.0,0.0,0.0,0.0,0.0,0.0,0.0,0.0,0.0,0.0,0.0,0.0,0.0,0.0,0.0,0.0,0.0,0.0,0.0,0.0,0.0,0.0,0.0,0.0,0.0,0.0,0.0,0.0,0.0,0.0,0.0,0.0,0.0,0.0,0.0,5.0195,5.6133,5.957,6.039,6.125,6.0508,5.7969,5.6094,5.2344,0.0,0.0,0.0,0.0,0.0,0.0,0.0,0.0,0.0,0.0,0.0,0.0,0.0,0.0,0.0,0.0,0.0,0.0,0.0,0.0,0.0,0.0,0.0,0.0,0.0,0.0,0.0,0.0,0.0,0.0,0.0,0.0,0.0,0.0,0.0,0.0,0.0,0.0,0.0,0.0,0.0,4.6129,4.7818,4.9433,5.0433,0.0,0.0,5.1005,4.9375,4.9181,4.7812,4.3573,0.0,0.0,0.0,0.0,0.0,0.0,0.0,0.0,0.0,0.0,0.0,0.0,0.0,0.0,0.0,0.0,0.0,0.0,0.0,0.0,0.0,0.0,0.0,0.0,0.0,0.0,0.0,0.0,0.0,0.0,0.0,0.0,0.0,0.0,0.0,0.0,0.0,0.0,0.0,0.0,0.0,0.0,0.0,0.0,0.0,0.0,0.0,0.0,0.0,0.0,0.0,0.0,0.0,4.4726,4.9375,5.5859,5.9336,5.9687,6.0976,6.0742,5.875,5.7031,5.3516,0.0,0.0,0.0,0.0,0.0,0.0,0.0,0.0,0.0,0.0,0.0,0.0,0.0,0.0,0.0,0.0,0.0,0.0,0.0,0.0,0.0,0.0,0.0,0.0,0.0,0.0,0.0,0.0,2.5708,2.5241,2.4979,0.0,0.0,0.0,0.0,0.0,0.0,0.0,0.0,0.0,0.0,4.657,4.9316,5.1162,0.0,0.0,5.2936,5.2742,5.0529,5.02,4.86,4.3841,4.0449,0.0,0.0,0.0,0.0,0.0,0.0,0.0,0.0,0.0,0.0,0.0,0.0,0.0,0.0,0.0,0.0,0.0,0.0,0.0,0.0,0.0,0.0,0.0,0.0,0.0,0.0,0.0,0.0,0.0,0.0,0.0,0.0,0.0,0.0,0.0,0.0,0.0,0.0,0.0,0.0,0.0,0.0,0.0,0.0,0.0,0.0,0.0,0.0,0.0,0.0,0.0,0.0,4.4531,4.8867,5.5703,5.9219,5.9219,6.0859,6.0898,5.9219,5.7773,5.457,0.0,0.0,0.0,0.0,0.0,0.0,0.0,0.0,0.0,0.0,0.0,0.0,0.0,0.0,0.0,0.0,0.0,0.0,0.0,0.0,0.0,0.0,0.0,0.0,0.0,0.0,0.0,0.0,2.7375,2.6629,2.5964,0.0,0.0,0.0,0.0,0.0,0.0,0.0,0.0,0.0,0.0,4.7568,5.0683,5.2589,5.3764,5.3976,5.4515,5.413,5.1819,5.0815,4.8943,4.4914,0.0,0.0,0.0,0.0,0.0,0.0,0.0,0.0,0.0,0.0,0.0,0.0,0.0,0.0,0.0,0.0,0.0,0.0,0.0,0.0,0.0,0.0,0.0,0.0,0.0,0.0,0.0,0.0,0.0,0.0,0.0,0.0,0.0,0.0,0.0,0.0,0.0,0.0,0.0,0.0,0.0,0.0,0.0,0.0,0.0,0.0,0.0,0.0,0.0,0.0,0.0,0.0,0.0,4.4531,4.8906,5.5664,5.918,5.9219,6.082,6.0898,5.9258,5.832,5.543,5.0195,0.0,0.0,0.0,0.0,0.0,0.0,0.0,0.0,0.0,0.0,0.0,0.0,0.0,0.0,0.0,0.0,0.0,0.0,0.0,0.0,0.0,0.0,0.0,0.0,0.0,0.0,2.822,2.7379,2.6839,0.0,0.0,0.0,0.0,0.0,0.0,0.0,0.0,0.0,0.0,4.5642,4.9264,5.1829,5.3619,5.4951,5.5709,5.5847,5.5247,5.3437,5.1064,4.8844,0.0,0.0,0.0,0.0,0.0,0.0,0.0,0.0,0.0,0.0,0.0,0.0,0.0,0.0,0.0,0.0,0.0,0.0,0.0,0.0,0.0,0.0,0.0,0.0,0.0,0.0,0.0,0.0,3.7695,0.0,0.0,0.0,0.0,0.0,0.0,0.0,0.0,0.0,0.0,0.0,4.6284,4.6317,0.0,0.0,0.0,0.0,0.0,0.0,0.0,0.0,0.0,0.0,0.0,0.0,4.4023,4.8945,5.5117,5.8594,5.9219,6.082,6.0898,5.9219,5.8359,5.4375,4.6992,0.0,0.0,0.0,0.0,0.0,0.0,0.0,0.0,0.0,0.0,0.0,0.0,0.0,0.0,0.0,0.0,0.0,0.0,0.0,0.0,0.0,0.0,0.0,0.0,0.0,2.9138,0.0,0.0,0.0,0.0,0.0,0.0,0.0,0.0,0.0,0.0,0.0,4.0184,4.4149,4.7844,5.0907,5.2845,5.4591,5.5758,0.0,0.0,0.0,0.0,0.0,0.0,0.0,0.0,0.0,0.0,0.0,0.0,0.0,0.0,4.2816,4.0893,3.9392,3.8099,3.7307,0.0,0.0,0.0,0.0,0.0,0.0,0.0,0.0,0.0,0.0,0.0,0.0,0.0,0.0,0.0,0.0,4.1211,0.0,0.0,0.0,0.0,0.0,0.0,0.0,0.0,4.9766,5.1089,5.1125,5.1406,5.1406,0.0,5.0547,4.7344,0.0,0.0,0.0,0.0,0.0,0.0,0.0,0.0,4.5078,4.9375,5.5273,5.8476,5.8789,6.039,6.0469,5.8789,5.7031,5.3008,4.6562,4.3047,3.9219,0.0,0.0,0.0,0.0,0.0,0.0,0.0,0.0,0.0,0.0,0.0,0.0,0.0,0.0,0.0,0.0,0.0,0.0,0.0,0.0,0.0,0.0,0.0,3.0039,0.0,0.0,0.0,0.0,0.0,0.0,0.0,0.0,0.0,3.6835,3.977,4.3255,4.6924,5.0119,5.2575,5.397,0.0,0.0,0.0,0.0,0.0,0.0,0.0,4.972,4.8043,4.681,4.6296,4.6839,4.7665,4.8317,4.8586,0.0,0.0,4.5393,4.3701,4.2486,4.1655,4.1268,4.1012,4.0723,4.1963,4.3309,0.0,0.0,0.0,0.0,0.0,0.0,0.0,0.0,4.7422,4.7383,0.0,4.5625,0.0,0.0,0.0,0.0,0.0,0.0,0.0,0.0,5.3828,5.539,5.543,5.6211,5.6211,5.543,5.5273,5.3516,5.0039,4.4336,0.0,0.0,0.0,0.0,0.0,0.0,4.7578,5.0312,5.6055,5.8711,5.8008,5.9531,5.957,5.793,5.4609,5.1641,4.9062,4.5625,4.1836,3.7695,3.4922,0.0,0.0,0.0,0.0,0.0,0.0,0.0,0.0,0.0,0.0,0.0,0.0,0.0,0.0,0.0,0.0,0.0,0.0,0.0,0.0,3.0508,0.0,0.0,0.0,0.0,0.0,0.0,0.0,0.0,0.0,0.0,4.1367,4.4246,4.7262,4.9725,0.0,0.0,0.0,0.0,5.7694,5.7634,5.8198,5.7987,5.6295,5.3762,5.203,5.1991,0.0,0.0,5.1774,5.1431,5.1164,5.1818,5.1933,5.1202,4.874,4.7586,4.6701,4.5817,4.6227,4.6606,4.6005,4.6762,4.8029,5.5781,0.0,0.0,0.0,0.0,5.1172,5.1562,5.1836,5.2031,5.2383,5.2617,5.0508,0.0,0.0,0.0,0.0,0.0,0.0,5.1953,5.3945,5.6758,5.8086,5.8086,5.832,5.832,5.8047,5.6836,5.543,5.3711,4.9648,4.5469,4.1328,0.0,0.0,0.0,0.0,4.7851,5.1094,5.5195,5.7539,5.789,5.8984,5.9023,5.793,5.5117,5.3008,5.1641,4.7734,4.4414,4.1914,3.7656,0.0,0.0,0.0,0.0,0.0,0.0,0.0,0.0,0.0,0.0,0.0,0.0,0.0,0.0,0.0,0.0,0.0,0.0,0.0,3.2148,3.3672,3.4023,0.0,0.0,0.0,0.0,0.0,0.0,0.0,0.0,0.0,4.7305,4.8433,4.9758,0.0,0.0,5.5195,5.6055,5.7146,5.8033,5.8582,0.0,0.0,0.0,5.5654,5.4626,5.4593,5.4706,5.5006,5.5472,5.5318,5.4895,5.3972,5.378,5.328,5.2049,5.1048,4.999,4.876,4.9026,4.9296,4.8605,4.9621,5.0794,6.2422,5.8203,5.668,5.5937,5.582,5.6328,5.6719,5.707,5.7422,5.789,5.8242,5.6328,5.4648,5.3086,5.0156,0.0,0.0,0.0,5.5508,5.6914,5.914,6.0195,6.0195,6.0195,6.0,5.9609,5.8281,5.6992,5.5781,5.3398,5.0273,4.6484,0.0,0.0,4.5,4.7187,4.9687,5.2422,5.5508,5.7187,5.7383,5.789,5.7773,5.6875,5.5,5.3437,5.2187,4.8711,4.6016,4.4258,3.9961,3.6367,0.0,0.0,0.0,0.0,0.0,0.0,0.0,0.0,0.0,0.0,0.0,2.293,2.4297,0.0,0.0,0.0,3.0469,3.2461,3.3789,3.5469,0.0,0.0,0.0,0.0,0.0,0.0,0.0,4.3359,4.6172,4.8828,5.1367,5.2305,5.3125,5.4141,5.543,5.664,5.75,0.0,5.906,5.9538,5.9669,5.9405,5.8513,5.7468,5.672,5.6732,5.7126,5.7636,5.7934,5.7473,5.6665,5.5742,5.5203,5.4703,5.3857,5.351,5.2895,5.1298,5.1607,5.1991,5.1523,5.2444,5.3409,6.8008,6.6797,6.2031,6.039,6.0898,6.0937,6.1367,6.2148,6.2851,6.3242,6.3242,6.2226,6.043,5.793,5.4687,0.0,0.0,5.707,5.8672,5.957,6.1172,6.1914,6.1914,6.1836,6.1406,6.0586,5.9726,5.8476,5.6914,5.5898,5.4609,5.293,4.8945,4.7695,4.9219,5.0781,5.2422,5.4101,5.6523,5.7383,5.6601,5.6601,5.6172,5.5312,5.4453,5.3164,5.1445,4.9023,4.6914,4.5234,4.1992,3.9062,3.6523,0.0,0.0,0.0,0.0,0.0,0.0,0.0,0.0,0.0,0.0,0.0,0.0,0.0,0.0,0.0,3.1836,0.0,3.5039,3.668,0.0,0.0,0.0,3.8711,4.1211,4.2266,4.4101,4.7422,0.0,0.0,0.0,0.0,5.6758,5.6875,5.7539,5.832,5.918,5.9883,6.0427,6.0475,6.0917,6.0962,6.0026,5.9127,5.8489,5.8479,5.8511,5.8773,5.9196,5.8319,5.7319,5.7049,5.6434,5.5665,5.4839,5.528,5.5318,5.3664,5.3993,5.4531,5.4451,5.4951,5.5472,7.0586,6.9648,6.7773,6.6328,6.5351,6.5351,6.5469,6.5625,6.5195,6.5351,6.582,6.3672,6.1601,5.9726,5.8281,5.8086,5.8945,6.0234,6.125,6.2148,6.3164,6.3672,6.3672,6.3008,6.2578,6.2265,6.0859,5.9883,5.9414,5.7344,5.6055,5.5586,5.332,5.207,5.1836,5.2851,5.3906,5.5,5.625,5.6797,5.6601,5.6601,5.6172,5.5312,5.4453,5.3164,5.1445,4.9609,4.8086,4.6992,4.4297,4.1953,4.0039,3.625,0.0,0.0,0.0,0.0,0.0,0.0,0.0,0.0,0.0,2.7461,2.8281,0.0,3.1328,0.0,3.5351,3.7734,3.8594,4.0195,0.0,0.0,4.1172,4.1953,4.3867,4.543,4.7187,4.9336,5.1641,5.3828,5.5742,5.6914,5.8047,5.9297,5.914,5.918,6.0,6.0234,6.0662,6.1217,6.1315,6.1195,6.0903,6.0537,6.0165,6.0227,6.0165,6.0065,5.958,5.9181,5.8704,5.8127,5.7857,5.7357,5.6549,5.6588,5.6319,5.5357,5.528,5.5395,5.5434,5.5588,5.5895,7.2656,7.1836,7.1328,7.039,6.9101,6.8359,6.8047,6.8008,6.7539,6.7578,6.789,6.6094,6.457,6.3242,6.2422,6.207,6.2187,6.3047,6.3672,6.418,6.4648,6.4883,6.4805,6.3594,6.3008,6.293,6.164,6.0781,6.0351,5.8984,5.8125,5.7734,5.6797,5.6055,5.5586,5.4922,5.5,5.5859,5.6367,5.6601,5.6601,5.6601,5.5976,5.4765,5.3867,5.2617,5.0937,4.9219,4.8086,4.7578,4.5469,4.3516,4.1758,3.8398,3.5117,0.0,0.0,0.0,0.0,0.0,0.0,0.0,0.0,0.0,0.0,0.0,3.5,0.0,3.8398,0.0,4.1484,4.3476,4.4726,4.4726,4.5391,4.6406,4.7695,4.9023,5.0547,5.2266,5.3711,5.5234,5.6953,5.793,5.8945,6.0234,6.0351,6.0469,6.0859,6.0974,6.1157,6.1603,6.1471,6.1238,6.1059,6.0877,6.0781,6.0781,6.0781,6.0627,6.0142,5.9742,5.9358,5.8896,5.855,5.8165,5.7703,5.7588,5.7396,5.7027,5.6857,5.6686,5.6379,5.6588,5.7049,7.4258,7.3476,7.3476,7.3047,7.2226,7.0781,7.0039,6.9805,6.9687,6.957,6.9375,6.8672,6.793,6.7187,6.6445,6.5664,6.5,6.5625,6.5937,6.5937,6.582,6.5742,6.5703,6.4101,6.332,6.3281,6.2344,6.1484,6.0742,6.0508,6.0039,5.9375,5.9219,5.9219,5.9101,5.6953,5.6094,5.6758,5.6758,5.6719,5.6601,5.6484,5.5664,5.4062,5.3047,5.1758,5.0078,4.8476,4.7539,4.7383,4.5976,4.4375,4.2656,4.0273,3.7422,0.0,3.3047,0.0,0.0,0.0,0.0,0.0,0.0,0.0,0.0,3.6875,3.8516,4.0234,4.1172,4.2383,4.4023,4.6445,4.7969,4.8125,4.9531,5.082,5.1641,5.25,5.3672,5.5312,5.5547,5.6289,5.8008,5.8906,5.9648,6.0508,6.1172,6.1601,6.1836,6.1746,6.1642,6.172,6.1463,6.1175,6.0902,6.0804,6.0781,6.0781,6.0781,6.0781,6.0742,6.0204,5.9665,5.9627,5.9165,5.8665,5.8511,5.8473,5.8412,5.8212,5.8242,5.8115,5.7456,5.7665,5.8319,7.5156,7.4336,7.4336,7.4258,7.4062,7.375,7.2812,7.1484,7.0781,7.0078,6.9453,6.9258,6.9101,6.8984,6.8828,6.8672,6.8398,6.793,6.7695,6.7695,6.6992,6.664,6.6601,6.5586,6.5117,6.5,6.3515,6.2695,6.25,6.1094,6.0312,6.0156,5.9531,5.9219,0.0,0.0,0.0,0.0,5.7656,5.7305,5.6601,5.5898,5.5039,5.3984,5.2461,0.0,4.9219,4.8164,4.7266,4.6601,4.625,0.0,0.0,0.0,0.0,0.0,0.0,0.0,0.0,0.0,0.0,0.0,4.0273,4.0039,3.9062,3.9883,4.1172,4.2812,4.3789,4.5,4.668,4.8594,4.9961,5.0664,5.1601,5.2539,5.3398,5.4258,5.5234,5.6211,5.6953,5.8047,5.957,6.0078,6.0508,6.1289,6.1601,6.1992,6.2656,6.2175,6.172,6.1671,6.1471,6.1151,6.0834,6.0781,6.0781,6.0781,6.0781,6.0781,6.0781,6.0704,6.055,6.0512,6.0396,6.005,5.9412,5.9258,5.9065,5.8443,5.8858,5.9034,5.8235,5.8197,5.8504,7.6015,0.0,7.5234,7.5,0.0,7.457,7.4101,7.3242,7.2812,7.2148,7.1367,7.1328,7.0898,7.0078,7.0078,6.9844,6.9414,6.8984,6.8594,6.8164,6.7734,6.7305,6.6875,6.6015,6.5625,6.5547,6.4297,6.3398,6.2969,6.2109,6.1445,6.1055,6.0625,6.043,6.043,6.043,5.9609,5.793,5.789,5.7461,5.664,5.6172,5.5547,5.4648,0.0,0.0,0.0,0.0,0.0,0.0,0.0,0.0,0.0,0.0,0.0,3.9375,3.8398,3.793,3.7969,3.9101,4.0742,4.293,4.4648,4.4687,4.2578,4.3203,4.4258,4.5508,4.6797,4.8086,4.9375,5.1055,5.2226,5.2656,5.3476,5.418,5.4687,5.5781,5.6758,5.7226,5.8008,5.9023,6.0234,6.039,6.0937,6.2109,6.2344,6.2656,6.3359,6.2878,6.2311,6.216,6.2005,6.1585,6.0971,6.0781,6.0819,6.0781,6.0781,6.0781,6.0781,6.0781,6.0781,6.0781,6.0781,6.0627,6.0281,6.0165,6.0012,5.9681,5.9858,6.0012,5.9604,5.9504,5.9642,7.6797,7.6133,7.6133,7.5742,7.5078,7.5039,7.5078,7.5039,0.0,0.0,0.0,7.3359,7.25,7.1172,7.0976,7.0547,6.9922,6.9726,6.918,6.8398,6.8242,6.7734,6.6875,6.6172,6.582,6.5781,6.4961,6.4062,6.3242,6.3086,6.2539,6.1797,6.1719,6.1719,6.1719,6.1719,6.0586,5.8437,5.832,5.7851,5.6875,5.668,5.625,5.5547,5.3672,5.1992,5.0469,4.8906,4.7656,4.6797,4.6758,4.6367,4.5508,4.4766,4.3711,4.2266,4.2109,4.1875,4.1328,4.2539,4.4023,4.5586,4.7969,4.832,4.5859,4.6484,4.7344,4.8203,4.9726,5.0976,5.1797,5.3242,5.4219,5.4258,5.5156,5.5742,5.5859,5.7148,5.8164,5.8359,5.8984,5.9726,6.0547,6.0859,6.1367,6.2656,6.3125,6.3555,6.4219,6.3777,6.3097,6.2858,6.276,6.2383,6.1571,6.1343,6.1166,6.1127,6.105,6.0973,6.0819,6.0781,6.0781,6.0781,6.0781,6.0781,6.0781,6.0742,6.0781,6.0781,6.0781,6.0781,6.0781,6.0781,6.0742,7.7148,7.7031,7.7031,7.6953,7.6836,7.6836,7.6836,7.6719,7.5273,7.4531,7.4375,7.3633,7.3164,7.289,7.2148,7.1758,7.1601,7.0859,7.0039,0.0,6.8515,6.7734,6.6914,6.6797,6.6719,6.664,6.5859,6.4961,6.4101,6.3359,6.2539,6.1797,6.1719,6.1719,6.1719,6.1719,6.1172,6.0078,6.0039,5.9297,5.7734,5.6992,5.6562,5.6328,5.4023,5.2226,5.125,5.0312,4.9414,4.8594,4.8516,4.8125,4.7305,4.707,4.6601,4.5664,4.5586,4.5859,4.6445,4.6758,4.7305,4.832,5.0039,5.0273,4.8555,4.9141,5.0,5.082,5.1758,5.2695,5.3555,5.4531,5.5195,5.5234,5.6562,5.75,5.75,5.8359,5.9258,5.9844,6.0156,6.0547,6.1328,6.207,6.2578,6.3047,6.3789,6.4453,6.5039,6.4636,6.3964,6.3668,6.3574,6.3361,6.2876,6.2921,6.256,6.2021,6.1882,6.1689,6.1089,6.1012,6.0973,6.0819,6.0896,6.0858,6.0819,6.0781,6.0781,6.0781,6.0781,6.0781,6.0781,6.0781,6.0781,7.7226,7.7226,7.7226,7.7226,7.7226,7.7226,7.7226,7.7148,7.6367,7.5742,7.5234,7.4375,7.375,7.3242,7.2383,7.1992,7.1992,7.1562,7.0703,6.9492,6.9062,6.8203,6.6992,6.6914,6.6914,6.6836,6.6015,6.5156,6.4297,6.3398,6.2578,6.1758,6.1719,6.1719,6.1719,6.1719,6.1289,6.043,6.039,5.9805,5.8633,5.7773,5.7305,5.7265,5.5195,5.3476,5.2148,5.1289,5.0234,4.8945,4.8906,4.8711,4.832,4.832,4.8125,4.7734,4.7734,4.7891,4.8281,4.9141,4.9844,5.0273,5.1836,5.25,5.1758,5.2031,5.2422,5.2812,5.3594,5.4258,5.4687,5.5898,5.6719,5.668,5.7851,5.8594,5.8672,5.9336,6.0,6.039,6.082,6.125,6.164,6.2461,6.3203,6.3672,6.4805,6.582,6.6211,6.5922,6.5307,6.4676,6.4425,6.4058,6.3469,6.3295,6.3128,6.2781,6.2752,6.2598,6.2204,6.2166,6.1935,6.1589,6.1512,6.1281,6.0935,6.0781,6.0781,6.0781,6.0781,6.0781,6.0781,6.0781,6.0781,7.7226,7.7226,7.7226,7.7226,7.7226,7.7226,7.7226,7.7226,7.7187,7.6719,7.5859,7.5,7.4219,7.3515,7.25,7.1992,7.1992,7.1992,7.1211,6.9844,6.9609,6.8672,6.7265,6.6992,6.6914,6.6797,6.6015,6.5156,6.4297,6.3398,6.2578,6.1797,6.1719,6.1719,6.1719,6.1719,6.1367,6.0742,6.0703,6.0234,5.9219,5.8515,5.8125,5.7812,5.6406,5.4883,5.3359,5.2617,5.1601,5.0195,5.0039,4.9961,4.9766,4.9766,4.9648,4.9492,4.9648,4.9844,5.0078,5.125,5.1992,5.2031,5.3398,5.4375,5.457,5.4765,5.4687,5.4492,5.5234,5.5898,5.6094,5.7265,5.8203,5.8242,5.8945,5.9453,5.9531,6.0195,6.0703,6.0781,6.1289,6.168,6.1875,6.2617,6.375,6.4883,6.6093,6.6833,6.6867,6.68,6.6332,6.5716,6.5351,6.4967,6.4046,6.3949,6.3847,6.368,6.3575,6.346,6.3281,6.3218,6.2974,6.2243,6.205,6.1666,6.1012,6.0781,6.0781,6.0781,6.0781,6.0781,6.0781,6.0781,6.0781,7.7226,7.7226,7.7226,7.7226,7.7226,7.7226,7.7226,7.7226,7.7226,7.6719,7.5859,7.5,7.457,7.4258,7.2734,7.1992,7.1992,7.1992,7.1484,7.0547,6.9844,6.8984,6.8008,6.7226,6.6914,6.6758,6.5937,6.5,6.4219,6.3359,6.2539,6.1797,6.1719,6.1719,6.1719,6.1719,6.164,6.1601,6.1601,6.0781,5.9297,5.914,5.8711,5.789,5.6992,5.6015,5.5,5.5,5.4492,5.3633,5.3398,5.3125,5.2422,5.2305,5.1992,5.125,5.1875,5.2695,5.3398,5.3672,5.3711,5.3828,5.4648,5.5586,5.6289,5.707,5.6836,5.5898,5.6719,5.7539,5.7734,5.8515,5.9062,5.9101,5.9805,6.0273,6.039,6.1055,6.1562,6.1562,6.164,6.1719,6.1875,6.3047,6.4726,6.6172,6.6628,6.6856,6.678,6.6751,6.6607,6.6242,6.6167,6.5973,6.5572,6.5628,6.518,6.4603,6.4487,6.4257,6.3809,6.3463,6.3078,6.2551,6.2089,6.1781,6.1127,6.0781,6.0781,6.0781,6.0781,6.0781,6.0781,6.0781,6.0781,7.7226,7.7226,7.7226,7.7226,7.7226,7.7226,7.7226,7.7226,7.7226,7.6719,7.5859,7.4961,7.4336,7.375,7.2539,7.1992,7.1992,7.1992,7.1523,7.0664,6.9883,6.9062,6.8125,6.6758,6.6133,6.6015,6.4726,6.3867,6.3437,6.2656,6.2031,6.1758,6.1719,6.1719,6.1719,6.1719,6.1445,6.0976,6.0937,6.0117,5.8711,5.8945,5.8789,5.793,5.707,5.6211,5.539,5.5312,5.4883,5.4062,5.3984,5.3828,5.3476,5.3476,5.332,5.2969,5.3242,5.3633,5.3984,5.4492,5.5,5.5469,5.6328,5.7187,5.8047,5.8476,5.832,5.789,5.8242,5.8672,5.875,5.9414,5.9922,6.0039,6.0664,6.1133,6.1172,6.1484,6.1719,6.1719,6.1719,6.1719,6.1953,6.3203,6.4961,6.6484,6.6844,6.679,6.6683,6.6617,6.6467,6.626,6.6185,6.6089,6.5919,6.5897,6.5705,6.5474,6.5397,6.5141,6.4834,6.4295,6.382,6.2935,6.2397,6.1781,6.0973,6.0819,6.0781,6.0781,6.0781,6.0781,6.0781,6.0781,6.0781,7.7226,7.7226,7.7226,7.7226,7.7226,7.7226,7.7226,7.7226,7.7226,7.6562,7.5508,7.4883,7.3984,7.293,7.2265,7.1992,7.1992,7.1992,7.168,7.0976,7.0,6.918,6.8398,6.6758,6.582,6.539,6.414,6.3125,6.2656,6.2031,6.1719,6.1719,6.1719,6.1719,6.1719,6.1719,6.1406,6.0859,6.0781,6.0039,5.8867,5.8984,5.8672,5.7617,5.6953,5.6289,5.5703,5.5664,5.5351,5.4765,5.4726,5.4609,5.4375,5.4375,5.4375,5.4336,5.4375,5.4609,5.5039,5.5664,5.6406,5.7226,5.793,5.8633,5.9336,5.9531,5.9648,5.9883,5.9883,5.9844,5.9609,6.0273,6.0703,6.0818,6.136,6.1709,6.168,6.1716,6.1719,6.1718,6.1719,6.1948,6.2461,6.375,6.5273,6.6562,6.683,6.6737,6.6592,6.6495,6.6358,6.6144,6.6084,6.6007,6.5933,6.5897,6.5897,6.5897,6.582,6.5705,6.5628,6.4883,6.4075,6.2858,6.2397,6.182,6.105,6.0819,6.0781,6.0781,6.0781,6.0781,6.0781,6.0781,6.0781,7.7226,7.7226,7.7226,7.7226,7.7226,7.7226,7.7226,7.7226,7.7226,7.6289,7.4844,7.4648,7.3672,7.2148,7.2031,7.1992,7.1992,7.1992,7.1914,7.164,7.0234,6.9453,6.9219,6.7656,6.6367,6.5469,6.4492,6.3281,6.1875,6.1719,6.1719,6.1719,6.1719,6.1719,6.1719,6.1719,6.168,6.1484,6.1445,6.1094,6.0234,5.9531,5.8398,5.6992,5.664,5.6562,5.6523,5.6523,5.6484,5.6484,5.6367,5.6055,5.5351,5.5273,5.5312,5.5351,5.5312,5.6015,5.7383,5.7656,5.8086,5.8867,5.9062,5.9492,6.0234,6.0351,6.0664,6.1445,6.1445,6.1211,6.0625,6.1094,6.1562,6.1647,6.1705,6.1768,6.1788,6.1944,6.174,6.179,6.1882,6.2485,6.3828,6.4883,6.5703,6.6494,6.6741,6.6633,6.6484,6.6394,6.6264,6.6123,6.6036,6.599,6.5884,6.5897,6.5897,6.5897,6.582,6.5628,6.5076,6.4422,6.3575,6.2767,6.2204,6.1627,6.105,6.0781,6.0781,6.0781,6.0781,6.0781,6.0781,6.0781,6.0781,7.7226,7.7226,7.7226,7.7226,7.7226,7.7226,7.7226,7.7226,7.7226,7.6211,7.4805,7.457,7.3633,7.1992,7.1992,7.1992,7.1992,7.1992,7.1719,7.1094,7.0,6.918,6.8476,6.6875,6.5625,6.4726,6.3906,6.289,6.1836,6.1719,6.1719,6.1719,6.1719,6.1719,6.1719,6.1719,6.1445,6.0937,6.0859,6.0469,5.9765,5.9336,5.8633,5.75,5.6875,5.6601,5.6601,5.6601,5.6601,5.6601,5.6601,5.6484,5.625,5.668,5.7226,5.7734,5.7812,5.8086,5.8594,5.8711,5.9062,5.9844,5.9961,6.0312,6.1015,6.125,6.1367,6.1719,6.2271,6.2306,6.2109,6.1875,6.1944,6.2391,6.2439,6.2599,6.2988,6.3081,6.3036,6.3038,6.304,6.3541,6.4432,6.5049,6.5582,6.6355,6.6489,6.6411,6.6283,6.6221,6.6144,6.6029,6.5933,6.5909,6.5923,6.5897,6.5897,6.5897,6.5782,6.5422,6.4922,6.4099,6.3253,6.2305,6.1743,6.1358,6.0781,6.0781,6.0781,6.0781,6.0781,6.0781,6.0781,6.0781,6.0781,7.7461,7.7265,7.75,7.7461,7.7226,7.7226,7.7226,7.7226,7.7187,7.6211,7.4805,7.457,7.3633,7.2187,7.1992,7.1992,7.1992,7.1992,7.168,7.1055,7.0,6.918,6.8398,6.6836,6.5547,6.4648,6.3515,6.2539,6.1797,6.1719,6.1719,6.1719,6.1719,6.1719,6.1719,6.1719,6.1367,6.0898,6.082,6.0547,6.0039,5.9726,5.9336,5.8672,5.789,5.7148,5.668,5.6875,5.7031,5.707,5.7265,5.7461,5.75,5.8008,5.8594,5.9101,5.918,5.9336,5.9531,5.957,5.9961,6.0703,6.082,6.1094,6.164,6.1719,6.1836,6.2148,6.2542,6.3001,6.3154,6.2773,6.2647,6.3224,6.3261,6.3376,6.3839,6.3779,6.3744,6.374,6.3961,6.444,6.4993,6.5323,6.5769,6.6304,6.6312,6.6234,6.6144,6.6082,6.6029,6.5923,6.5923,6.5923,6.5897,6.5897,6.5897,6.5897,6.5859,6.5397,6.4653,6.3792,6.2983,6.1997,6.1358,6.0973,6.0781,6.0819,6.0781,6.0781,6.0781,6.0781,6.0781,6.0781,6.0781,7.7969,7.7422,7.8125,7.793,7.7265,7.7226,7.7226,7.7226,7.7226,7.6289,7.4883,7.4609,7.3672,7.2344,7.207,7.1992,7.1992,7.1992,7.1914,7.1601,7.0273,6.9453,6.9062,6.7656,6.6367,6.543,6.3828,6.2617,6.1875,6.1836,6.1836,6.1719,6.1719,6.1719,6.1719,6.1719,6.168,6.1601,6.1562,6.1601,6.1601,6.082,6.0351,6.0156,5.9492,5.8359,5.6836,5.75,5.789,5.7969,5.8633,5.914,5.9101,5.918,5.9258,5.9375,5.9336,5.9687,6.0312,6.043,6.0781,6.1523,6.1719,6.1797,6.1992,6.2031,6.2265,6.2851,6.3068,6.3225,6.3884,6.3925,6.3886,6.406,6.4023,6.3959,6.3967,6.3834,6.3744,6.3997,6.4547,6.4974,6.5202,6.5662,6.6108,6.6198,6.6217,6.6136,6.6067,6.6005,6.5972,6.5923,6.5897,6.5897,6.5897,6.5897,6.5897,6.5897,6.582,6.5551,6.4551,6.3652,6.3137,6.2267,6.1589,6.1243,6.1127,6.1089,6.0819,6.0781,6.0781,6.0781,6.0781,6.0781,6.0781,7.832,7.8125,7.8359,7.8008,7.7265,7.7226,7.7226,7.7226,7.7226,7.6523,7.5508,7.4883,7.3984,7.2969,7.2305,7.1992,7.1992,7.1992,7.168,7.1133,7.0547,6.9687,6.8672,6.8047,6.7031,6.5625,6.4453,6.3437,6.2734,6.2578,6.2344,6.1836,6.1719,6.1719,6.1758,6.1719,6.1719,6.1719,6.1719,6.1719,6.168,6.1445,6.1015,6.043,6.0156,5.9492,5.8476,5.8672,5.8789,5.8789,5.9062,5.9453,5.9922,6.0039,6.0312,6.082,6.0937,6.0976,6.1211,6.1328,6.168,6.2383,6.2617,6.293,6.3386,6.3435,6.3515,6.3828,6.4169,6.4638,6.4793,6.5269,6.5196,6.4769,6.4619,6.477,6.5141,6.5213,6.5219,6.5257,6.5471,6.559,6.5628,6.5951,6.6005,6.6024,6.6013,6.5986,6.5972,6.5933,6.5923,6.5897,6.5897,6.5897,6.5897,6.5897,6.5897,6.5897,6.5859,6.5551,6.4551,6.3897,6.332,6.2651,6.2012,6.1589,6.1512,6.1243,6.0935,6.0781,6.0781,6.0781,6.0781,6.0781,6.0781,7.9062,7.8555,7.8828,7.8242,7.7265,7.7226,7.7226,7.7226,7.7226,7.6719,7.582,7.4961,7.4101,7.3242,7.2383,7.2031,7.1992,7.1992,7.1719,7.1172,7.0781,6.9922,6.8633,6.793,6.7031,6.5742,6.5039,6.4336,6.3515,6.3476,6.3203,6.2734,6.2344,6.2187,6.2148,6.1836,6.1719,6.1719,6.1719,6.1719,6.1719,6.1719,6.1445,6.0976,6.0898,6.0625,6.0156,6.0117,5.9961,5.9765,5.9922,6.039,6.0859,6.0898,6.1133,6.1562,6.1719,6.1797,6.2109,6.2187,6.2539,6.3281,6.3476,6.3672,6.4174,6.4271,6.425,6.4609,6.4817,6.5213,6.5457,6.582,6.5894,6.543,6.5302,6.5481,6.5928,6.5933,6.5884,6.5807,6.5859,6.5897,6.5897,6.5897,6.5897,6.5897,6.5897,6.5897,6.5897,6.5897,6.5897,6.5897,6.5897,6.5897,6.5897,6.5897,6.5897,6.5897,6.5897,6.5397,6.4641,6.4411,6.4012,6.3128,6.2397,6.1973,6.1781,6.1204,6.0781,6.0781,6.0858,6.0781,6.0781,6.0781,6.0781,7.9883,7.8672,7.9297,7.8633,7.7305,7.7226,7.7226,7.7226,7.7226,7.6719,7.5859,7.5,7.414,7.3242,7.2383,7.1992,7.1992,7.1992,7.1992,7.168,7.1094,7.0156,6.9219,6.7773,6.6601,6.5898,6.5703,6.5195,6.4414,6.4375,6.4336,6.4023,6.3359,6.3008,6.2812,6.2148,6.1797,6.1719,6.1719,6.1719,6.1719,6.1719,6.168,6.164,6.1601,6.1562,6.1484,6.1406,6.1172,6.0703,6.1133,6.1484,6.164,6.168,6.164,6.1719,6.1758,6.2226,6.2773,6.3047,6.3437,6.4258,6.4375,6.4441,6.4599,6.4691,6.4815,6.527,6.5157,6.5249,6.5846,6.5986,6.5909,6.5923,6.587,6.5923,6.5897,6.5897,6.5897,6.5897,6.5897,6.5897,6.5897,6.5897,6.5897,6.5897,6.5897,6.5897,6.5897,6.5897,6.5897,6.5897,6.5897,6.5897,6.5897,6.5897,6.5897,6.5897,6.5897,6.5551,6.5103,6.4949,6.4859,6.3974,6.3051,6.2551,6.2127,6.1743,6.1281,6.1189,6.1089,6.0896,6.0781,6.0781,6.0781,7.8828,7.8476,7.8711,7.8203,7.7265,7.7226,7.7226,7.7226,7.7226,7.6719,7.5859,7.5,7.414,7.3242,7.2383,7.1992,7.1992,7.1992,7.1992,7.1836,7.1094,7.0234,6.9219,6.7695,6.6797,6.6523,6.6445,6.6094,6.5312,6.5273,6.4961,6.4297,6.414,6.3633,6.3047,6.2773,6.2305,6.1797,6.1719,6.1719,6.1719,6.1719,6.1719,6.1719,6.1719,6.1719,6.1719,6.1719,6.164,6.1406,6.1523,6.1719,6.1719,6.1719,6.1719,6.1758,6.2305,6.2734,6.3047,6.3633,6.4336,6.5117,6.5234,6.5508,6.6076,6.5987,6.6,6.6125,6.5894,6.5793,6.5999,6.5936,6.5897,6.5897,6.5936,6.5936,6.5897,6.5897,6.5897,6.5897,6.5897,6.5897,6.5897,6.5897,6.5897,6.5897,6.5897,6.5897,6.5897,6.5897,6.5897,6.5897,6.5897,6.5897,6.5897,6.5897,6.5897,6.5897,6.5897,6.5859,6.5628,6.5551,6.5551,6.5243,6.4166,6.3512,6.3243,6.2897,6.2421,6.1689,6.1304,6.105,6.0858,6.0781,6.0781,7.863,7.8359,7.8437,7.8008,7.7265,7.7226,7.7226,7.7226,7.7187,7.6719,7.5859,7.5,7.414,7.3281,7.2383,7.1992,7.1992,7.1992,7.1992,7.1797,7.0742,6.9726,6.8711,6.7461,6.6914,6.6914,6.6914,6.6601,6.6211,6.6172,6.5859,6.5469,6.5039,6.4414,6.3594,6.3125,6.2578,6.1875,6.1719,6.1719,6.1719,6.1719,6.1719,6.1719,6.1719,6.1719,6.1719,6.1719,6.1719,6.168,6.1719,6.1719,6.1719,6.1719,6.1719,6.1758,6.2539,6.3125,6.3633,6.4375,6.5234,6.5937,6.6133,6.6328,6.6605,6.665,6.6462,6.6345,6.6157,6.6024,6.5974,6.5936,6.5897,6.5897,6.5897,6.5897,6.5897,6.5897,6.5897,6.5897,6.5897,6.5897,6.5897,6.5897,6.5897,6.5897,6.5897,6.5897,6.5897,6.5897,6.5897,6.5897,6.5897,6.5897,6.5897,6.5897,6.5897,6.5897,6.5897,6.5897,6.5897,6.5897,6.5859,6.5628,6.5013,6.4512,6.4166,6.3628,6.2767,6.2113,6.1612,6.1228,6.105,6.0781,6.0781,7.8766,7.8164,7.8281,7.789,7.7265,7.7187,7.7109,7.7031,7.6992,7.6406,7.5469,7.4765,7.3867,7.3125,7.2305,7.1992,7.1992,7.1992,7.1758,7.1211,7.0195,6.9101,6.8008,6.7344,6.6914,6.6914,6.6914,6.6875,6.6758,6.6797,6.6875,6.6523,6.5976,6.5195,6.4258,6.3515,6.2695,6.1875,6.1719,6.1719,6.1719,6.1719,6.1719,6.1719,6.1719,6.1719,6.1719,6.1719,6.1719,6.1719,6.1719,6.1719,6.1719,6.1719,6.1836,6.207,6.2812,6.3594,6.4414,6.5234,6.6015,6.664,6.6797,6.6875,6.6761,6.6572,6.6399,6.6295,6.6058,6.5947,6.5897,6.5897,6.5897,6.5897,6.5897,6.5897,6.5897,6.5897,6.5897,6.5897,6.5897,6.5897,6.5897,6.5897,6.5897,6.5897,6.5897,6.5897,6.5897,6.5897,6.5897,6.5897,6.5897,6.5897,6.5897,6.5897,6.5897,6.5897,6.5897,6.5897,6.5897,6.5897,6.5897,6.5667,6.532,6.5089,6.4859,6.4128,6.3243,6.269,6.2344,6.1766,6.1228,6.0896,6.0781,7.7333,7.7298,7.7343,7.7344,7.7226,7.7187,7.6797,7.6172,7.6172,7.5351,7.4101,7.3672,7.3125,7.2305,7.2109,7.1992,7.1992,7.1875,7.1328,6.9961,6.9726,6.8555,6.75,6.6953,6.6914,6.6914,6.6914,6.6914,6.6914,6.6914,6.6914,6.6836,6.6523,6.582,6.4453,6.3945,6.3203,6.1992,6.1719,6.1719,6.1719,6.1719,6.1719,6.1719,6.1719,6.1719,6.1719,6.1719,6.1719,6.1719,6.1719,6.1719,6.1719,6.1758,6.2031,6.2695,6.3515,6.4414,6.5273,6.6015,6.664,6.6836,6.6875,6.6872,6.68,6.6611,6.6438,6.6278,6.6058,6.5999,6.5974,6.5897,6.6013,6.609,6.6013,6.5936,6.5897,6.5897,6.5897,6.5897,6.5897,6.5897,6.5897,6.5897,6.5897,6.5897,6.5897,6.5897,6.5897,6.5897,6.5897,6.5897,6.5897,6.5897,6.5897,6.5897,6.5897,6.5897,6.5897,6.5897,6.5897,6.5897,6.5897,6.5859,6.582,6.559,6.532,6.4936,6.4128,6.3628,6.3075,6.2459,6.1882,6.1381,6.1127,7.6669,7.6864,7.6966,7.6831,7.6562,7.6562,7.6094,7.539,7.5312,7.457,7.3515,7.332,7.2812,7.2031,7.1992,7.1992,7.1875,7.1523,7.0703,6.957,6.9062,6.8164,6.7187,6.6914,6.6914,6.6914,6.6914,6.6914,6.6914,6.6875,6.6914,6.6836,6.6523,6.5547,6.4375,6.3906,6.2969,6.1992,6.1719,6.1719,6.1719,6.1719,6.1719,6.1719,6.1719,6.1719,6.1719,6.1719,6.1719,6.1719,6.1719,6.1719,6.1836,6.207,6.2539,6.3047,6.4258,6.5,6.5703,6.6367,6.6875,6.6914,6.6914,6.6836,6.6878,6.6845,6.6711,6.6489,6.6389,6.6461,6.6461,6.6474,6.6564,6.6936,6.6667,6.6474,6.6397,6.6128,6.5897,6.5897,6.5897,6.5897,6.5897,6.5897,6.5897,6.5897,6.5897,6.5897,6.5897,6.5897,6.5897,6.5897,6.5897,6.5897,6.5897,6.5897,6.5897,6.5897,6.5897,6.5897,6.5897,6.5897,6.5897,6.5859,6.5859,6.5859,6.5628,6.5282,6.4936,6.4334,6.3743,6.319,6.2767,6.2382,6.2243,7.6057,7.6288,7.643,7.6141,7.5662,7.5664,7.5195,7.4492,7.4414,7.3867,7.3203,7.3125,7.2578,7.2109,7.1992,7.1992,7.1797,7.1133,7.0273,6.9414,6.8633,6.7812,6.707,6.6914,6.6914,6.6914,6.6914,6.6875,6.668,6.668,6.6406,6.6367,6.5781,6.4883,6.4062,6.3398,6.2656,6.1836,6.1719,6.1719,6.1719,6.1719,6.1719,6.1719,6.1719,6.1719,6.1719,6.1719,6.1719,6.1719,6.1719,6.1797,6.207,6.25,6.3242,6.3398,6.4844,6.5547,6.5976,6.6484,6.6914,6.6914,6.6914,6.6992,6.7112,6.7313,6.7256,6.7148,6.7084,6.7218,6.7116,6.7256,6.7641,6.7987,6.7667,6.7282,6.6974,6.6436,6.6205,6.5897,6.5897,6.5897,6.5897,6.5897,6.5897,6.5897,6.5897,6.5897,6.5897,6.5897,6.5897,6.5897,6.5897,6.5897,6.5897,6.5897,6.5897,6.5897,6.5897,6.5897,6.5897,6.5897,6.5897,6.5897,6.5897,6.5897,6.5897,6.5667,6.532,6.4872,6.4449,6.3897,6.3589,6.3397,6.3281,7.4229,7.4355,7.4545,7.4626,7.4657,7.4763,7.4297,7.3594,7.3515,7.3047,7.2305,7.2226,7.2187,7.1992,7.1992,7.1992,7.1719,7.0859,7.0078,6.9258,6.8476,6.7617,6.7031,6.6914,6.6875,6.6914,6.6797,6.6484,6.6015,6.582,6.5625,6.4922,6.4609,6.4062,6.3515,6.3008,6.25,6.1836,6.1719,6.1719,6.1719,6.1719,6.1719,6.1719,6.1719,6.1719,6.1719,6.1719,6.1719,6.1719,6.1719,6.2109,6.2695,6.3008,6.3789,6.4765,6.539,6.5976,6.6484,6.6758,6.6914,6.6914,6.6992,6.7305,6.7615,6.7812,6.8008,6.8199,6.8088,6.7872,6.7154,6.7795,6.8191,6.8383,6.8294,6.7936,6.7398,6.6936,6.659,6.6167,6.6013,6.5897,6.5897,6.5897,6.5897,6.5897,6.5897,6.5897,6.5897,6.5897,6.5897,6.5897,6.5897,6.5897,6.5897,6.5897,6.5897,6.5897,6.5897,6.5897,6.5897,6.5897,6.5897,6.5897,6.5897,6.5897,6.5897,6.5897,6.5743,6.5397,6.4987,6.4603,6.4411,6.4205,6.3795,7.3651,7.3767,7.3928,7.3806,7.3612,7.3715,7.3316,7.2656,7.2578,7.2383,7.2109,7.1992,7.1992,7.1992,7.1992,7.1797,7.1133,6.9922,6.9219,6.8633,6.793,6.7344,6.6914,6.6914,6.6601,6.6367,6.6211,6.6094,6.5625,6.5625,6.5039,6.4375,6.3906,6.3398,6.2969,6.2539,6.2187,6.1758,6.1719,6.1719,6.1719,6.1719,6.1719,6.1719,6.1719,6.1719,6.1719,6.1719,6.1719,6.1797,6.2148,6.2812,6.3476,6.414,6.4687,6.5508,6.6015,6.6367,6.6797,6.6914,6.6914,6.6953,6.7261,6.7676,6.8189,6.8553,6.8978,6.9009,6.8699,6.8475,6.8501,6.8833,6.919,6.9525,6.9333,6.8898,6.8359,6.7628,6.7051,6.6577,6.6244,6.609,6.5897,6.5897,6.5897,6.5897,6.5897,6.5897,6.5897,6.5897,6.5897,6.5897,6.5897,6.5897,6.5897,6.5897,6.5897,6.5897,6.5897,6.5897,6.5897,6.5897,6.5897,6.5897,6.5897,6.5897,6.5897,6.5897,6.5897,6.5897,6.5551,6.5218,6.518,6.4987,6.4564,7.3014,7.308,7.3227,7.2982,7.2599,7.2677,7.2422,7.1988,7.2031,7.2031,7.1992,7.1992,7.1992,7.1953,7.1719,7.1328,7.0547,6.9023,6.8359,6.8125,6.7422,6.6914,6.6914,6.6836,6.664,6.625,6.6094,6.5547,6.4922,6.4883,6.4492,6.3672,6.293,6.2734,6.2539,6.207,6.1758,6.1719,6.1719,6.1719,6.1719,6.1719,6.1719,6.1719,6.1719,6.1719,6.1719,6.1719,6.1719,6.1953,6.25,6.3359,6.4258,6.5117,6.5664,6.5937,6.6523,6.6797,6.6914,6.6914,6.6914,6.6914,6.7695,6.8127,6.8717,6.9479,7.0166,6.9706,6.9463,6.9104,6.9425,6.9821,7.0179,7.0475,7.0244,6.9783,6.9283,6.8629,6.7885,6.7346,6.6705,6.632,6.6128,6.5897,6.5897,6.5897,6.5897,6.5897,6.5897,6.5897,6.5897,6.5897,6.5897,6.5897,6.5897,6.5897,6.5897,6.5897,6.5897,6.5897,6.5897,6.5897,6.5897,6.5897,6.5897,6.5897,6.5897,6.5897,6.5897,6.5897,6.5897,6.5782,6.559,6.5551,6.5359,7.1245,7.1321,7.1464,7.1572,7.1714,7.1855,7.1895,7.1914,7.1949,7.1992,7.1992,7.1992,7.1992,7.1836,7.1133,7.082,7.0156,6.8945,6.8047,6.789,6.7265,6.6914,6.6914,6.6914,6.6758,6.6406,6.6523,6.5312,6.414,6.3633,6.3008,6.2344,6.2187,6.1914,6.1992,6.1797,6.1719,6.1719,6.1719,6.1719,6.1719,6.1719,6.1719,6.1719,6.1719,6.1719,6.1719,6.1719,6.1719,6.1914,6.2578,6.3398,6.4258,6.5117,6.5976,6.6484,6.6875,6.6914,6.6914,6.7031,6.707,6.7226,6.789,6.8518,6.9405,7.0292,7.0738,6.9797,7.009,7.0194,7.004,7.036,7.0706,7.0821,7.0706,7.0244,6.9821,6.936,6.8655,6.827,6.7705,6.6936,6.6474,6.6128,6.5897,6.5897,6.5897,6.5897,6.5897,6.5897,6.5897,6.5897,6.5897,6.5897,6.5897,6.5897,6.5936,6.5936,6.5936,6.5897,6.5897,6.5897,6.5897,6.5897,6.5897,6.5897,6.5897,6.5897,6.5897,6.5897,6.5897,6.5897,6.5859,6.5897,6.5897,7.0937,7.0975,7.1014,7.1183,7.1376,7.1547,7.1675,7.1827,7.1953,7.1992,7.1992,7.1992,7.1992,7.1758,7.0664,7.0,6.9648,6.832,6.75,6.75,6.7109,6.6914,6.6914,6.6836,6.6758,6.6328,6.5976,6.5,6.3711,6.3359,6.3125,6.1836,6.1719,6.1758,6.1719,6.1719,6.1719,6.1719,6.1719,6.1719,6.1719,6.1719,6.1719,6.1719,6.1719,6.1719,6.1719,6.1719,6.1992,6.2422,6.3281,6.414,6.5,6.582,6.6562,6.6758,6.6875,6.6914,6.6953,6.7344,6.7539,6.7969,6.8733,6.994,7.0532,7.0961,7.1158,7.0502,7.0706,7.0667,7.0437,7.0667,7.0821,7.0898,7.0898,7.0744,7.0321,6.986,6.936,6.9052,6.8706,6.7975,6.7321,6.7013,6.6551,6.6013,6.5974,6.5897,6.5897,6.5897,6.5897,6.5897,6.5897,6.5897,6.5897,6.5897,6.6013,6.6013,6.6013,6.5974,6.5897,6.5897,6.609,6.6013,6.5936,6.5897,6.5897,6.5897,6.5897,6.5897,6.5897,6.5897,6.5897,6.5897,6.5897,7.0898,7.0898,7.0898,7.1056,7.1309,7.1436,7.1612,7.1817,7.1936,7.1992,7.1992,7.1992,7.1992,7.168,7.0586,6.9844,6.9375,6.789,6.7187,6.6992,6.6914,6.6914,6.6914,6.6836,6.6601,6.5898,6.6172,6.5117,6.414,6.3711,6.3359,6.1797,6.1719,6.1719,6.1719,6.1719,6.1719,6.1719,6.1719,6.1719,6.1719,6.1719,6.1719,6.1719,6.1719,6.1719,6.1719,6.1719,6.2109,6.293,6.375,6.457,6.543,6.625,6.6758,6.6914,6.6914,6.6914,6.7148,6.7578,6.8086,6.8711,6.9624,7.0645,7.1257,7.1436,7.1236,7.081,7.086,7.0898,7.0898,7.086,7.0898,7.0898,7.0898,7.0898,7.0821,7.036,7.009,6.9975,6.9629,6.9179,6.8564,6.8129,6.7398,6.6436,6.609,6.5936,6.5897,6.5897,6.5936,6.5974,6.6307,6.632,6.6397,6.632,6.632,6.632,6.6282,6.6474,6.6641,6.6667,6.6782,6.6551,6.6141,6.6013,6.6051,6.5974,6.5897,6.5897,6.5897,6.5897,6.5897,6.5897,6.5897,7.0898,7.0898,7.086,7.1041,7.1287,7.1436,7.1594,7.1797,7.1953,7.1992,7.1992,7.1992,7.1992,7.1719,7.0976,7.0078,6.9375,6.8515,6.7656,6.7109,6.6914,6.6914,6.6914,6.6875,6.6836,6.668,6.6445,6.5508,6.4492,6.3906,6.3164,6.1953,6.1719,6.1719,6.1719,6.1719,6.1719,6.1719,6.1719,6.1719,6.1719,6.1719,6.1719,6.1719,6.1719,6.1719,6.1719,6.1836,6.2383,6.3242,6.4062,6.4883,6.582,6.6484,6.6875,6.6914,6.6914,6.6953,6.7265,6.7851,6.8242,6.8711,6.9663,7.0998,7.1407,7.1435,7.1247,7.094,7.0898,7.0898,7.0898,7.0898,7.0898,7.0898,7.0898,7.0898,7.0898,7.086,7.0667,7.0744,7.0514,6.9986,6.9602,6.9052,6.7898,6.6923,6.6051,6.5897,6.5897,6.5897,6.5974,6.6128,6.6692,6.6923,6.7102,6.7102,6.7039,6.7116,6.7128,6.7487,6.7856,6.7806,6.7341,6.6934,6.6523,6.6346,6.6103,6.5897,6.5781,6.5833,6.5897,6.5897,6.5897,6.5897,6.5897,6.9667,7.0167,7.014,7.0591,7.1299,7.1436,7.1604,7.1797,7.1953,7.1992,7.1992,7.1992,7.1992,7.1758,7.1094,7.0273,6.9414,6.8594,6.7734,6.7148,6.6914,6.6914,6.6914,6.6914,6.6875,6.6758,6.6406,6.5586,6.4375,6.3867,6.289,6.2031,6.1719,6.1719,6.1719,6.1719,6.1719,6.1719,6.1719,6.1719,6.1719,6.1719,6.1719,6.1719,6.1719,6.2031,6.2383,6.25,6.332,6.4219,6.4844,6.5508,6.6133,6.6719,6.6875,6.6914,6.6953,6.7187,6.7734,6.8476,6.9336,7.0469,7.1108,7.1405,7.1491,7.1424,7.1247,7.1017,7.0898,7.0898,7.0898,7.0898,7.0898,7.0898,7.0898,7.0898,7.0898,7.0898,7.0898,7.086,7.086,7.0629,7.0256,6.991,6.8629,6.7346,6.6577,6.5936,6.6128,6.6205,6.6397,6.6705,6.7231,6.746,6.7664,6.7718,6.7731,6.7744,6.7806,6.7985,6.8143,6.8059,6.7653,6.7246,6.673,6.6298,6.5953,6.5723,6.5635,6.5755,6.5808,6.5897,6.5897,6.5859,6.5859,6.8783,6.9321,6.9602,7.0294,7.121,7.1415,7.1575,7.1788,7.1953,7.1992,7.1992,7.1992,7.1992,7.1797,7.1406,7.043,6.9609,6.8828,6.789,6.7265,6.6914,6.6914,6.6914,6.6914,6.6875,6.668,6.6015,6.5156,6.4297,6.3437,6.2578,6.1992,6.1719,6.1719,6.1719,6.1719,6.1719,6.1719,6.1719,6.1719,6.1719,6.1719,6.1719,6.1719,6.1719,6.2148,6.2656,6.2969,6.3828,6.4844,6.5625,6.6015,6.6562,6.6914,6.6914,6.6992,6.7226,6.7578,6.8242,6.9297,7.039,7.1445,7.1741,7.1704,7.1571,7.1429,7.1253,7.094,7.0898,7.0898,7.0898,7.0898,7.0898,7.0898,7.0898,7.0898,7.0898,7.0898,7.0898,7.0898,7.0898,7.086,7.0591,7.014,6.9206,6.809,6.759,6.709,6.7128,6.7167,6.7205,6.7513,6.7962,6.8087,6.8196,6.8206,6.81,6.7659,6.7722,6.7787,6.7876,6.7914,6.7645,6.7106,6.6597,6.6147,6.5612,6.513,6.5321,6.5674,6.5651,6.568,6.568,6.568,6.5756,6.8359,6.8552,6.9294,7.0179,7.1017,7.1358,7.1507,7.1714,7.1914,7.1992,7.1992,7.1992,7.1992,7.1992,7.1797,7.0976,6.9844,6.9336,6.8476,6.7383,6.6953,6.6914,6.6914,6.6914,6.6797,6.664,6.5859,6.4922,6.414,6.3203,6.2383,6.1953,6.1719,6.1719,6.1719,6.1719,6.1719,6.1719,6.1719,6.1719,6.1719,6.1719,6.1719,6.1719,6.1719,6.2148,6.3047,6.3242,6.418,6.5508,6.582,6.6211,6.6797,6.6875,6.6953,6.707,6.7734,6.8125,6.8398,6.9844,7.1015,7.1836,7.1936,7.176,7.1564,7.1436,7.1236,7.0952,7.0898,7.0898,7.0898,7.0898,7.0898,7.0898,7.0898,7.0898,7.0898,7.0898,7.0898,7.0898,7.0898,7.086,7.0629,7.0217,6.9525,6.8859,6.8513,6.8282,6.8052,6.7975,6.7898,6.8244,6.859,6.8541,6.8578,6.8616,6.8406,6.7877,6.7417,6.7237,6.7551,6.7878,6.7476,6.6896,6.6296,6.5762,6.5075,6.4427,6.4761,6.5057,6.5273,6.5294,6.5397,6.5394,6.5427,6.7051,6.7552,6.7859,6.8552,6.9513,7.0792,7.1377,7.1626,7.1836,7.1953,7.1992,7.1992,7.1992,7.1992,7.1914,7.1328,7.0351,6.9492,6.8633,6.7773,6.7187,6.6953,6.6914,6.6836,6.6601,6.5937,6.5156,6.4375,6.3398,6.2656,6.2148,6.1719,6.1719,6.1719,6.1719,6.1719,6.1719,6.1719,6.1719,6.1719,6.1719,6.1719,6.1719,6.1719,6.1719,6.2383,6.3633,6.375,6.4648,6.6055,6.6328,6.6562,6.6875,6.6914,6.7148,6.7539,6.8242,6.8789,6.9648,7.0937,7.1601,7.1914,7.1936,7.1789,7.1547,7.1417,7.1231,7.0992,7.0925,7.0898,7.0898,7.0898,7.0898,7.0898,7.0898,7.0898,7.0898,7.0898,7.0898,7.0898,7.0898,7.0898,7.0744,7.0629,7.0052,6.9602,6.9256,6.8783,6.8513,6.841,6.8371,6.8871,6.9124,6.8991,6.8846,6.8282,6.754,6.6786,6.6316,6.61,6.6642,6.7283,6.6816,6.5876,6.5624,6.5332,6.4544,6.3944,6.4125,6.4364,6.4693,6.4862,6.4813,6.4882,6.5014,6.6205,6.6705,6.7,6.7436,6.8218,6.9667,7.0628,7.1184,7.1636,7.1913,7.1992,7.1992,7.1992,7.1992,7.1914,7.125,7.0312,6.9687,6.8594,6.7851,6.7187,6.6953,6.6914,6.6836,6.6406,6.5586,6.4687,6.3867,6.3086,6.2148,6.1758,6.1719,6.1719,6.1719,6.1719,6.1719,6.1719,6.1719,6.1719,6.1719,6.1719,6.1719,6.1719,6.1719,6.1914,6.2461,6.375,6.457,6.5078,6.6367,6.6914,6.6914,6.6914,6.6992,6.7344,6.793,6.8945,6.9726,7.0937,7.1484,7.1914,7.1992,7.1953,7.1807,7.1591,7.1511,7.1274,7.1067,7.0952,7.0898,7.0898,7.0898,7.0937,7.0937,7.0975,7.0975,7.1052,7.1052,7.0975,7.0975,7.0898,7.0898,7.0898,7.0898,7.0629,7.0294,6.9986,6.9487,6.909,6.9102,6.9036,6.9355,6.9347,6.8985,6.8316,6.7354,6.6553,6.567,6.5328,6.5114,6.5372,6.5928,6.5371,6.4985,6.4819,6.4568,6.3882,6.3539,6.3696,6.3952,6.4262,6.4299,6.4212,6.4449,6.4668,6.5897,6.6013,6.6731,6.7039,6.7231,6.8205,6.9259,7.0369,7.1253,7.1669,7.1836,7.168,7.1601,7.1758,7.1797,7.0976,6.9765,6.9375,6.8437,6.75,6.707,6.6953,6.6914,6.6836,6.6211,6.5469,6.4648,6.375,6.293,6.2109,6.1719,6.1719,6.1719,6.1797,6.1875,6.1953,6.1953,6.1992,6.2226,6.2305,6.2344,6.2148,6.2226,6.2265,6.2383,6.3125,6.4062,6.4648,6.5469,6.6328,6.6914,6.6914,6.6914,6.6914,6.7461,6.8398,6.9765,7.0937,7.164,7.1953,7.1992,7.1992,7.1992,7.1884,7.1716,7.1552,7.1378,7.1178,7.1056,7.0964,7.0937,7.0937,7.0975,7.1052,7.1129,7.1168,7.1245,7.1245,7.1129,7.1052,7.0937,7.0898,7.0898,7.0898,7.0898,7.0744,7.0409,7.0244,6.9937,7.0206,7.0074,6.974,6.9544,6.8826,6.7916,6.6701,6.5689,6.483,6.4476,6.4278,6.4499,6.4609,6.434,6.4168,6.4094,6.3787,6.3346,6.3235,6.3284,6.3601,6.4105,6.4382,6.4462,6.4298,6.445,6.5897,6.5897,6.6128,6.6269,6.6384,6.7231,6.8188,6.9206,6.9653,6.9887,7.0019,7.0116,7.0351,7.0195,7.0156,6.9883,6.9414,6.8867,6.8398,6.7734,6.7109,6.6953,6.6875,6.6758,6.5976,6.5078,6.4258,6.3476,6.2344,6.1719,6.1719,6.1719,6.1719,6.1992,6.2344,6.2617,6.2656,6.2812,6.3164,6.3242,6.3359,6.332,6.332,6.332,6.332,6.4062,6.4765,6.5117,6.5898,6.6601,6.6875,6.6914,6.6914,6.6953,6.7422,6.9062,7.0508,7.1797,7.1953,7.1992,7.1992,7.1992,7.1992,7.1875,7.176,7.1626,7.1486,7.1313,7.1159,7.1079,7.0937,7.0937,7.1206,7.1486,7.1601,7.1717,7.1794,7.1745,7.1629,7.1245,7.1129,7.0898,7.0898,7.0898,7.0898,7.0898,7.0783,7.0591,7.0437,7.0591,7.0305,6.9855,6.9284,6.8444,6.7203,6.5966,6.4935,6.4039,6.38,6.3616,6.3676,6.3663,6.3443,6.3406,6.3429,6.3282,6.2965,6.2952,6.3149,6.37,6.4193,6.4448,6.4692,6.4659,6.4498,6.5897,6.5897,6.5897,6.5897,6.5974,6.6461,6.7064,6.7663,6.8509,6.9007,6.9163,6.9358,6.9414,6.9531,6.9492,6.9297,6.8906,6.8515,6.8008,6.7422,6.7148,6.6992,6.6875,6.6445,6.5547,6.4648,6.3789,6.3008,6.1992,6.1719,6.1719,6.1719,6.1719,6.2226,6.2812,6.332,6.375,6.3945,6.418,6.4297,6.4375,6.4375,6.4297,6.4375,6.4375,6.4883,6.5508,6.5625,6.6094,6.6758,6.6875,6.6914,6.7031,6.7226,6.789,6.9414,7.0508,7.1484,7.1875,7.1992,7.1992,7.1992,7.1992,7.1953,7.1858,7.176,7.1562,7.1339,7.127,7.1168,7.1014,7.0975,7.1525,7.2035,7.2227,7.2381,7.2371,7.236,7.2014,7.1618,7.1283,7.1014,7.0898,7.0898,7.0898,7.0898,7.0744,7.0475,7.0244,7.0129,6.9624,6.9011,6.8518,6.7865,6.6597,6.5598,6.4892,6.4138,6.3752,6.349,6.3174,6.3025,6.3062,6.2989,6.2915,6.2805,6.2805,6.2879,6.3062,6.381,6.4655,6.5228,6.5469,6.5359,6.5151,6.5897,6.5897,6.5897,6.5897,6.5897,6.5936,6.5974,6.6101,6.7733,6.8635,6.8747,6.8951,6.889,6.875,6.8789,6.8515,6.8203,6.789,6.7578,6.6914,6.6953,6.6836,6.6445,6.5976,6.5117,6.4258,6.3437,6.2734,6.1992,6.1719,6.1719,6.1719,6.1719,6.2226,6.3242,6.3828,6.4453,6.5312,6.5117,6.4922,6.4805,6.4609,6.4492,6.4648,6.4765,6.5,6.5547,6.5859,6.6055,6.6601,6.6914,6.6914,6.7148,6.7656,6.8555,6.9414,7.039,7.1211,7.1797,7.1992,7.1992,7.1992,7.1992,7.1992,7.1914,7.1875,7.1672,7.1465,7.1352,7.1133,7.0975,7.1014,7.1409,7.2063,7.2419,7.2832,7.314,7.2745,7.1937,7.1514,7.1129,7.0898,7.0898,7.0898,7.0898,7.0898,7.0821,7.0514,6.986,6.959,6.8971,6.8206,6.7765,6.7263,6.6407,6.5462,6.5045,6.4462,6.4022,6.3641,6.3468,6.3174,6.2805,6.2805,6.2805,6.2805,6.2842,6.3025,6.359,6.4535,6.5419,6.6124,6.6276,6.6186,6.5904,6.5897,6.5897,6.5897,6.5897,6.5897,6.5897,6.5897,6.5961,6.6391,6.6797,6.6845,6.7034,6.7274,6.7512,6.7614,6.7461,6.7383,6.7383,6.7109,6.6953,6.6914,6.664,6.6094,6.5781,6.4805,6.3711,6.2969,6.2617,6.2031,6.1797,6.1758,6.1758,6.1836,6.2461,6.3906,6.4414,6.5039,6.625,6.6211,6.5976,6.5976,6.6172,6.6289,6.6211,6.625,6.6133,6.6484,6.6562,6.668,6.6914,6.6914,6.6914,6.6914,6.7734,6.8555,6.9375,7.0195,7.0976,7.1719,7.1992,7.1992,7.1992,7.1992,7.1992,7.1953,7.1914,7.1763,7.1563,7.1359,7.1169,7.1052,7.1168,7.1437,7.2101,7.2678,7.3217,7.3745,7.2783,7.1794,7.136,7.0975,7.0898,7.0898,7.0898,7.0898,7.0898,7.0898,7.0475,6.9321,6.8744,6.8179,6.7522,6.7176,6.6605,6.5902,6.555,6.5213,6.4929,6.4558,6.4196,6.3891,6.3689,6.3505,6.3002,6.2805,6.3135,6.3429,6.3562,6.4251,6.5198,6.5874,6.6455,6.699,6.7046,6.6696,6.5897,6.5897,6.5897,6.5897,6.5897,6.5897,6.5897,6.5897,6.5947,6.5972,6.6044,6.6299,6.6477,6.6588,6.6738,6.6836,6.6875,6.6914,6.6953,6.6914,6.6836,6.664,6.6211,6.5742,6.4844,6.3828,6.3164,6.2695,6.2305,6.2344,6.2383,6.2617,6.2656,6.3047,6.4609,6.4961,6.5508,6.6797,6.6875,6.6914,6.6914,6.6914,6.6914,6.6914,6.6914,6.6914,6.6914,6.6914,6.6914,6.6914,6.6914,6.6914,6.6953,6.7305,6.8203,6.9101,6.9922,7.0664,7.1523,7.1953,7.1953,7.1992,7.1992,7.1992,7.1992,7.1914,7.1836,7.1638,7.1513,7.13,7.131,7.136,7.2129,7.286,7.2947,7.3283,7.2937,7.2052,7.1437,7.1129,7.0898,7.0898,7.0898,7.0898,7.086,7.0744,7.0783,7.009,6.8975,6.8052,6.7448,6.6922,6.6615,6.6384,6.5931,6.5685,6.5503,6.5244,6.5067,6.5161,6.5031,6.4641,6.4254,6.391,6.3796,6.409,6.4347,6.4369,6.4861,6.5823,6.6302,6.6691,6.7226,6.7687,6.7373,6.559,6.5705,6.5859,6.5897,6.5897,6.5897,6.5897,6.5897,6.5897,6.5897,6.5972,6.6245,6.6439,6.6567,6.6733,6.6823,6.6875,6.6875,6.6914,6.6914,6.6914,6.6562,6.625,6.5859,6.5,6.418,6.3398,6.3281,6.3164,6.3047,6.3164,6.3867,6.3945,6.3867,6.5117,6.5703,6.6015,6.668,6.6914,6.6914,6.6914,6.6914,6.6914,6.6914,6.6914,6.6914,6.6914,6.6914,6.6914,6.6914,6.6914,6.6914,6.6914,6.707,6.7851,6.875,6.914,7.0156,7.1211,7.164,7.1797,7.1953,7.199,7.1992,7.1992,7.1914,7.1797,7.1721,7.1591,7.1603,7.1582,7.1811,7.2619,7.3322,7.3322,7.2976,7.2168,7.1475,7.1168,7.0898,7.0898,7.0898,7.0898,7.0898,7.0821,7.0706,7.0167,6.936,6.8552,6.7821,6.7128,6.6602,6.6218,6.5987,6.5872,6.5795,6.5654,6.5717,6.5626,6.6031,6.6095,6.5605,6.5234,6.5138,6.511,6.4985,6.5081,6.5228,6.583,6.6323,6.6801,6.7116,6.7337,6.7687,6.7687,6.4218,6.491,6.559,6.5859,6.5859,6.5897,6.5897,6.5897,6.5897,6.5897,6.5933,6.6119,6.6303,6.6456,6.6634,6.6758,6.6875,6.6914,6.6914,6.6914,6.6914,6.6484,6.6055,6.582,6.5117,6.4414,6.3789,6.3555,6.3867,6.3515,6.3515,6.4375,6.3555,6.3945,6.5312,6.5781,6.6094,6.668,6.6914,6.6914,6.6914,6.6914,6.6914,6.6914,6.6914,6.6914,6.6914,6.6914,6.6914,6.6914,6.6914,6.6914,6.6914,6.6953,6.7578,6.8242,6.8633,6.957,7.0547,7.1055,7.1299,7.1945,7.1963,7.1914,7.1914,7.1875,7.1797,7.1721,7.169,7.1823,7.1915,7.2097,7.2685,7.336,7.364,7.2552,7.1552,7.1245,7.0975,7.0898,7.0898,7.0898,7.0898,7.0898,7.0898,7.0629,7.0079,6.9271,6.8475,6.7667,6.6744,6.6359,6.5897,6.5897,6.5897,6.5897,6.5833,6.5987,6.6304,6.6831,6.6899,6.6406,6.6118,6.6174,6.5851,6.5566,6.5735,6.6072,6.6271,6.6765,6.7226,6.754,6.765,6.7687,6.7687]},{"header":{"parameterUnit":"m.s-1","parameterCategory":1,"la1":31.0,"la2":29.5877,"lo1":-88.7671,"lo2":-86.6584,"dy":0.0162,"dx":0.0185,"nx":115,"ny":88,"refTime":"2026-05-02T12:00:00:Z","depth":0,"parameterNumber":3,"parameterNumberName":"V-component_of_WINDS"},"data":[0.0,0.0,0.0,0.0,0.0,0.0,0.0,0.0,0.0,0.0,0.0,0.0,0.0,0.0,0.0,0.0,0.0,0.0,0.0,0.0,0.0,0.0,0.0,0.0,0.0,0.0,0.0,0.0,0.0,0.0,0.0,0.0,0.0,0.0,0.0,0.0,0.0,0.0,0.0,0.0,0.0,0.0,0.0,0.0,0.0,0.0,0.0,0.0,0.0,0.0,0.0,0.0,0.0,0.0,0.0,0.0,0.0,0.0,0.0,0.0,0.0,0.0,0.0,0.0,0.0,0.0,0.0,0.0,0.0,0.0,0.0,0.0,0.0,0.0,0.0,0.0,0.0,0.0,0.0,0.0,0.0,0.0,0.0,0.0,0.0,0.0,0.0,0.0,0.0,0.0,0.0,0.0,0.0,0.0,0.0,0.0,0.0,0.0,0.0,0.0,0.0,0.0,0.0,0.0,0.0,0.0,0.0,0.0,0.0,0.0,0.0,0.0,0.0,0.0,0.0,0.0,0.0,0.0,0.0,0.0,0.0,0.0,0.0,0.0,0.0,0.0,0.0,0.0,0.0,0.0,0.0,0.0,0.0,0.0,0.0,0.0,0.0,0.0,0.0,0.0,0.0,0.0,0.0,0.0,0.0,0.0,0.0,0.0,0.0,0.0,0.0,0.0,0.0,0.0,0.0,0.0,0.0,0.0,0.0,0.0,0.0,0.0,0.0,0.0,0.0,0.0,0.0,0.0,0.0,0.0,0.0,0.0,0.0,0.0,0.0,0.0,0.0,0.0,0.0,0.0,0.0,0.0,0.0,0.0,0.0,0.0,0.0,0.0,0.0,0.0,0.0,0.0,0.0,0.0,0.0,0.0,0.0,0.0,0.0,0.0,0.0,0.0,0.0,0.0,0.0,0.0,0.0,0.0,0.0,0.0,0.0,0.0,0.0,0.0,0.0,0.0,0.0,0.0,0.0,0.0,0.0,0.0,0.0,0.0,0.0,0.0,0.0,0.0,0.0,0.0,0.0,0.0,0.0,0.0,0.0,0.0,0.0,0.0,0.0,0.0,0.0,0.0,0.0,0.0,0.0,0.0,0.0,0.0,0.0,0.0,0.0,0.0,0.0,0.0,0.0,0.0,0.0,0.0,0.0,0.0,0.0,0.0,0.0,0.0,0.0,0.0,0.0,0.0,0.0,0.0,0.0,0.0,0.0,0.0,0.0,0.0,0.0,0.0,0.0,0.0,0.0,0.0,0.0,0.0,0.0,0.0,0.0,0.0,0.0,0.0,0.0,0.0,0.0,0.0,0.0,0.0,0.0,0.0,0.0,0.0,0.0,0.0,0.0,0.0,0.0,0.0,0.0,0.0,0.0,0.0,0.0,0.0,0.0,0.0,0.0,0.0,0.0,0.0,0.0,0.0,0.0,0.0,0.0,0.0,0.0,0.0,0.0,0.0,0.0,0.0,0.0,0.0,0.0,0.0,0.0,0.0,0.0,0.0,0.0,0.0,0.0,0.0,0.0,0.0,0.0,0.0,0.0,0.0,0.0,0.0,0.0,0.0,0.0,0.0,0.0,0.0,0.0,0.0,0.0,0.0,0.0,0.0,0.0,0.0,0.0,0.0,0.0,0.0,0.0,0.0,0.0,0.0,0.0,0.0,0.0,0.0,0.0,0.0,0.0,0.0,0.0,0.0,0.0,0.0,0.0,0.0,0.0,0.0,0.0,0.0,0.0,0.0,0.0,0.0,0.0,0.0,0.0,0.0,0.0,0.0,0.0,0.0,0.0,0.0,0.0,0.0,0.0,0.0,0.0,0.0,0.0,0.0,0.0,0.0,0.0,0.0,0.0,0.0,0.0,0.0,0.0,0.0,0.0,0.0,0.0,0.0,0.0,0.0,0.0,0.0,0.0,0.0,0.0,0.0,0.0,0.0,0.0,0.0,0.0,0.0,0.0,0.0,0.0,0.0,0.0,0.0,0.0,0.0,0.0,0.0,0.0,0.0,0.0,0.0,0.0,0.0,0.0,0.0,0.0,0.0,0.0,0.0,0.0,0.0,0.0,0.0,0.0,0.0,0.0,0.0,0.0,0.0,0.0,0.0,0.0,0.0,0.0,0.0,0.0,0.0,0.0,0.0,0.0,0.0,0.0,0.0,0.0,0.0,0.0,0.0,0.0,0.0,0.0,0.0,0.0,0.0,0.0,0.0,0.0,0.0,0.0,0.0,0.0,0.0,0.0,0.0,0.0,0.0,0.0,0.0,0.0,0.0,0.0,0.0,0.0,0.0,0.0,0.0,0.0,0.0,0.0,0.0,0.0,0.0,0.0,0.0,0.0,0.0,0.0,0.0,0.0,0.0,0.0,0.0,0.0,0.0,0.0,0.0,0.0,0.0,0.0,0.0,0.0,0.0,0.0,0.0,0.0,0.0,0.0,0.0,0.0,0.0,0.0,0.0,0.0,0.0,0.0,0.0,0.0,0.0,0.0,0.0,0.0,0.0,0.0,0.0,0.0,0.0,0.0,0.0,0.0,0.0,0.0,0.0,0.0,0.0,0.0,0.0,0.0,0.0,0.0,0.0,0.0,0.0,0.0,0.0,0.0,0.0,0.0,0.0,0.0,0.0,0.0,0.0,0.0,0.0,0.0,0.0,0.0,0.0,0.0,0.0,0.0,0.0,0.0,0.0,0.0,0.0,0.0,0.0,0.0,0.0,0.0,0.0,0.0,0.0,0.0,0.0,0.0,0.0,0.0,0.0,0.0,0.0,0.0,0.0,0.0,0.0,0.0,0.0,0.0,0.0,0.0,0.0,0.0,0.0,0.0,0.0,0.0,0.0,0.0,0.0,0.0,0.0,0.0,0.0,0.0,0.0,0.0,0.0,0.0,0.0,0.0,0.0,0.0,0.0,0.0,0.0,0.0,0.0,0.0,0.0,0.0,0.0,0.0,0.0,0.0,0.0,0.0,0.0,0.0,0.0,0.0,0.0,0.0,0.0,0.0,0.0,0.0,0.0,0.0,0.0,0.0,0.0,0.0,0.0,0.0,0.0,0.0,0.0,0.0,0.0,0.0,0.0,0.0,0.0,0.0,0.0,0.0,0.0,0.0,0.0,0.0,0.0,0.0,0.0,0.0,0.0,0.0,0.0,0.0,0.0,0.0,0.0,0.0,0.0,0.0,0.0,0.0,0.0,0.0,0.0,0.0,0.0,0.0,0.0,0.0,0.0,0.0,0.0,0.0,0.0,0.0,0.0,0.0,0.0,0.0,0.0,0.0,0.0,0.0,0.0,0.0,0.0,0.0,0.0,0.0,0.0,0.0,0.0,0.0,0.0,0.0,0.0,0.0,0.0,0.0,0.0,0.0,0.0,0.0,0.0,0.0,0.0,0.0,0.0,0.0,0.0,0.0,0.0,0.0,0.0,0.0,0.0,0.0,0.0,0.0,0.0,0.0,0.0,0.0,0.0,0.0,0.0,0.0,0.0,0.0,0.0,0.0,0.0,0.0,0.0,0.0,0.0,0.0,0.0,0.0,0.0,0.0,0.0,0.0,0.0,0.0,0.0,0.0,0.0,0.0,0.0,0.0,0.0,0.0,0.0,0.0,0.0,0.0,0.0,0.0,0.0,0.0,0.0,0.0,0.0,0.0,0.0,0.0,0.0,0.0,0.0,0.0,0.0,0.0,0.0,0.0,0.0,0.0,0.0,0.0,0.0,0.0,0.0,0.0,0.0,0.0,0.0,0.0,0.0,0.0,0.0,0.0,0.0,0.0,0.0,0.0,0.0,0.0,0.0,0.0,0.0,0.0,0.0,0.0,0.0,0.0,0.0,0.0,0.0,0.0,0.0,0.0,0.0,0.0,0.0,0.0,0.0,0.0,0.0,0.0,0.0,0.0,0.0,0.0,0.0,0.0,0.0,0.0,0.0,0.0,0.0,0.0,0.0,0.0,0.0,0.0,0.0,0.0,0.0,0.0,0.0,0.0,0.0,0.0,0.0,0.0,0.0,0.0,0.0,0.0,0.0,0.0,0.0,0.0,0.0,0.0,0.0,0.0,0.0,0.0,0.0,0.0,0.0,0.0,0.0,0.0,0.0,0.0,0.0,0.0,0.0,0.0,0.0,0.0,0.0,0.0,0.0,0.0,0.0,0.0,0.0,0.0,0.0,0.0,0.0,0.0,0.0,0.0,0.0,0.0,0.0,0.0,0.0,0.0,0.0,0.0,0.0,0.0,0.0,0.0,0.0,0.0,0.0,0.0,0.0,0.0,0.0,0.0,0.0,0.0,0.0,0.0,0.0,0.0,0.0,0.0,0.0,0.0,0.0,0.0,0.0,0.0,0.0,0.0,0.0,0.0,0.0,0.0,0.0,0.0,0.0,0.0,0.0,0.0,0.0,0.0,0.0,0.0,0.0,0.0,0.0,0.0,0.0,0.0,0.0,0.0,0.0,0.0,0.0,0.0,0.0,0.0,0.0,0.0,0.0,0.0,0.0,0.0,0.0,0.0,0.0,0.0,0.0,0.0,0.0,0.0,0.0,0.0,0.0,0.0,0.0,0.0,0.0,0.0,0.0,0.0,0.0,0.0,0.0,0.0,0.0,0.0,0.0,0.0,0.0,0.0,0.0,0.0,0.0,0.0,0.0,0.0,0.0,0.0,0.0,0.0,0.0,0.0,0.0,0.0,0.0,0.0,0.0,0.0,0.0,0.0,0.0,0.0,0.0,0.0,0.0,0.0,0.0,0.0,0.0,0.0,0.0,0.0,0.0,0.0,0.0,0.0,0.0,0.0,0.0,0.0,0.0,0.0,0.0,0.0,0.0,0.0,0.0,0.0,0.0,0.0,0.0,0.0,0.0,0.0,0.0,0.0,0.0,0.0,0.0,0.0,0.0,0.0,0.0,0.0,0.0,0.0,0.0,0.0,0.0,0.0,0.0,0.0,0.0,0.0,0.0,0.0,0.0,0.0,0.0,0.0,0.0,0.0,0.0,0.0,0.0,0.0,0.0,0.0,0.0,0.0,0.0,0.0,0.0,0.0,0.0,0.0,0.0,0.0,0.0,0.0,0.0,0.0,0.0,0.0,0.0,0.0,0.0,0.0,0.0,0.0,0.0,0.0,0.0,0.0,0.0,0.0,0.0,0.0,0.0,0.0,0.0,0.0,0.0,0.0,0.0,0.0,0.0,0.0,0.0,0.0,0.0,0.0,0.0,0.0,0.0,0.0,0.0,0.0,0.0,0.0,0.0,0.0,0.0,0.0,0.0,0.0,0.0,0.0,0.0,0.0,0.0,0.0,0.0,0.0,0.0,0.0,0.0,0.0,0.0,0.0,0.0,0.0,0.0,0.0,0.0,0.0,0.0,0.0,0.0,0.0,0.0,0.0,0.0,0.0,0.0,0.0,0.0,0.0,0.0,0.0,0.0,0.0,0.0,0.0,0.0,0.0,0.0,0.0,0.0,0.0,0.0,0.0,0.0,0.0,0.0,0.0,0.0,0.0,0.0,0.0,0.0,0.0,0.0,0.0,0.0,0.0,0.0,0.0,0.0,0.0,0.0,0.0,0.0,0.0,0.0,0.0,0.0,0.0,0.0,0.0,0.0,0.0,0.0,0.0,0.0,0.0,0.0,0.0,0.0,0.0,0.0,0.0,0.0,0.0,0.0,0.0,0.0,0.0,0.0,0.0,0.0,0.0,0.0,0.0,0.0,0.0,0.0,0.0,0.0,0.0,0.0,0.0,0.0,0.0,0.0,0.0,0.0,0.0,0.0,0.0,0.0,0.0,0.0,0.0,0.0,0.0,0.0,0.0,0.0,0.0,0.0,0.0,0.0,0.0,0.0,0.0,0.0,0.0,0.0,0.0,0.0,0.0,0.0,0.0,0.0,0.0,0.0,0.0,0.0,0.0,0.0,0.0,0.0,0.0,0.0,0.0,0.0,0.0,0.0,0.0,0.0,0.0,0.0,0.0,0.0,0.0,0.0,0.0,0.0,0.0,0.0,0.0,0.0,0.0,0.0,0.0,0.0,0.0,0.0,0.0,0.0,0.0,0.0,0.0,0.0,0.0,0.0,0.0,0.0,0.0,0.0,0.0,0.0,0.0,0.0,0.0,0.0,0.0,0.0,0.0,0.0,0.0,0.0,0.0,0.0,0.0,0.0,0.0,0.0,0.0,0.0,0.0,0.0,0.0,0.0,0.0,0.0,0.0,0.0,0.0,0.0,0.0,0.0,0.0,0.0,0.0,0.0,0.0,0.0,0.0,0.0,0.0,0.0,0.0,0.0,0.0,0.0,0.0,0.0,0.0,0.0,0.0,0.0,0.0,0.0,0.0,0.0,0.0,0.0,0.0,0.0,0.0,0.0,0.0,0.0,0.0,0.0,0.0,0.0,0.0,0.0,0.0,0.0,0.0,0.0,0.0,0.0,0.0,0.0,0.0,0.0,0.0,0.0,0.0,0.0,0.0,0.0,0.0,0.0,0.0,0.0,0.0,0.0,0.0,0.0,0.0,0.0,0.0,0.0,0.0,0.0,0.0,0.0,0.0,0.0,0.0,0.0,0.0,0.0,0.0,0.0,0.0,0.0,0.0,0.0,0.0,0.0,0.0,0.0,0.0,0.0,0.0,0.0,0.0,0.0,0.0,0.0,0.0,0.0,0.0,0.0,0.0,0.0,0.0,0.0,0.0,0.0,0.0,0.0,0.0,0.0,0.0,0.0,0.0,0.0,0.0,0.0,0.0,0.0,0.0,0.0,0.0,0.0,0.0,0.0,0.0,0.0,0.0,0.0,0.0,0.0,0.0,0.0,0.0,0.0,0.0,0.0,0.0,0.0,0.0,0.0,0.0,0.0,0.0,0.0,0.0,0.0,0.0,0.0,0.0,0.0,0.0,0.0,0.0,0.0,0.0,0.0,0.0,0.0,0.0,0.0,0.0,0.0,0.0,0.0,0.0,0.0,0.0,0.0,0.0,0.0,0.0,0.0,0.0,0.0,0.0,0.0,0.0,0.0,0.0,0.0,0.0,0.0,0.0,0.0,0.0,0.0,0.0,0.0,0.0,0.0,0.0,0.0,0.0,0.0,0.0,0.0,0.0,0.0,0.0,0.0,0.0,0.0,0.0,0.0,0.0,0.0,0.0,0.0,0.0,0.0,0.0,0.0,0.0,0.0,0.0,0.0,0.0,0.0,0.0,0.0,0.0,0.0,0.0,0.0,0.0,0.0,0.0,0.0,0.0,0.0,0.0,0.0,0.0,0.0,0.0,0.0,0.0,0.0,0.0,0.0,0.0,0.0,0.0,0.0,0.0,0.0,0.0,0.0,0.0,0.0,0.0,0.0,0.0,0.0,0.0,0.0,0.0,0.0,0.0,0.0,0.0,0.0,0.0,0.0,0.0,0.0,0.0,0.0,0.0,0.0,0.0,0.0,0.0,0.0,0.0,0.0,0.0,0.0,0.0,0.0,0.0,0.0,0.0,0.0,0.0,0.0,0.0,0.0,0.0,0.0,0.0,0.0,0.0,0.0,0.0,0.0,0.0,0.0,0.0,0.0,0.0,0.0,0.0,0.0,0.0,0.0,0.0,0.0,0.0,0.0,0.0,0.0,0.0,0.0,0.0,0.0,0.0,0.0,0.0,0.0,0.0,0.0,0.0,0.0,0.0,0.0,0.0,0.0,0.0,0.0,0.0,0.0,0.0,0.0,0.0,0.0,0.0,0.0,0.0,0.0,0.0,0.0,0.0,0.0,0.0,0.0,0.0,0.0,0.0,0.0,0.0,0.0,0.0,0.0,0.0,0.0,0.0,0.0,0.0,0.0,0.0,0.0,0.0,0.0,0.0,0.0,0.0,0.0,0.0,0.0,0.0,0.0,0.0,0.0,0.0,0.0,0.0,0.0,0.0,0.0,0.0,0.0,0.0,0.0,0.0,0.0,0.0,0.0,0.0,0.0,0.0,0.0,0.0,0.0,0.0,0.0,0.0,0.0,0.0,0.0,0.0,0.0,0.0,0.0,0.0,0.0,0.0,0.0,0.0,0.0,0.0,0.0,0.0,0.0,0.0,0.0,0.0,0.0,0.0,0.0,0.0,0.0,0.0,0.0,0.0,0.0,0.0,0.0,0.0,0.0,0.0,0.0,0.0,0.0,0.0,0.0,0.0,0.0,0.0,0.0,0.0,0.0,0.0,0.0,0.0,0.0,0.0,0.0,0.0,0.0,0.0,0.0,0.0,0.0,0.0,0.0,0.0,0.0,0.0,0.0,0.0,0.0,0.0,0.0,0.0,0.0,0.0,0.0,0.0,0.0,0.0,0.0,0.0,0.0,0.0,0.0,0.0,0.0,0.0,0.0,0.0,0.0,0.0,0.0,0.0,0.0,0.0,0.0,0.0,0.0,0.0,0.0,0.0,0.0,0.0,0.0,0.0,0.0,0.0,0.0,0.0,0.0,0.0,0.0,0.0,0.0,0.0,0.0,0.0,0.0,0.0,0.0,0.0,0.0,0.0,0.0,0.0,0.0,0.0,0.0,0.0,0.0,0.0,0.0,0.0,0.0,0.0,0.0,0.0,0.0,0.0,0.0,0.0,0.0,0.0,0.0,0.0,0.0,0.0,0.0,0.0,0.0,0.0,0.0,0.0,0.0,0.0,0.0,0.0,0.0,0.0,0.0,0.0,0.0,0.0,0.0,0.0,0.0,0.0,0.0,0.0,0.0,0.0,0.0,0.0,0.0,0.0,0.0,0.0,0.0,0.0,0.0,0.0,0.0,0.0,0.0,0.0,0.0,0.0,0.0,0.0,0.0,0.0,0.0,0.0,0.0,0.0,0.0,0.0,0.0,0.0,0.0,0.0,0.0,0.0,0.0,0.0,0.0,0.0,0.0,0.0,0.0,0.0,0.0,0.0,0.0,0.0,0.0,0.0,0.0,0.0,0.0,0.0,0.0,0.0,0.0,0.0,0.0,0.0,0.0,0.0,0.0,0.0,0.0,0.0,0.0,0.0,0.0,0.0,0.0,0.0,0.0,0.0,0.0,0.0,0.0,0.0,0.0,0.0,0.0,0.0,0.0,0.0,0.0,0.0,0.0,0.0,0.0,0.0,0.0,0.0,0.0,0.0,0.0,0.0,0.0,0.0,0.0,0.0,0.0,0.0,0.0,0.0,0.0,0.0,0.0,0.0,0.0,0.0,0.0,0.0,0.0,0.0,0.0,0.0,0.0,0.0,0.0,0.0,0.0,0.0,0.0,0.0,0.0,0.0,0.0,0.0,0.0,0.0,0.0,0.0,0.0,0.0,0.0,0.0,0.0,0.0,0.0,0.0,0.0,0.0,0.0,0.0,0.0,0.0,0.0,0.0,0.0,0.0,0.0,0.0,0.0,0.0,0.0,0.0,0.0,0.0,0.0,0.0,0.0,0.0,0.0,0.0,0.0,0.0,0.0,0.0,0.0,0.0,0.0,0.0,0.0,0.0,0.0,0.0,0.0,0.0,0.0,0.0,0.0,0.0,0.0,0.0,0.0,0.0,0.0,0.0,0.0,0.0,0.0,0.0,0.0,0.0,0.0,0.0,0.0,0.0,0.0,0.0,0.0,0.0,0.0,0.0,0.0,0.0,0.0,0.0,0.0,0.0,0.0,0.0,0.0,0.0,0.0,0.0,0.0,0.0,0.0,0.0,0.0,0.0,0.0,0.0,0.0,0.0,0.0,0.0,0.0,0.0,0.0,0.0,0.0,0.0,0.0,0.0,0.0,0.0,0.0,0.0,0.0,0.0,0.0,0.0,0.0,0.0,0.0,0.0,0.0,0.0,0.0,0.0,0.0,0.0,0.0,0.0,0.0,0.0,0.0,0.0,0.0,0.0,0.0,0.0,0.0,0.0,0.0,0.0,0.0,0.0,0.0,0.0,0.0,0.0,0.0,0.0,0.0,0.0,0.0,0.0,0.0,0.0,0.0,0.0,0.0,0.0,0.0,0.0,0.0,0.0,0.0,0.0,0.0,0.0,0.0,0.0,0.0,0.0,0.0,0.0,0.0,0.0,0.0,0.0,0.0,0.0,0.0,0.0,0.0,0.0,0.0,0.0,0.0,0.0,0.0,0.0,0.0,0.0,0.0,0.0,0.0,0.0,0.0,0.0,0.0,0.0,0.0,0.0,0.0,0.0,0.0,0.0,0.0,0.0,0.0,0.0,0.0,0.0,0.0,0.0,0.0,0.0,0.0,0.0,0.0,0.0,0.0,0.0,0.0,0.0,0.0,0.0,0.0,0.0,0.0,0.0,0.0,0.0,0.0,0.0,0.0,0.0,0.0,0.0,0.0,0.0,0.0,0.0,0.0,0.0,0.0,0.0,0.0,0.0,0.0,0.0,0.0,0.0,0.0,0.0,0.0,0.0,0.0,0.0,0.0,0.0,0.0,0.0,0.0,0.0,0.0,0.0,0.0,0.0,0.0,0.0,0.0,0.0,0.0,0.0,0.0,0.0,0.0,0.0,0.0,0.0,0.0,0.0,0.0,0.0,0.0,0.0,0.0,0.0,0.0,0.0,0.0,0.0,0.0,0.0,0.0,0.0,0.0,0.0,0.0,0.0,0.0,0.0,0.0,0.0,0.0,0.0,0.0,0.0,0.0,0.0,0.0,0.0,0.0,0.0,0.0,0.0,0.0,0.0,0.0,0.0,0.0,0.0,0.0,0.0,0.0,0.0,0.0,0.0,0.0,0.0,0.0,0.0,0.0,0.0,0.0,0.0,0.0,0.0,0.0,0.0,0.0,0.0,0.0,0.0,0.0,0.0,0.0,0.0,0.0,0.0,0.0,0.0,0.0,0.0,0.0,0.0,0.0,0.0,0.0,0.0,0.0,0.0,0.0,0.0,0.0,0.0,0.0,0.0,0.0,0.0,0.0,0.0,0.0,0.0,0.0,0.0,0.0,0.0,0.0,0.0,0.0,0.0,0.0,0.0,0.0,0.0,0.0,0.0,0.0,0.0,0.0,0.0,0.0,0.0,0.0,0.0,0.0,0.0,0.0,0.0,0.0,0.0,0.0,0.0,0.0,0.0,0.0,0.0,0.0,0.0,0.0,0.0,0.0,0.0,0.0,0.0,0.0,0.0,0.0,0.0,0.0,0.0,0.0,0.0,0.0,0.0,0.0,0.0,0.0,0.0,0.0,0.0,0.0,0.0,0.0,0.0,0.0,0.0,0.0,0.0,0.0,0.0,0.0,0.0,0.0,0.0,0.0,0.0,0.0,0.0,0.0,0.0,0.0,0.0,0.0,0.0,0.0,0.0,0.0,0.0,0.0,0.0,0.0,0.0,0.0,0.0,0.0,0.0,0.0,0.0,0.0,0.0,0.0,0.0,0.0,0.0,0.0,0.0,0.0,0.0,0.0,0.0,0.0,0.0,0.0,0.0,0.0,0.0,0.0,0.0,0.0,0.0,0.0,0.0,0.0,0.0,0.0,0.0,0.0,0.0,0.0,0.0,0.0,0.0,0.0,0.0,0.0,0.0,0.0,0.0,0.0,0.0,0.0,0.0,0.0,0.0,0.0,0.0,0.0,0.0,0.0,0.0,0.0,0.0,0.0,0.0,0.0,0.0,0.0,0.0,0.0,0.0,0.0,0.0,0.0,0.0,0.0,0.0,0.0,0.0,0.0,0.0,0.0,0.0,0.0,0.0,0.0,0.0,0.0,0.0,0.0,0.0,0.0,0.0,0.0,0.0,0.0,0.0,0.0,0.0,0.0,0.0,0.0,0.0,0.0,0.0,0.0,0.0,0.0,0.0,0.0,0.0,0.0,0.0,0.0,0.0,0.0,0.0,0.0,0.0,0.0,0.0,0.0,0.0,0.0,0.0,0.0,0.0,0.0,0.0,0.0,0.0,0.0,0.0,0.0,0.0,0.0,0.0,0.0,0.0,0.0,0.0,0.0,0.0,0.0,0.0,0.0,0.0,0.0,0.0,0.0,0.0,0.0,0.0,0.0,0.0,0.0,0.0,0.0,0.0,0.0,0.0,0.0,0.0,0.0,0.0,0.0,0.0,0.0,0.0,0.0,0.0,0.0,0.0,0.0,0.0,0.0,0.0,0.0,0.0,0.0,0.0,0.0,0.0,0.0,0.0,0.0,0.0,0.0,0.0,0.0,0.0,0.0,0.0,0.0,0.0,0.0,0.0,0.0,0.0,0.0,0.0,0.0,0.0,0.0,0.0,0.0,0.0,0.0,0.0,0.0,0.0,0.0,0.0,0.0,0.0,0.0,0.0,0.0,0.0,0.0,0.0,0.0,0.0,0.0,0.0,0.0,0.0,0.0,0.0,0.0,0.0,0.0,0.0,0.0,0.0,0.0,0.0,0.0,0.0,0.0,0.0,0.0,0.0,0.0,0.0,0.0,0.0,0.0,0.0,0.0,0.0,0.0,0.0,0.0,0.0,0.0,0.0,0.0,0.0,0.0,0.0,0.0,0.0,0.0,0.0,0.0,0.0,0.0,0.0,0.0,0.0,0.0,0.0,0.0,0.0,0.0,0.0,0.0,0.0,0.0,0.0,0.0,0.0,0.0,0.0,0.0,0.0,0.0,0.0,0.0,0.0,0.0,0.0,0.0,0.0,0.0,0.0,0.0,0.0,0.0,0.0,0.0,0.0,0.0,-0.6342,0.0,0.0,0.0,0.0,0.0,0.0,0.0,0.0,0.0,0.0,0.0,0.0,0.0,0.0,0.0,0.0,0.0,0.0,0.0,0.0,0.0,0.0,0.0,0.0,0.0,0.0,0.0,0.0,0.0,0.0,0.0,0.0,0.0,0.0,0.0,0.0,0.0,0.0,0.0,0.0,0.0,0.0,0.0,0.0,0.0,0.0,0.0,0.0,0.0,0.0,0.0,0.0,0.0,0.0,0.0,0.0,0.0,0.0,0.0,0.0,0.0,0.0,0.0,0.0,0.0,0.0,0.0,0.0,0.0,0.0,0.0,0.0,0.0,0.0,0.0,0.0,0.0,0.0,0.0,0.0,0.0,0.0,0.0,0.0,0.0,0.0,0.0,0.0,0.0,0.0,0.0,0.0,0.0,0.0,0.0,0.0,0.0,0.0,0.0,0.0,0.0,0.0,0.0,0.0,0.0,0.0,0.0,0.0,0.0,0.0,0.0,0.0,0.0,0.0,0.0,0.0,0.0,0.0,0.0,0.0,0.0,0.0,0.0,0.0,0.0,0.0,0.0,0.0,0.0,0.0,0.0,0.0,0.0,0.0,0.0,0.0,0.0,0.0,0.0,0.0,0.0,0.0,0.0,0.0,0.0,0.0,0.0,0.0,0.0,0.0,0.0,0.0,0.0,0.0,0.0,0.0,0.0,0.0,0.0,0.0,0.0,0.0,0.0,0.0,0.0,0.0,0.0,0.0,0.0,0.0,0.0,0.0,0.0,0.0,0.0,0.0,0.0,0.0,0.0,0.0,0.0,0.0,0.0,0.0,0.0,0.0,0.0,0.0,0.0,0.0,0.0,0.0,0.0,0.0,0.0,0.0,0.0,0.0,0.0,0.0,0.0,0.0,0.0,0.0,0.0,0.0,0.0,0.0,0.0,0.0,0.0,0.0,0.0,0.0,0.0,0.0,0.0,0.0,0.0,0.0,-0.5114,-0.6079,0.0,0.0,0.0,0.0,0.0,0.0,0.0,0.0,-0.5352,0.0,0.0,0.0,0.0,0.0,0.0,0.0,0.0,0.0,0.0,0.0,0.0,0.0,0.0,0.0,0.0,0.0,0.0,0.0,0.0,0.0,0.0,0.0,0.0,0.0,0.0,0.0,0.0,0.0,0.0,0.0,0.0,0.0,0.0,0.0,0.0,0.0,0.0,0.0,0.0,0.0,0.0,0.0,0.0,0.0,0.0,0.0,0.0,0.0,0.0,0.0,0.0,0.0,0.0,0.0,0.0,0.0,0.0,0.0,0.0,0.0,0.0,0.0,0.0,0.0,0.0,0.0,0.0,0.0,0.0,0.0,0.0,0.0,0.0,0.0,0.0,0.0,0.0,0.0,0.0,0.0,0.0,0.0,0.0,0.0,0.0,0.0,0.0,0.0,0.0,0.0,0.0,0.0,0.0,0.0,0.0,0.0,0.0,0.0,0.0,0.0,0.0,0.0,0.0,0.0,-0.6893,-0.7242,0.0,0.0,0.0,0.0,0.0,0.0,0.0,0.0,-0.5318,0.0,0.0,0.0,0.0,0.0,0.0,0.0,0.0,0.0,0.0,0.0,0.0,0.0,0.0,0.0,0.0,0.0,0.0,0.0,0.0,0.0,0.0,0.0,0.0,0.0,0.0,0.0,0.0,0.0,0.0,0.0,0.0,0.0,0.0,0.0,0.0,0.0,0.0,0.0,0.0,0.0,0.0,0.0,0.0,0.0,0.0,0.0,0.0,0.0,0.0,0.0,0.0,0.0,0.0,0.0,0.0,0.0,0.0,0.0,0.0,0.0,0.0,0.0,0.0,0.0,0.0,0.0,0.0,0.0,0.0,0.0,0.0,0.0,0.0,0.0,0.0,0.0,0.0,0.0,0.0,0.0,0.0,0.0,0.0,0.0,0.0,0.0,0.0,0.0,0.0,0.0,0.0,0.0,0.0,0.0,0.0,0.0,0.0,0.0,0.0,0.0,0.0,0.0,0.0,-0.7484,-0.7816,-0.7025,0.0,0.0,0.0,0.0,0.0,0.0,-0.5956,-0.5526,0.0,0.0,0.0,0.0,0.0,0.0,0.0,0.0,0.0,0.0,0.0,0.0,0.0,0.0,0.0,0.0,0.0,0.0,0.0,0.0,0.0,0.0,0.0,0.0,0.0,0.0,0.0,0.0,0.0,0.0,0.0,0.0,0.0,0.0,0.0,0.0,0.0,0.0,0.0,0.0,0.0,0.0,0.0,0.0,0.0,0.0,0.0,0.0,0.0,0.0,0.0,0.0,0.0,0.0,0.0,0.0,0.0,0.0,0.0,0.0,0.0,0.0,0.0,0.0,0.0,0.0,0.0,0.0,0.0,0.0,0.0,0.0,0.0,0.0,0.0,0.0,0.0,0.0,0.0,0.0,0.0,0.0,0.0,0.0,0.0,0.0,0.0,0.0,0.0,0.0,0.0,0.0,0.0,0.0,0.0,0.0,0.0,0.0,0.0,0.0,0.0,0.0,0.0,0.0,0.0,-0.829,-0.7327,-0.7156,0.0,0.0,0.0,0.0,-0.6444,-0.6277,0.0,0.0,0.0,0.0,0.0,0.0,0.0,0.0,0.0,0.0,0.0,0.0,0.0,0.0,0.0,0.0,0.0,0.0,0.0,0.0,0.0,0.0,0.0,0.0,0.0,0.0,0.0,0.0,0.0,0.0,0.0,0.0,0.0,0.0,0.0,0.0,0.0,0.0,0.0,0.0,0.0,0.0,0.0,0.0,0.0,0.0,0.0,0.0,0.0,0.0,0.0,0.0,0.0,0.0,0.0,0.0,0.0,0.0,0.0,0.0,0.0,0.0,0.0,0.0,0.0,0.0,0.0,0.0,0.0,0.0,0.0,0.0,0.0,0.0,0.0,0.0,0.0,0.0,0.0,0.0,0.0,0.0,0.0,0.0,0.0,0.0,0.0,0.0,0.0,0.0,0.0,0.0,0.0,0.0,0.0,0.0,0.0,0.0,0.0,0.0,0.0,0.0,0.0,0.0,0.0,0.0,-0.857,-0.7664,-0.7638,-0.7611,0.0,0.0,-0.6459,-0.6886,-0.6953,0.0,0.0,0.0,0.0,0.0,0.0,0.0,0.0,0.0,0.0,0.0,0.0,0.0,0.0,0.0,0.0,0.0,0.0,0.0,0.0,0.0,0.0,0.0,0.0,0.0,0.0,0.0,0.0,0.0,0.0,0.0,0.0,0.0,0.0,0.0,0.0,0.0,0.0,0.0,0.0,0.0,0.0,0.0,0.0,0.0,0.0,0.0,0.0,0.0,0.0,0.0,0.0,0.0,0.0,0.0,0.0,0.0,0.0,0.0,0.0,0.0,0.0,0.0,0.0,0.0,0.0,0.0,0.0,0.0,0.0,0.0,0.0,0.0,0.0,0.0,0.0,0.0,0.0,0.0,0.0,0.0,0.0,0.0,0.0,0.0,0.0,0.0,0.0,0.0,0.0,0.0,0.0,0.0,0.0,0.0,0.0,0.0,0.0,0.0,0.0,0.0,0.0,0.0,0.0,0.0,0.0,0.0,-0.8062,-0.8031,0.0,0.0,0.0,-0.6737,-0.7482,0.0,0.0,0.0,0.0,0.0,0.0,0.0,0.0,0.0,0.0,0.0,0.0,0.0,0.0,0.0,0.0,0.0,0.0,0.0,0.0,0.0,0.0,0.0,0.0,0.0,0.0,0.0,0.0,0.0,0.0,0.0,0.0,0.0,0.0,0.0,0.0,0.0,0.0,0.0,0.0,0.0,0.0,0.0,0.0,0.0,0.0,0.0,0.0,0.0,0.0,0.0,0.0,0.0,0.0,0.0,0.0,0.0,0.0,0.0,0.0,0.0,0.0,0.0,0.0,0.0,0.0,0.0,0.0,0.0,0.0,0.0,0.0,0.0,0.0,0.0,0.0,0.0,0.0,0.0,0.0,0.0,0.0,0.0,0.0,0.0,0.0,0.0,0.0,0.0,0.0,0.0,0.0,-0.0806,0.0,0.0,0.0,0.0,0.0,0.0,0.0,0.0,0.0,0.0,0.0,0.0,0.0,0.0,-0.8795,-0.8596,-0.8495,-0.8438,0.0,0.0,-0.7246,-0.8024,-0.809,-0.7811,0.0,0.0,0.0,0.0,0.0,0.0,0.0,0.0,0.0,0.0,0.0,0.0,0.0,0.0,0.0,0.0,0.0,0.0,0.0,0.0,0.0,0.0,0.0,0.0,0.0,0.0,0.0,0.0,0.0,0.0,0.0,0.0,0.0,0.0,0.0,0.0,0.0,0.0,0.0,0.0,0.0,0.0,0.0,0.0,0.0,0.0,0.0,0.0,0.0,0.0,0.0,0.0,0.0,0.0,0.0,0.0,0.0,0.0,0.0,0.0,0.0,0.0,0.0,0.0,0.0,0.0,0.0,0.0,0.0,0.0,0.0,0.0,0.0,0.0,0.0,0.0,0.0,0.0,0.0,0.0,0.0,0.0,0.0,0.0,0.0,0.0,0.0,0.0,0.0,0.0,0.0,0.0,0.0,0.0,0.0,0.0,0.0,0.0,0.0,0.0,0.0,0.0,0.0,0.0,0.0,-0.8967,-0.9078,-0.8939,-0.8893,0.0,0.0,-0.8078,-0.8595,-0.834,-0.8001,-0.7977,0.0,0.0,0.0,0.0,0.0,0.0,0.0,0.0,0.0,0.0,0.0,0.0,0.0,0.0,0.0,0.0,0.0,0.0,0.0,0.0,0.0,0.0,0.0,0.0,0.0,0.0,0.0,0.0,0.0,0.0,0.0,0.0,0.0,0.0,0.0,0.0,0.0,0.0,0.0,0.0,0.0,0.0,0.0,0.0,0.0,0.0,0.0,0.0,0.0,0.0,0.0,0.0,0.0,0.0,0.0,0.0,0.0,0.0,0.0,0.0,0.0,0.0,0.0,0.0,0.0,0.0,0.0,0.0,0.0,0.0,0.0,0.0,0.0,0.0,0.0,0.0,0.0,0.0,0.0,0.0,0.0,0.0,0.0,0.0,0.0,0.0,0.0,0.0,0.0,0.0,0.0,-0.3442,-0.3941,-0.3845,0.0,0.0,0.0,0.0,0.0,0.0,0.0,0.0,0.0,0.0,-0.8947,-0.914,-0.9252,0.0,0.0,-0.8858,-0.859,-0.8796,-0.8401,-0.8024,-0.8027,-0.768,0.0,0.0,0.0,0.0,0.0,0.0,0.0,0.0,0.0,0.0,0.0,0.0,0.0,0.0,0.0,0.0,0.0,0.0,0.0,0.0,0.0,0.0,0.0,0.0,0.0,0.0,0.0,0.0,0.0,0.0,0.0,0.0,0.0,0.0,0.0,0.0,0.0,0.0,0.0,0.0,0.0,0.0,0.0,0.0,0.0,0.0,0.0,0.0,0.0,0.0,0.0,0.0,0.0,0.0,0.0,0.0,0.0,0.0,0.0,0.0,0.0,0.0,0.0,0.0,0.0,0.0,0.0,0.0,0.0,0.0,0.0,0.0,0.0,0.0,0.0,0.0,0.0,0.0,0.0,0.0,0.0,0.0,0.0,0.0,0.0,0.0,0.0,0.0,0.0,0.0,-0.2998,-0.3624,-0.3591,0.0,0.0,0.0,0.0,0.0,0.0,0.0,0.0,0.0,0.0,-0.8495,-0.8823,-0.88,-0.8877,-0.9032,-0.9123,-0.9058,-0.8904,-0.8276,-0.7861,-0.8021,0.0,0.0,0.0,0.0,0.0,0.0,0.0,0.0,0.0,0.0,0.0,0.0,0.0,0.0,0.0,0.0,0.0,0.0,0.0,0.0,0.0,0.0,0.0,0.0,0.0,0.0,0.0,0.0,0.0,0.0,0.0,0.0,0.0,0.0,0.0,0.0,0.0,0.0,0.0,0.0,0.0,0.0,0.0,0.0,0.0,0.0,0.0,0.0,0.0,0.0,0.0,0.0,0.0,0.0,0.0,0.0,0.0,0.0,0.0,0.0,0.0,0.0,0.0,0.0,0.0,0.0,0.0,0.0,0.0,0.0,0.0,0.0,0.0,0.0,0.0,0.0,0.0,0.0,0.0,0.0,0.0,0.0,0.0,0.0,0.0,0.0,0.0,0.0,0.0,0.0,-0.1109,-0.2576,-0.3533,0.0,0.0,0.0,0.0,0.0,0.0,0.0,0.0,0.0,0.0,-0.7229,-0.7582,-0.7862,-0.7774,-0.7845,-0.8326,-0.897,-0.9245,-0.8942,-0.8202,-0.7736,0.0,0.0,0.0,0.0,0.0,0.0,0.0,0.0,0.0,0.0,0.0,0.0,0.0,0.0,0.0,0.0,0.0,0.0,0.0,0.0,0.0,0.0,0.0,0.0,0.0,0.0,0.0,0.0,0.0,0.0,0.0,0.0,0.0,0.0,0.0,0.0,0.0,0.0,0.0,0.0,-0.2021,-0.1011,0.0,0.0,0.0,0.0,0.0,0.0,0.0,0.0,0.0,0.0,0.0,0.0,0.0,0.0,0.0,0.0,0.0,0.0,0.0,0.0,0.0,0.0,0.0,0.0,0.0,0.0,0.0,0.0,0.0,0.0,0.0,0.0,0.0,0.0,0.0,0.0,0.0,0.0,0.0,0.0,0.0,0.0,0.0,0.0,0.0,0.0,0.0,0.0,-0.0381,0.0,0.0,0.0,0.0,0.0,0.0,0.0,0.0,0.0,0.0,0.0,-0.5112,-0.5519,-0.5874,-0.6251,-0.6489,-0.7308,-0.7712,0.0,0.0,0.0,0.0,0.0,0.0,0.0,0.0,0.0,0.0,0.0,0.0,0.0,0.0,-0.755,-0.721,-0.6946,-0.6632,-0.6159,0.0,0.0,0.0,0.0,0.0,0.0,0.0,0.0,0.0,0.0,0.0,0.0,0.0,0.0,0.0,0.0,0.0,0.0,0.0,0.0,0.0,0.0,0.0,0.0,0.0,-0.1955,-0.2119,-0.0892,-0.0224,0.0,0.0,0.0,0.0,0.0,0.0,0.0,0.0,0.0,0.0,0.0,0.0,0.0,0.0,0.0,0.0,0.0,0.0,0.0,0.0,0.0,0.0,0.0,0.0,0.0,0.0,0.0,0.0,0.0,0.0,0.0,0.0,0.0,0.0,0.0,0.0,0.0,0.0,0.0,0.0,0.0,0.0,0.0,0.0,0.0,0.0,0.0,0.0,0.0,0.0,0.0,0.0,0.0,0.0,0.0,0.0,0.0,0.0,-0.2414,-0.3479,-0.3975,-0.3178,-0.3395,-0.3561,-0.3774,0.0,0.0,0.0,0.0,0.0,0.0,0.0,-0.8432,-0.804,-0.7833,-0.8059,-0.8999,-0.8834,-0.852,-0.8567,0.0,0.0,-0.8004,-0.7706,-0.7396,-0.7158,-0.6629,-0.6496,-0.7272,-0.7872,-0.832,0.0,0.0,0.0,0.0,0.0,0.0,0.0,0.0,0.0,0.0,0.0,0.0,0.0,0.0,0.0,0.0,0.0,0.0,0.0,0.0,0.0,0.0,0.0,0.0,0.0,0.0,0.0,0.0,0.0,0.0,0.0,0.0,0.0,0.0,0.0,0.0,0.0,0.0,0.0,0.0,0.0,0.0,0.0,0.0,0.0,0.0,0.0,0.0,0.0,0.0,0.0,0.0,0.0,0.0,0.0,0.0,0.0,0.0,0.0,0.0,0.0,0.0,0.0,0.0,0.0,0.0,0.0,0.0,0.0,0.0,0.0,0.0,0.0,0.0,0.0,0.0,0.0,0.0,0.0,0.0,0.0,0.0,-0.018,-0.2125,-0.2787,-0.0325,0.0,0.0,0.0,0.0,-0.3024,-0.3399,-0.4836,-0.6223,-0.7536,-0.8395,-0.8824,-0.8584,0.0,0.0,-0.9596,-0.93,-0.9022,-0.9137,-0.9157,-0.9028,-0.8594,-0.8391,-0.8235,-0.8079,-0.7529,-0.7382,-0.7905,-0.8561,-0.901,0.0,0.0,0.0,0.0,0.0,0.0,0.0,0.0,0.0,0.0,0.0,0.0,0.0,0.0,0.0,0.0,0.0,0.0,0.0,0.0,0.0,0.0,0.0,0.0,0.0,0.0,0.0,0.0,0.0,0.0,0.0,0.0,0.0,0.0,0.0,0.0,0.0,0.0,0.0,0.0,0.0,0.0,0.0,0.0,0.0,0.0,0.0,0.0,0.0,0.0,0.0,0.0,0.0,0.0,0.0,0.0,0.0,0.0,0.0,0.0,0.0,0.0,0.0,0.0,0.0,0.0,0.0,0.0,0.0,0.0,0.0,0.0,0.0,0.0,0.0,0.0,0.0,0.0,0.0,0.0,0.0,0.0,-0.0,-0.0634,-0.0869,0.0,0.0,0.0,0.0,-0.0499,-0.1266,-0.243,0.0,0.0,0.0,-0.869,-0.9632,-0.8891,-0.94,-0.9947,-0.9781,-0.9754,-0.968,-0.9517,-0.9483,-0.9395,-0.9178,-0.9001,-0.8927,-0.8707,-0.8314,-0.836,-0.9118,-0.9421,-0.9529,0.0,0.0,0.0,0.0,0.0,0.0,0.0,0.0,0.0,0.0,0.0,0.0,0.0,0.0,0.0,0.0,0.0,0.0,0.0,0.0,0.0,0.0,0.0,0.0,0.0,0.0,0.0,0.0,0.0,0.0,0.0,0.0,0.0,0.0,0.0,0.0,0.0,0.0,0.0,0.0,0.0,0.0,0.0,0.0,0.0,0.0,0.0,0.0,0.0,0.0,0.0,0.0,0.0,0.0,0.0,0.0,0.0,0.0,0.0,0.0,0.0,0.0,0.0,0.0,0.0,0.0,0.0,0.0,0.0,0.0,0.0,0.0,0.0,0.0,0.0,0.0,0.0,0.0,0.0,0.0,0.0,0.0,0.0,0.0,0.0,0.0,0.0,0.0,0.0,0.0,-0.0515,-0.1949,-0.3388,-0.4936,-0.6796,-0.8973,-1.0129,-0.9366,-1.0073,-1.0552,-1.0215,-1.0134,-0.9992,-0.9829,-0.9734,-0.9646,-0.9496,-0.9435,-0.9327,-0.9161,-0.8984,-0.9051,-0.9666,-0.9838,-0.9778,0.0,0.0,0.0,0.0,0.0,0.0,0.0,0.0,0.0,0.0,0.0,0.0,0.0,0.0,0.0,0.0,0.0,0.0,0.0,0.0,0.0,0.0,0.0,0.0,0.0,0.0,0.0,0.0,0.0,0.0,0.0,0.0,0.0,0.0,0.0,0.0,0.0,0.0,0.0,0.0,0.0,0.0,0.0,0.0,0.0,0.0,0.0,0.0,0.0,0.0,0.0,0.0,0.0,0.0,0.0,0.0,0.0,0.0,0.0,0.0,0.0,0.0,0.0,0.0,0.0,0.0,0.0,0.0,0.0,0.0,0.0,0.0,0.0,0.0,0.0,0.0,0.0,0.0,0.0,0.0,0.0,0.0,0.0,0.0,0.0,0.0,0.0,0.0,0.0,0.0,-0.0527,-0.198,-0.3459,-0.5066,-0.6972,-0.9233,-1.0445,-1.0048,-1.0317,-1.0628,-1.0704,-1.0283,-1.0107,-1.0059,-0.9951,-0.9815,-0.9546,-0.9747,-0.9754,-0.9462,-0.9399,-0.9493,-0.9724,-0.9813,-0.9781,0.0,0.0,0.0,0.0,0.0,0.0,0.0,0.0,0.0,0.0,0.0,0.0,0.0,0.0,0.0,0.0,0.0,0.0,0.0,0.0,0.0,0.0,0.0,0.0,0.0,0.0,0.0,0.0,0.0,0.0,0.0,0.0,0.0,0.0,0.0,0.0,0.0,0.0,0.0,0.0,0.0,0.0,0.0,0.0,0.0,0.0,0.0,0.0,0.0,0.0,0.0,0.0,0.0,0.0,0.0,0.0,0.0,0.0,0.0,0.0,0.0,0.0,0.0,0.0,0.0,0.0,0.0,0.0,0.0,0.0,0.0,0.0,0.0,0.0,0.0,0.0,0.0,0.0,0.0,0.0,0.0,0.0,0.0,0.0,0.0,0.0,0.0,0.0,0.0,0.0,-0.0529,-0.2004,-0.3348,-0.5085,-0.7208,-0.9318,-1.0609,-1.0484,-1.0609,-1.0726,-1.0774,-1.0568,-1.0351,-1.0249,-1.0202,-1.0114,-0.9971,-0.9978,-0.993,-0.9761,-0.9747,-0.9768,-0.9774,-0.9802,-0.9856,0.0,0.0,0.0,0.0,0.0,0.0,0.0,0.0,0.0,0.0,0.0,0.0,0.0,0.0,0.0,0.0,0.0,0.0,0.0,0.0,0.0,0.0,0.0,0.0,0.0,0.0,0.0,0.0,0.0,0.0,0.0,0.0,0.0,0.0,0.0,0.0,0.0,0.0,0.0,0.0,0.0,0.0,0.0,0.0,0.0,0.0,0.0,0.0,0.0,0.0,0.0,0.0,0.0,0.0,0.0,0.0,0.0,0.0,0.0,0.0,0.0,0.0,0.0,0.0,0.0,0.0,0.0,0.0,0.0,0.0,0.0,0.0,0.0,0.0,0.0,0.0,0.0,0.0,0.0,0.0,0.0,0.0,0.0,0.0,0.0,0.0,0.0,0.0,0.0,-0.0532,-0.1334,-0.2151,-0.3356,-0.5492,-0.8446,-0.9915,-1.0717,-1.0717,-1.0717,-1.069,-1.074,-1.0534,-1.0466,-1.0385,-1.0324,-1.0256,-1.0175,-1.0154,-1.012,-1.0184,-1.0025,-0.9868,-0.9814,-0.9978,-1.0059,0.0,0.0,0.0,0.0,0.0,0.0,0.0,0.0,0.0,0.0,0.0,0.0,0.0,0.0,0.0,0.0,0.0,0.0,0.0,0.0,0.0,0.0,0.0,0.0,0.0,0.0,0.0,0.0,0.0,0.0,0.0,0.0,0.0,0.0,0.0,0.0,0.0,0.0,0.0,0.0,0.0,0.0,0.0,0.0,0.0,0.0,0.0,0.0,0.0,0.0,0.0,0.0,0.0,0.0,0.0,0.0,0.0,0.0,0.0,0.0,0.0,0.0,0.0,0.0,0.0,0.0,0.0,0.0,0.0,0.0,0.0,0.0,0.0,0.0,0.0,0.0,0.0,0.0,0.0,0.0,0.0,0.0,0.0,0.0,0.0,0.0,0.0,0.0,0.0,-0.1213,-0.2153,-0.2155,-0.349,-0.616,-0.951,-1.0585,-1.0717,-1.0717,-1.0717,-1.0717,-1.0711,-1.0616,-1.0521,-1.0514,-1.0432,-1.0344,-1.0317,-1.031,-1.0431,-1.0658,-1.027,-0.9856,-1.0002,-1.0168,-1.0283,0.0,0.0,0.0,0.0,0.0,0.0,0.0,0.0,0.0,0.0,0.0,0.0,0.0,0.0,0.0,0.0,0.0,0.0,0.0,0.0,0.0,0.0,0.0,0.0,0.0,0.0,0.0,0.0,0.0,0.0,0.0,0.0,0.0,0.0,0.0,0.0,0.0,0.0,0.0,0.0,0.0,0.0,0.0,0.0,0.0,0.0,0.0,0.0,0.0,0.0,0.0,0.0,0.0,0.0,0.0,0.0,0.0,0.0,0.0,0.0,0.0,0.0,0.0,0.0,0.0,0.0,0.0,0.0,0.0,0.0,0.0,0.0,0.0,0.0,0.0,0.0,0.0,0.0,0.0,0.0,0.0,0.0,0.0,0.0,0.0,0.0,0.0,0.0,0.0,-0.1221,-0.2155,-0.2423,-0.4568,-0.7102,-1.018,-1.0717,-1.0717,-1.0717,-1.0717,-1.0717,-1.0717,-1.0704,-1.0677,-1.067,-1.0649,-1.0588,-1.061,-1.0582,-1.0548,-1.07,-1.0378,-1.0277,-1.0531,-1.0524,-1.0579,0.0,0.0,0.0,0.0,0.0,0.0,0.0,0.0,0.0,0.0,0.0,0.0,0.0,0.0,0.0,0.0,0.0,0.0,0.0,0.0,0.0,0.0,0.0,0.0,0.0,0.0,0.0,0.0,0.0,0.0,0.0,0.0,0.0,0.0,0.0,0.0,0.0,0.0,0.0,0.0,0.0,0.0,0.0,0.0,0.0,0.0,0.0,0.0,0.0,0.0,0.0,0.0,0.0,0.0,0.0,0.0,0.0,0.0,0.0,0.0,0.0,0.0,0.0,0.0,0.0,0.0,0.0,0.0,0.0,0.0,0.0,0.0,0.0,0.0,0.0,0.0,0.0,0.0,0.0,0.0,0.0,0.0,0.0,0.0,0.0,0.0,0.0,0.0,0.0,-0.1235,-0.2993,-0.5712,-0.6107,-0.7425,-1.0066,-1.0717,-1.0724,-1.0717,-1.0717,-1.0717,-1.0717,-1.0717,-1.0717,-1.0717,-1.0717,-1.069,-1.0629,-1.0609,-1.0582,-1.0658,-1.0555,-1.0582,-1.0644,-1.076,-1.0651,0.0,0.0,0.0,0.0,0.0,0.0,0.0,0.0,0.0,0.0,0.0,0.0,0.0,0.0,0.0,0.0,0.0,0.0,0.0,0.0,0.0,0.0,0.0,0.0,0.0,0.0,0.0,0.0,0.0,0.0,0.0,0.0,0.0,0.0,0.0,0.0,0.0,0.0,0.0,0.0,0.0,0.0,0.0,0.0,0.0,0.0,0.0,0.0,0.0,0.0,0.0,0.0,0.0,0.0,0.0,0.0,0.0,0.0,0.0,0.0,0.0,0.0,0.0,0.0,0.0,0.0,0.0,0.0,0.0,0.0,0.0,0.0,0.0,0.0,0.0,0.0,0.0,0.0,0.0,0.0,0.0,0.0,0.0,0.0,0.0,0.0,0.0,0.0,0.0,-0.1252,-0.4274,-0.9114,-0.8402,-0.766,-1.0028,-1.0678,-1.0785,-1.0778,-1.0765,-1.0751,-1.0724,-1.0717,-1.0717,-1.0717,-1.0717,-1.0717,-1.0717,-1.0711,-1.0717,-1.0717,-1.0717,-1.0717,-1.0717,-1.0717,-1.0711,0.0,0.0,0.0,0.0,0.0,0.0,0.0,0.0,0.0,0.0,0.0,0.0,0.0,0.0,0.0,0.0,0.0,0.0,0.0,0.0,0.0,0.0,0.0,0.0,0.0,0.0,0.0,0.0,0.0,0.0,0.0,0.0,0.0,0.0,0.0,0.0,0.0,0.0,0.0,0.0,0.0,0.0,0.0,0.0,0.0,0.0,0.0,0.0,0.0,0.0,0.0,0.0,0.0,0.0,0.0,0.0,0.0,0.0,0.0,0.0,0.0,0.0,0.0,0.0,0.0,0.0,0.0,0.0,0.0,0.0,0.0,0.0,0.0,0.0,0.0,0.0,0.0,0.0,0.0,0.0,0.0,0.0,0.0,0.0,0.0,0.0,0.0,0.0,0.0,-0.1269,-0.4753,-0.9515,-0.9076,-0.8623,-1.0522,-1.0953,-1.075,-1.0657,-1.0772,-1.0739,-1.0772,-1.0758,-1.0751,-1.0724,-1.0738,-1.0731,-1.0724,-1.0717,-1.0717,-1.0717,-1.0717,-1.0717,-1.0717,-1.0717,-1.0717,0.0,0.0,0.0,0.0,0.0,0.0,0.0,0.0,0.0,0.0,0.0,0.0,0.0,0.0,0.0,0.0,0.0,0.0,0.0,0.0,0.0,0.0,0.0,0.0,0.0,0.0,0.0,0.0,0.0,0.0,0.0,0.0,0.0,0.0,0.0,0.0,0.0,0.0,0.0,0.0,0.0,0.0,0.0,0.0,0.0,0.0,0.0,0.0,0.0,0.0,0.0,0.0,0.0,0.0,0.0,0.0,0.0,0.0,0.0,0.0,0.0,0.0,0.0,0.0,0.0,0.0,0.0,0.0,0.0,0.0,0.0,0.0,0.0,0.0,0.0,0.0,0.0,0.0,0.0,0.0,0.0,0.0,0.0,0.0,0.0,0.0,0.0,0.0,0.0,-0.1438,-0.3994,-0.8515,-0.8625,-0.9003,-1.0763,-1.1303,-1.1131,-1.107,-1.0783,-1.0756,-1.0968,-1.0962,-1.0921,-1.086,-1.0846,-1.0806,-1.0744,-1.0717,-1.0717,-1.0717,-1.0717,-1.0717,-1.0717,-1.0717,-1.0717,0.0,0.0,0.0,0.0,0.0,0.0,0.0,0.0,0.0,0.0,0.0,0.0,0.0,0.0,0.0,0.0,0.0,0.0,0.0,0.0,0.0,0.0,0.0,0.0,0.0,0.0,0.0,0.0,0.0,0.0,0.0,0.0,0.0,0.0,0.0,0.0,0.0,0.0,0.0,0.0,0.0,0.0,0.0,0.0,0.0,0.0,0.0,0.0,0.0,0.0,0.0,0.0,0.0,0.0,0.0,0.0,0.0,0.0,0.0,0.0,0.0,0.0,0.0,0.0,0.0,0.0,0.0,0.0,0.0,0.0,0.0,0.0,0.0,0.0,0.0,0.0,0.0,0.0,0.0,0.0,0.0,0.0,0.0,0.0,0.0,0.0,-0.0288,-0.0583,-0.1021,-0.2187,-0.4493,-0.7052,-0.8169,-0.8986,-1.0861,-1.142,-1.1545,-1.1372,-1.1067,-1.1047,-1.1158,-1.1289,-1.1104,-1.0975,-1.0941,-1.0873,-1.0758,-1.0717,-1.0717,-1.0717,-1.0717,-1.0717,-1.0717,-1.0717,-1.0717,0.0,0.0,0.0,0.0,0.0,0.0,0.0,0.0,0.0,0.0,0.0,0.0,0.0,0.0,0.0,0.0,0.0,0.0,0.0,0.0,0.0,0.0,0.0,0.0,0.0,0.0,0.0,0.0,0.0,0.0,0.0,0.0,0.0,0.0,0.0,0.0,0.0,0.0,0.0,0.0,0.0,0.0,0.0,0.0,0.0,0.0,0.0,0.0,0.0,0.0,0.0,0.0,0.0,0.0,0.0,0.0,0.0,0.0,0.0,0.0,0.0,0.0,0.0,0.0,0.0,0.0,0.0,0.0,0.0,0.0,0.0,0.0,0.0,0.0,0.0,0.0,0.0,0.0,0.0,0.0,0.0,0.0,0.0,0.0,0.0,0.0,-0.1308,-0.2773,-0.4231,-0.4668,-0.5974,-0.828,-0.8564,-0.9125,-1.0973,-1.1572,-1.164,-1.1537,-1.1516,-1.1475,-1.1538,-1.1476,-1.1406,-1.1029,-1.0948,-1.0894,-1.0778,-1.0717,-1.0717,-1.0717,-1.0717,-1.0717,-1.0717,-1.0717,-1.0717,0.0,0.0,0.0,0.0,0.0,0.0,0.0,0.0,0.0,0.0,0.0,0.0,0.0,0.0,0.0,0.0,0.0,0.0,0.0,0.0,0.0,0.0,0.0,0.0,0.0,0.0,0.0,0.0,0.0,0.0,0.0,0.0,0.0,0.0,0.0,0.0,0.0,0.0,0.0,0.0,0.0,0.0,0.0,0.0,0.0,0.0,0.0,0.0,0.0,0.0,0.0,0.0,0.0,0.0,0.0,0.0,0.0,0.0,0.0,0.0,0.0,0.0,0.0,0.0,0.0,0.0,0.0,0.0,0.0,0.0,0.0,0.0,0.0,0.0,0.0,0.0,0.0,0.0,0.0,0.0,0.0,0.0,0.0,0.0,0.0,0.0,-0.2042,-0.467,-0.7892,-0.7443,-0.772,-0.9607,-0.9302,-0.9141,-1.1031,-1.1619,-1.1586,-1.1545,-1.1531,-1.1633,-1.1578,-1.1482,-1.1253,-1.1097,-1.1002,-1.0894,-1.0751,-1.0724,-1.0717,-1.0717,-1.0717,-1.0717,-1.0717,-1.0717,-1.0717,0.0,0.0,0.0,0.0,0.0,0.0,0.0,0.0,0.0,0.0,0.0,0.0,0.0,0.0,0.0,0.0,0.0,0.0,0.0,0.0,0.0,0.0,0.0,0.0,0.0,0.0,0.0,0.0,0.0,0.0,0.0,0.0,0.0,0.0,0.0,0.0,0.0,0.0,0.0,0.0,0.0,0.0,0.0,0.0,0.0,0.0,0.0,0.0,0.0,0.0,0.0,0.0,0.0,0.0,0.0,0.0,0.0,0.0,0.0,0.0,0.0,0.0,0.0,0.0,0.0,0.0,0.0,0.0,0.0,0.0,0.0,0.0,0.0,-0.0531,-0.0937,-0.1077,0.0,-0.0539,0.0,-0.0135,0.0,-0.0811,0.0,0.0,0.0,0.0,-0.3356,-0.5839,-0.9211,-0.8459,-0.8295,-1.0624,-0.9729,-0.9718,-1.1181,-1.1619,-1.1619,-1.1619,-1.1606,-1.1586,-1.1572,-1.1295,-1.1154,-1.1084,-1.1002,-1.09,-1.0765,-1.0724,-1.0717,-1.0717,-1.0717,-1.0717,-1.0717,-1.0717,-1.0717,0.0,0.0,0.0,0.0,0.0,0.0,0.0,0.0,0.0,0.0,0.0,0.0,0.0,0.0,0.0,0.0,0.0,0.0,0.0,0.0,0.0,0.0,0.0,0.0,0.0,0.0,0.0,0.0,0.0,0.0,0.0,0.0,0.0,0.0,0.0,0.0,0.0,0.0,0.0,0.0,0.0,0.0,0.0,0.0,0.0,0.0,0.0,0.0,0.0,0.0,0.0,0.0,0.0,0.0,0.0,0.0,0.0,0.0,0.0,0.0,0.0,0.0,0.0,0.0,0.0,0.0,0.0,0.0,0.0,0.0,0.0,0.0,0.0,-0.2018,-0.3369,-0.3643,-0.2428,-0.2434,-0.1482,-0.0944,-0.2972,-0.3411,0.0,0.0,0.0,-0.3776,-0.4813,-0.5683,-0.7575,-0.8005,-0.8724,-0.9735,-1.0311,-1.0599,-1.1469,-1.1619,-1.1619,-1.1619,-1.1606,-1.1572,-1.1328,-1.1214,-1.1067,-1.0926,-1.0968,-1.0867,-1.0765,-1.0717,-1.0717,-1.0717,-1.0717,-1.0717,-1.0717,-1.0717,-1.0717,0.0,0.0,0.0,0.0,0.0,0.0,0.0,0.0,0.0,0.0,0.0,0.0,0.0,0.0,0.0,0.0,0.0,0.0,0.0,0.0,0.0,0.0,0.0,0.0,0.0,0.0,0.0,0.0,0.0,0.0,0.0,0.0,0.0,0.0,0.0,0.0,0.0,0.0,0.0,0.0,0.0,0.0,0.0,0.0,0.0,0.0,0.0,0.0,0.0,0.0,0.0,0.0,0.0,0.0,0.0,0.0,0.0,0.0,0.0,0.0,0.0,0.0,0.0,0.0,0.0,0.0,0.0,0.0,-0.2039,-0.2176,0.0,0.0,-0.1081,-0.3679,-0.6838,-0.7825,-0.6481,-0.5935,-0.5099,-0.3994,-0.6348,-0.7521,-0.4223,-0.2982,-0.4586,-0.8,-0.7869,-0.786,-0.9168,-0.9602,-0.959,-1.0606,-1.1181,-1.1325,-1.1476,-1.1619,-1.1619,-1.1619,-1.1599,-1.1389,-1.1302,-1.1014,-1.0869,-1.0846,-1.0887,-1.0819,-1.0717,-1.0717,-1.0717,-1.0717,-1.0717,-1.0717,-1.0717,-1.0717,-1.0717,0.0,0.0,0.0,0.0,0.0,0.0,0.0,0.0,0.0,0.0,0.0,0.0,0.0,0.0,0.0,0.0,0.0,0.0,0.0,0.0,0.0,0.0,0.0,0.0,0.0,0.0,0.0,0.0,0.0,0.0,0.0,0.0,0.0,0.0,0.0,0.0,0.0,0.0,0.0,0.0,0.0,0.0,0.0,0.0,0.0,0.0,0.0,0.0,0.0,0.0,0.0,0.0,0.0,0.0,0.0,0.0,0.0,0.0,0.0,0.0,0.0,0.0,0.0,0.0,0.0,0.0,0.0,0.0,-0.4373,-0.5512,-0.2481,0.0,-0.2461,-0.4698,-0.8188,-0.9613,-0.798,-0.7831,-0.7122,-0.6418,-0.8847,-0.9631,-0.7549,-0.629,-0.7639,-1.1096,-1.0058,-1.0047,-1.0624,-1.0762,-1.0606,-1.1476,-1.1476,-1.1476,-1.1619,-1.1619,-1.1619,-1.1619,-1.1613,-1.1531,-1.1255,-1.0961,-1.0822,-1.0792,-1.0819,-1.0751,-1.0717,-1.0724,-1.0717,-1.0717,-1.0717,-1.0717,-1.0717,-1.0717,-1.0717,0.0,0.0,0.0,0.0,0.0,0.0,0.0,0.0,0.0,0.0,0.0,0.0,0.0,0.0,0.0,0.0,0.0,0.0,0.0,0.0,0.0,0.0,0.0,0.0,0.0,0.0,0.0,0.0,0.0,0.0,0.0,0.0,0.0,0.0,0.0,0.0,0.0,0.0,0.0,0.0,0.0,0.0,0.0,0.0,0.0,0.0,0.0,0.0,0.0,0.0,0.0,0.0,0.0,0.0,0.0,0.0,0.0,0.0,0.0,0.0,0.0,0.0,0.0,0.0,0.0,0.0,0.0,0.0,-0.6073,-0.9308,-0.573,-0.475,-0.4748,-0.5042,-0.7436,-0.8278,-0.7571,-0.7697,-0.8109,-0.8283,-1.0223,-1.1457,-1.1057,-0.9374,-0.9291,-1.0781,-1.1378,-1.0919,-1.0612,-1.075,-1.1188,-1.1476,-1.1619,-1.1619,-1.1619,-1.1619,-1.1619,-1.1619,-1.1606,-1.1558,-1.1382,-1.108,-1.0849,-1.0839,-1.086,-1.0799,-1.0778,-1.0772,-1.0724,-1.0717,-1.0717,-1.0717,-1.0717,-1.0717,-1.0717,0.0,0.0,0.0,0.0,0.0,0.0,0.0,0.0,0.0,0.0,0.0,0.0,0.0,0.0,0.0,0.0,0.0,0.0,0.0,0.0,0.0,0.0,0.0,0.0,0.0,0.0,0.0,0.0,0.0,0.0,0.0,0.0,0.0,0.0,0.0,0.0,0.0,0.0,0.0,0.0,0.0,0.0,0.0,0.0,0.0,0.0,0.0,0.0,0.0,0.0,0.0,0.0,0.0,0.0,0.0,0.0,0.0,0.0,0.0,0.0,0.0,0.0,0.0,0.0,-0.1245,-0.0554,0.0,0.0,-0.5614,-0.8797,-0.9106,-0.787,-0.714,-0.7093,-0.8651,-0.9536,-0.9155,-0.9746,-1.0476,-1.0482,-1.1103,-1.1565,-1.1572,-1.0593,-1.075,-1.1345,-1.164,-1.1338,-1.1188,-1.1181,-1.1476,-1.1619,-1.1619,-1.1619,-1.1619,-1.1619,-1.1619,-1.1619,-1.1613,-1.1558,-1.1382,-1.1267,-1.1165,-1.0906,-1.0934,-1.086,-1.0846,-1.0799,-1.0744,-1.0717,-1.0717,-1.0717,-1.0717,-1.0717,-1.0717,0.0,0.0,0.0,0.0,0.0,0.0,0.0,0.0,0.0,0.0,0.0,0.0,0.0,0.0,0.0,0.0,0.0,0.0,0.0,0.0,0.0,0.0,0.0,0.0,0.0,0.0,0.0,0.0,0.0,0.0,0.0,0.0,0.0,0.0,0.0,0.0,0.0,0.0,0.0,0.0,0.0,0.0,0.0,0.0,0.0,0.0,0.0,0.0,0.0,0.0,0.0,0.0,0.0,0.0,0.0,0.0,0.0,0.0,0.0,0.0,0.0,0.0,0.0,0.0,-0.2381,-0.1823,-0.0981,-0.2256,-0.6241,-0.9746,-1.0954,-1.0425,-0.9407,-0.9341,-1.0197,-1.0811,-1.0737,-1.1181,-1.1469,-1.1456,-1.1613,-1.1619,-1.1619,-1.1619,-1.1619,-1.1619,-1.1619,-1.1619,-1.1619,-1.1619,-1.1619,-1.1619,-1.1619,-1.1619,-1.1619,-1.1619,-1.1619,-1.1619,-1.1619,-1.1531,-1.1543,-1.1502,-1.1287,-1.1131,-1.1002,-1.0928,-1.0894,-1.0792,-1.0717,-1.0717,-1.0731,-1.0717,-1.0717,-1.0717,-1.0717,0.0,0.0,0.0,0.0,0.0,0.0,0.0,0.0,0.0,0.0,0.0,0.0,0.0,0.0,0.0,0.0,0.0,0.0,0.0,0.0,0.0,0.0,0.0,0.0,0.0,0.0,0.0,0.0,0.0,0.0,0.0,0.0,0.0,0.0,0.0,0.0,0.0,0.0,0.0,0.0,0.0,0.0,0.0,0.0,0.0,0.0,0.0,0.0,0.0,0.0,0.0,0.0,0.0,0.0,0.0,0.0,0.0,0.0,0.0,0.0,0.0,0.0,0.0,-0.1265,-0.3385,-0.3107,-0.2972,-0.4564,-0.8145,-1.0773,-1.1462,-1.1338,-1.1325,-1.1476,-1.1319,-1.1476,-1.1619,-1.1619,-1.1619,-1.1619,-1.1619,-1.1619,-1.1619,-1.1619,-1.1619,-1.1619,-1.1619,-1.1619,-1.1619,-1.1619,-1.1619,-1.1619,-1.1619,-1.1619,-1.1619,-1.1619,-1.1619,-1.1619,-1.1619,-1.1558,-1.1626,-1.1598,-1.1436,-1.128,-1.1118,-1.1029,-1.0955,-1.0887,-1.0806,-1.0652,-1.0772,-1.0738,-1.0717,-1.0717,-1.0717,0.0,0.0,0.0,0.0,0.0,0.0,0.0,0.0,0.0,0.0,0.0,0.0,0.0,0.0,0.0,0.0,0.0,0.0,0.0,0.0,0.0,0.0,0.0,0.0,0.0,0.0,0.0,0.0,0.0,0.0,0.0,0.0,0.0,0.0,0.0,0.0,0.0,0.0,0.0,0.0,0.0,0.0,0.0,0.0,0.0,0.0,0.0,0.0,0.0,0.0,0.0,0.0,0.0,0.0,0.0,0.0,0.0,0.0,0.0,0.0,0.0,0.0,0.0,0.0,-0.2741,-0.3747,-0.476,-0.6513,-0.9407,-1.1305,-1.1489,-1.1626,-1.1619,-1.1619,-1.1626,-1.1626,-1.1619,-1.1619,-1.1619,-1.1619,-1.1619,-1.1619,-1.1619,-1.1619,-1.1619,-1.1619,-1.1619,-1.1619,-1.1619,-1.1619,-1.1619,-1.1619,-1.1619,-1.1619,-1.1619,-1.1619,-1.1619,-1.1619,-1.1619,-1.1613,-1.1572,-1.1558,-1.1558,-1.1504,-1.1314,-1.1199,-1.1151,-1.109,-1.0866,-1.0739,-1.0672,-1.0765,-1.0731,-1.0717,-1.0717,0.0686,0.0,0.0,0.0,0.0,0.0,0.0,0.0,0.0,0.0,0.0,0.0,0.0,0.0,0.0,0.0,0.0,0.0,0.0,0.0,0.0,0.0,0.0,0.0,0.0,0.0,0.0,0.0,0.0,0.0,0.0,0.0,0.0,0.0,0.0,0.0,0.0,0.0,0.0,0.0,0.0,0.0,0.0,0.0,0.0,0.0,0.0,0.0,0.0,0.0,0.0,0.0,0.0,0.0,0.0,0.0,0.0,0.0,0.0,0.0,0.0,0.0,0.0,0.0,-0.218,-0.3785,-0.5377,-0.7412,-1.0035,-1.1345,-1.1633,-1.1626,-1.1619,-1.1619,-1.1619,-1.1619,-1.1619,-1.1619,-1.1619,-1.1619,-1.1619,-1.1619,-1.1619,-1.1619,-1.1619,-1.1619,-1.1619,-1.1619,-1.1619,-1.1619,-1.1619,-1.1619,-1.1619,-1.1619,-1.1619,-1.1619,-1.1619,-1.1619,-1.1619,-1.1619,-1.1619,-1.1619,-1.1613,-1.1572,-1.1463,-1.1375,-1.1314,-1.1219,-1.0926,-1.0812,-1.0725,-1.0658,-1.0765,-1.0717,-1.0717,0.1891,0.0,0.0,0.0,0.0,0.0,0.0,0.0,0.0,0.0,0.0,0.0,0.0,0.0,0.0,0.0,0.0,0.0,0.0,0.0,0.0,0.0,0.0,0.0,0.0,0.0,0.0,0.0,0.0,0.0,0.0,0.0,0.0,0.0,0.0,0.0,0.0,0.0,0.0,0.0,0.0,0.0,0.0,0.0,0.0,0.0,0.0,0.0,0.0,0.0,0.0,0.0,0.0,0.0,0.0,0.0,0.0,0.0,0.0,0.0,0.0,0.0,0.0,0.0,-0.2186,-0.378,-0.5663,-0.7847,-1.0167,-1.1332,-1.1619,-1.1619,-1.1619,-1.1619,-1.1619,-1.1619,-1.1619,-1.1619,-1.1619,-1.1619,-1.1619,-1.1619,-1.1619,-1.1619,-1.1619,-1.1619,-1.1619,-1.1619,-1.1619,-1.1619,-1.1619,-1.1619,-1.1619,-1.1619,-1.1619,-1.1619,-1.1619,-1.1619,-1.1619,-1.1619,-1.1619,-1.1619,-1.1619,-1.1579,-1.1518,-1.1477,-1.1436,-1.1307,-1.1151,-1.0913,-1.0853,-1.0752,-1.0658,-1.0738,-1.0717,0.3715,0.1012,0.0337,0.0,0.0,0.0,0.0,0.0,0.0,0.0,0.0,0.0,0.0,0.0,0.0,0.0,0.0,0.0,0.0,0.0,0.0,0.0,0.0,0.0,0.0,0.0,0.0,0.0,0.0,0.0,0.0,0.0,0.0,0.0,0.0,0.0,0.0,0.0,0.0,0.0,0.0,0.0,0.0,0.0,0.0,0.0,0.0,0.0,0.0,0.0,0.0,0.0,0.0,0.0,0.0,0.0,0.0,0.0,0.0,0.0,0.0,0.0,0.0,-0.0584,-0.2187,-0.3782,-0.5667,-0.7991,-1.0167,-1.1489,-1.1633,-1.1619,-1.164,-1.1653,-1.164,-1.1626,-1.1619,-1.1619,-1.1619,-1.1619,-1.1619,-1.1619,-1.1619,-1.1619,-1.1619,-1.1619,-1.1619,-1.1619,-1.1619,-1.1619,-1.1619,-1.1619,-1.1619,-1.1619,-1.1619,-1.1619,-1.1619,-1.1619,-1.1619,-1.1619,-1.1619,-1.1619,-1.1619,-1.1613,-1.1606,-1.1565,-1.1518,-1.145,-1.1307,-1.1219,-1.098,-1.0873,-1.0772,-1.0685,-1.0778,0.7045,0.3692,0.2015,0.0838,0.0,0.0,0.0,0.0,0.0,0.0,0.0,0.0,0.0,0.0,0.0,0.0,0.0,0.0,0.0,0.0,0.0,0.0,0.0,0.0,0.0,0.0,0.0,0.0,0.0,0.0,0.0,0.0,0.0,0.0,0.0,0.0,0.0,0.0,0.0,0.0,0.0,0.0,0.0,0.0,0.0,0.0,0.0,0.0,0.0,0.0,0.0,0.0,0.0,0.0,0.0,0.0,0.0,0.0,0.0,0.0,0.0,0.0,0.0,0.0,-0.2189,-0.3796,-0.569,-0.7869,-1.007,-1.1569,-1.1569,-1.1721,-1.1887,-1.1803,-1.1755,-1.1721,-1.1708,-1.166,-1.1619,-1.1619,-1.1619,-1.1619,-1.1619,-1.1619,-1.1619,-1.1619,-1.1619,-1.1619,-1.1619,-1.1619,-1.1619,-1.1619,-1.1619,-1.1619,-1.1619,-1.1619,-1.1619,-1.1619,-1.1619,-1.1619,-1.1619,-1.1619,-1.1619,-1.1613,-1.1613,-1.1613,-1.1572,-1.1511,-1.145,-1.1489,-1.124,-1.1,-1.0926,-1.0859,-1.0975,1.0351,0.7346,0.4507,0.216,0.0495,0.0,0.0,0.0,0.0,0.0,0.0,0.0,0.0,0.0,0.0,0.0,0.0,0.0,0.0,0.0,0.0,0.0,0.0,0.0,0.0,0.0,0.0,0.0,0.0,0.0,0.0,0.0,0.0,0.0,0.0,0.0,0.0,0.0,0.0,0.0,0.0,0.0,0.0,0.0,0.0,0.0,0.0,0.0,0.0,0.0,0.0,0.0,0.0,0.0,0.0,0.0,0.0,0.0,0.0,0.0,0.0,0.0,0.0,0.0,-0.2197,-0.3822,-0.5736,-0.7948,-1.0175,-1.155,-1.1683,-1.201,-1.2079,-1.2141,-1.1932,-1.1864,-1.1809,-1.1714,-1.1674,-1.1619,-1.1619,-1.1619,-1.1619,-1.1619,-1.1619,-1.1619,-1.1619,-1.1619,-1.1619,-1.1619,-1.1619,-1.1619,-1.1619,-1.1619,-1.1619,-1.1619,-1.1619,-1.1619,-1.1619,-1.1619,-1.1619,-1.1619,-1.1619,-1.1619,-1.1619,-1.1619,-1.1619,-1.1579,-1.1518,-1.1585,-1.1509,-1.1267,-1.1212,-1.1179,-1.1158,1.1259,1.0947,0.7506,0.4564,0.2118,0.0652,0.0,0.0,0.0,0.0,0.0,0.0,0.0,0.0,0.0,0.0,0.0,0.0,0.0,0.0,0.0,0.0,0.0,0.0,0.0,0.0,0.0,0.0,0.0,0.0,0.0,0.0,0.0,0.0,0.0,0.0,0.0,0.0,0.0,0.0,0.0,0.0,0.0,0.0,0.0,0.0,0.0,0.0,0.0,0.0,0.0,0.0,0.0,0.0,0.0,0.0,0.0,0.0,0.0,0.0,0.0,0.0,0.0,0.0,-0.2361,-0.3999,-0.6099,-0.8374,-1.0328,-1.1663,-1.169,-1.2107,-1.2331,-1.2366,-1.2196,-1.1979,-1.1884,-1.1803,-1.1742,-1.1667,-1.164,-1.1619,-1.1619,-1.1619,-1.1619,-1.1619,-1.1619,-1.1619,-1.1619,-1.1619,-1.1619,-1.1619,-1.1619,-1.1619,-1.1619,-1.1619,-1.1619,-1.1619,-1.1619,-1.1619,-1.1619,-1.1619,-1.1619,-1.1619,-1.1619,-1.1619,-1.1619,-1.1619,-1.1592,-1.1531,-1.1605,-1.1537,-1.1502,-1.1321,-1.1392,1.216,1.2179,1.0061,0.7432,0.4502,0.2252,0.08,0.0,0.0,0.0,0.0,0.0,0.0,0.0,0.0,0.0,0.0,0.0,0.0,0.0,0.0,0.0,0.0,0.0,0.0,0.0,0.0,0.0,0.0,0.0,0.0,0.0,0.0,0.0,0.0,0.0,0.0,0.0,0.0,0.0,0.0,0.0,0.0,0.0,0.0,0.0,0.0,0.0,0.0,0.0,0.0,0.0,0.0,0.0,0.0,0.0,0.0,0.0,0.0,0.0,0.0,0.0,-0.0734,-0.1624,-0.2679,-0.4043,-0.6642,-0.9699,-1.0727,-1.1612,-1.1925,-1.2292,-1.2512,-1.2416,-1.2381,-1.2149,-1.2054,-1.1925,-1.1823,-1.159,-1.1681,-1.1653,-1.1619,-1.1619,-1.1619,-1.1619,-1.1619,-1.1619,-1.1619,-1.1619,-1.1619,-1.1619,-1.1619,-1.1619,-1.1619,-1.1619,-1.1619,-1.1619,-1.1619,-1.1619,-1.1619,-1.1619,-1.1619,-1.1619,-1.1619,-1.1619,-1.1619,-1.1619,-1.1619,-1.1619,-1.1558,-1.1646,-1.164,-1.1605,-1.153,1.2874,1.2722,1.209,0.977,0.6511,0.4445,0.2371,0.0785,0.0,0.0,0.0,0.0,0.0,0.0,0.0,0.0,0.0,0.0,0.0,0.0,0.0,0.0,0.0,0.0,0.0,0.0,0.0,0.0,0.0,0.0,0.0,0.0,0.0,0.0,0.0,0.0,0.0,0.0,0.0,0.0,0.0,0.0,0.0,0.0,0.0,0.0,0.0,0.0,0.0,0.0,0.0,0.0,0.0,0.0,0.0,0.0,0.0,0.0,0.0,0.0,0.0,0.0,0.0,-0.223,-0.315,-0.4858,-0.7684,-1.1352,-1.2092,-1.1874,-1.2085,-1.2311,-1.2532,-1.2427,-1.2386,-1.2305,-1.2216,-1.2101,-1.1817,-1.1724,-1.1762,-1.1694,-1.166,-1.1619,-1.1619,-1.1619,-1.1619,-1.1619,-1.1619,-1.1619,-1.1619,-1.1619,-1.1619,-1.1619,-1.1619,-1.1619,-1.1619,-1.1619,-1.1619,-1.1619,-1.1619,-1.1619,-1.1619,-1.1619,-1.1619,-1.1619,-1.1619,-1.1619,-1.1619,-1.1619,-1.1619,-1.1599,-1.1565,-1.1558,-1.1525,1.2562,1.2576,1.244,1.0537,0.7537,0.6919,0.5027,0.2354,0.0785,0.0,0.0,0.0,0.0,0.0,0.0,0.0,0.0,0.0,0.0,0.0,0.0,0.0,0.0,0.0,0.0,0.0,0.0,0.0,0.0,0.0,0.0,0.0,0.0,0.0,0.0,0.0,0.0,0.0,0.0,0.0,0.0,0.0,0.0,0.0,0.0,0.0,0.0,0.0,0.0,0.0,0.0,0.0,0.0,0.0,0.0,0.0,0.0,0.0,0.0,0.0,0.0,0.0,0.0,-0.2243,-0.3486,-0.5995,-0.9156,-1.1993,-1.2359,-1.2219,-1.2192,-1.2406,-1.2467,-1.2488,-1.2467,-1.2386,-1.2311,-1.223,-1.1951,-1.1884,-1.1938,-1.1803,-1.1721,-1.166,-1.1619,-1.1619,-1.1619,-1.1619,-1.1619,-1.1619,-1.1619,-1.1619,-1.1619,-1.1619,-1.1619,-1.1619,-1.1626,-1.1626,-1.1626,-1.1619,-1.1619,-1.1619,-1.1619,-1.1619,-1.1619,-1.1619,-1.1619,-1.1619,-1.1619,-1.1619,-1.1619,-1.1619,-1.1613,-1.1619,-1.1619,1.2508,1.2515,1.2522,1.1274,0.9397,0.7994,0.6744,0.4865,0.0,0.0,0.0,0.0,0.0,0.0,0.0,0.0,0.0,0.0,0.0,0.0,0.0,0.0,0.0,0.0,0.0,0.0,0.0,0.0,0.0,0.0,0.0,0.0,0.0,0.0,0.0,0.0,0.0,0.0,0.0,0.0,0.0,0.0,0.0,0.0,0.0,0.0,0.0,0.0,0.0,0.0,0.0,0.0,0.0,0.0,0.0,0.0,0.0,0.0,0.0,0.0,0.0,0.0,-0.15,-0.2901,-0.4314,-0.6833,-0.9842,-1.2273,-1.2467,-1.2461,-1.242,-1.2461,-1.2488,-1.2501,-1.2501,-1.2474,-1.24,-1.2318,-1.223,-1.2176,-1.2115,-1.1986,-1.187,-1.1816,-1.1735,-1.164,-1.1633,-1.1619,-1.1619,-1.1619,-1.1619,-1.1619,-1.1619,-1.1619,-1.1619,-1.1619,-1.164,-1.164,-1.164,-1.1633,-1.1619,-1.1619,-1.1653,-1.164,-1.1626,-1.1619,-1.1619,-1.1619,-1.1619,-1.1619,-1.1619,-1.1619,-1.1619,-1.1619,-1.1619,1.2501,1.2501,1.2501,1.205,1.0975,0.8613,0.658,0.5022,0.157,0.0,0.0,0.0,0.0,0.0,0.0,0.0,0.0,0.0,0.0,0.0,0.0,0.0,0.0,0.0,0.0,0.0,0.0,0.0,0.0,0.0,0.0,0.0,0.0,0.0,0.0,0.0,0.0,0.0,0.0,0.0,0.0,0.0,0.0,0.0,0.0,0.0,0.0,0.0,0.0,0.0,0.0,0.0,0.0,0.0,0.0,0.0,0.0,0.0,0.0,0.0,0.0,0.0,-0.1823,-0.3702,-0.7018,-0.8613,-0.9853,-1.2326,-1.2494,-1.2501,-1.2501,-1.2494,-1.2501,-1.2501,-1.2501,-1.2501,-1.2488,-1.2406,-1.2359,-1.2338,-1.2277,-1.2354,-1.2244,-1.2013,-1.1884,-1.1714,-1.1653,-1.1626,-1.1619,-1.1619,-1.1626,-1.1633,-1.1543,-1.1694,-1.1708,-1.1694,-1.1694,-1.1694,-1.1687,-1.1721,-1.1901,-1.1755,-1.1775,-1.1735,-1.1811,-1.164,-1.1647,-1.1633,-1.1619,-1.1619,-1.1619,-1.1619,-1.1619,-1.1619,-1.1619,1.2501,1.2501,1.2494,1.2367,1.2089,0.8929,0.4849,0.0,0.0,0.0,0.0,0.0,0.0,0.0,0.0,0.0,0.0,0.0,0.0,0.0,0.0,0.0,0.0,0.0,0.0,0.0,0.0,0.0,0.0,0.0,0.0,0.0,0.0,0.0,0.0,0.0,0.0,0.0,0.0,0.0,0.0,0.0,0.0,0.0,0.0,0.0,0.0,0.0,0.0,0.0,0.0,0.0,0.0,0.0,0.0,0.0,0.0,0.0,0.0,0.0,0.0,0.0,-0.1824,-0.4965,-1.0036,-0.9246,-1.033,-1.203,-1.2501,-1.2501,-1.2501,-1.2501,-1.2501,-1.2501,-1.2501,-1.2501,-1.2501,-1.2494,-1.2461,-1.2474,-1.2433,-1.2498,-1.2429,-1.2176,-1.1972,-1.165,-1.1647,-1.1619,-1.1619,-1.1619,-1.1633,-1.166,-1.161,-1.165,-1.1983,-1.1983,-1.167,-1.1683,-1.1837,-1.2052,-1.2423,-1.2261,-1.2633,-1.2255,-1.2329,-1.1997,-1.1804,-1.2065,-1.2043,-1.1756,-1.1619,-1.1619,-1.1619,-1.1619,-1.1619,1.2284,1.2372,1.2525,1.2447,1.2251,0.8929,0.4693,0.0,0.0,0.0,0.0,0.0,0.0,0.0,0.0,0.0,0.0,0.0,0.0,0.0,0.0,0.0,0.0,0.0,0.0,0.0,0.0,0.0,0.0,0.0,0.0,0.0,0.0,0.0,0.0,0.0,0.0,0.0,0.0,0.0,0.0,0.0,0.0,0.0,0.0,0.0,0.0,0.0,0.0,0.0,0.0,0.0,0.0,0.0,0.0,0.0,0.0,0.0,0.0,0.0,0.0,0.0,-0.1862,-0.5306,-1.1323,-1.0197,-1.033,-1.1566,-1.2501,-1.2501,-1.2501,-1.2501,-1.2501,-1.2501,-1.2501,-1.2501,-1.2501,-1.2501,-1.2501,-1.2494,-1.2494,-1.2454,-1.2546,-1.2484,-1.2101,-1.1724,-1.159,-1.1626,-1.166,-1.1674,-1.1708,-1.1762,-1.1703,-1.2199,-1.2388,-1.2093,-1.1791,-1.1945,-1.2261,-1.3215,-1.4019,-1.3847,-1.4072,-1.3529,-1.3122,-1.2887,-1.282,-1.2775,-1.261,-1.2187,-1.19,-1.1619,-1.1619,-1.1613,-1.1613,1.2128,1.2223,1.2429,1.2553,1.2076,0.8453,0.4534,0.1096,0.0,0.0,0.0,0.0,0.0,0.0,0.0,0.0,0.0,0.0,0.0,0.0,0.0,0.0,0.0,0.0,0.0,0.0,0.0,0.0,0.0,0.0,0.0,0.0,0.0,0.0,0.0,0.0,0.0,0.0,0.0,0.0,0.0,0.0,0.0,0.0,0.0,0.0,0.0,0.0,0.0,0.0,0.0,0.0,0.0,0.0,0.0,0.0,0.0,0.0,0.0,0.0,0.0,0.0,-0.1565,-0.5486,-0.9105,-0.988,-1.0014,-1.203,-1.2501,-1.2501,-1.2501,-1.2501,-1.2501,-1.2501,-1.2501,-1.2501,-1.2501,-1.2501,-1.2501,-1.2501,-1.2501,-1.2494,-1.2447,-1.2525,-1.2203,-1.2006,-1.1918,-1.183,-1.1837,-1.1843,-1.185,-1.1904,-1.1831,-1.2466,-1.2947,-1.3103,-1.3237,-1.3458,-1.3932,-1.565,-1.6296,-1.6305,-1.6084,-1.5647,-1.5069,-1.4211,-1.4096,-1.429,-1.3587,-1.2617,-1.2316,-1.1729,-1.1729,-1.1729,-1.1743,1.2054,1.2088,1.2374,1.2532,1.2044,0.7185,0.4374,0.2504,0.0,0.0,0.0,0.0,0.0,0.0,0.0,0.0,0.0,0.0,0.0,0.0,0.0,0.0,0.0,0.0,0.0,0.0,0.0,0.0,0.0,0.0,0.0,0.0,0.0,0.0,0.0,0.0,0.0,0.0,0.0,0.0,0.0,0.0,0.0,0.0,0.0,0.0,0.0,0.0,0.0,0.0,0.0,0.0,0.0,0.0,0.0,0.0,0.0,0.0,0.0,0.0,0.0,0.0,-0.157,-0.4703,-0.7838,-0.8929,-0.9853,-1.2192,-1.2501,-1.2501,-1.2501,-1.2501,-1.2501,-1.2501,-1.2501,-1.2501,-1.2501,-1.2501,-1.2501,-1.2501,-1.2501,-1.2494,-1.2454,-1.2539,-1.2416,-1.2142,-1.2081,-1.204,-1.1999,-1.1986,-1.1972,-1.2033,-1.2094,-1.3013,-1.3641,-1.4428,-1.4852,-1.4893,-1.603,-1.8016,-1.937,-1.9785,-1.9348,-1.8081,-1.73,-1.6549,-1.6074,-1.5765,-1.5548,-1.5319,-1.2836,-1.2102,-1.1973,-1.2415,-1.2866,1.1823,1.1911,1.1965,1.2088,1.2257,1.0738,0.8448,0.548,0.0,0.0,0.0,0.0,0.0,0.0,0.0,0.0,0.0,0.0,0.0,0.0,0.0,0.0,0.0,0.0,0.0,0.0,0.0,0.0,0.0,0.0,0.0,0.0,0.0,0.0,0.0,0.0,0.0,0.0,0.0,0.0,0.0,0.0,0.0,0.0,0.0,0.0,0.0,0.0,0.0,0.0,0.0,0.0,0.0,0.0,0.0,0.0,0.0,0.0,0.0,0.0,0.0,0.0,-0.157,-0.4234,-0.7994,-0.8769,-1.0169,-1.1721,-1.2347,-1.2501,-1.2501,-1.2501,-1.2501,-1.2501,-1.2501,-1.2501,-1.2501,-1.2501,-1.2501,-1.2501,-1.2501,-1.2501,-1.2474,-1.2454,-1.2352,-1.2429,-1.2368,-1.2128,-1.2081,-1.2216,-1.221,-1.2299,-1.2656,-1.3567,-1.4477,-1.5764,-1.6683,-1.6961,-1.8859,-2.1318,-2.2298,-2.235,-2.1388,-1.967,-1.9283,-1.8888,-1.866,-1.8487,-1.8843,-1.8153,-1.583,-1.5124,-1.616,-1.5877,-1.5159,1.1674,1.1762,1.1663,1.1891,1.2182,1.2284,1.0241,0.6541,0.2502,0.0314,0.0,0.0,0.0,0.0,0.0,0.0,0.0,0.0,0.0,0.0,0.0,0.0,0.0,0.0,0.0,0.0,0.0,0.0,0.0,0.0,0.0,0.0,0.0,0.0,0.0,0.0,0.0,0.0,0.0,0.0,0.0,0.0,0.0,0.0,0.0,0.0,0.0,0.0,0.0,0.0,0.0,0.0,0.0,0.0,0.0,0.0,0.0,0.0,0.0,0.0,0.0,0.0,0.0,-0.392,-0.7209,-0.8306,-0.9858,-1.1256,-1.2192,-1.2501,-1.2501,-1.2501,-1.2508,-1.2508,-1.2515,-1.2515,-1.2528,-1.2528,-1.2515,-1.2515,-1.2501,-1.2501,-1.2501,-1.2501,-1.2454,-1.2553,-1.2498,-1.2409,-1.2182,-1.234,-1.2484,-1.2698,-1.3166,-1.4192,-1.5615,-1.7419,-1.8301,-1.8986,-2.0912,-2.2898,-2.2989,-2.2701,-2.2032,-2.1586,-2.1217,-2.0979,-2.1065,-2.1106,-2.1004,-2.0471,-1.9341,-1.9352,-2.0554,-1.9397,-1.7934,1.1619,1.164,1.1616,1.167,1.1703,1.2026,0.9888,0.6002,0.3267,0.1251,0.0,0.0,0.0,0.0,0.0,0.0,0.0,0.0,0.0,0.0,0.0,0.0,0.0,0.0,0.0,0.0,0.0,0.0,0.0,0.0,0.0,0.0,0.0,0.0,0.0,0.0,0.0,0.0,0.0,0.0,0.0,0.0,0.0,0.0,0.0,0.0,0.0,0.0,0.0,0.0,0.0,0.0,0.0,0.0,0.0,0.0,0.0,0.0,0.0,0.0,0.0,0.0,0.0,-0.3139,-0.5329,-0.7205,-0.908,-1.0796,-1.205,-1.2353,-1.2508,-1.2508,-1.2515,-1.2528,-1.2542,-1.2549,-1.2562,-1.2562,-1.2542,-1.2528,-1.2508,-1.2501,-1.2501,-1.2501,-1.2501,-1.2474,-1.2574,-1.2386,-1.2332,-1.2379,-1.2671,-1.3398,-1.3991,-1.4944,-1.6462,-1.8498,-1.9614,-2.0285,-2.1261,-2.292,-2.2999,-2.3038,-2.2626,-2.2409,-2.2854,-2.2902,-2.2276,-2.2238,-2.2566,-2.1899,-2.1139,-2.1542,-2.2039,-2.167,-2.0321,1.1619,1.1619,1.166,1.1536,1.1556,1.1703,1.0953,0.9418,0.6553,0.3968,0.1681,0.0459,0.0,0.0,0.0,0.0,0.0,0.0,0.0,0.0,0.0,0.0,0.0,0.0,0.0,0.0,0.0,0.0,0.0,0.0,0.0,0.0,0.0,0.0,0.0,0.0,0.0,0.0,0.0,0.0,0.0,0.0,0.0,0.0,0.0,0.0,0.0,0.0,0.0,0.0,0.0,0.0,0.0,0.0,0.0,0.0,0.0,0.0,0.0,0.0,0.0,0.0,0.0,0.0,-0.329,-0.548,-0.7829,-0.9864,-1.1908,-1.2373,-1.2508,-1.2508,-1.2556,-1.2766,-1.2786,-1.2807,-1.2821,-1.2651,-1.263,-1.2562,-1.2542,-1.2501,-1.2501,-1.2501,-1.2501,-1.2501,-1.2481,-1.2447,-1.242,-1.2447,-1.2713,-1.342,-1.4096,-1.4861,-1.7223,-1.9227,-2.0474,-2.1583,-2.228,-2.2684,-2.2862,-2.3014,-2.2935,-2.2921,-2.3086,-2.3033,-2.2762,-2.2913,-2.2828,-2.3028,-2.2574,-2.3139,-2.3386,-2.2897,-2.2051,1.1619,1.1619,1.1619,1.1619,1.1633,1.1569,1.1524,1.102,0.8412,0.5886,0.3625,0.1513,0.0,0.0,0.0,0.0,0.0,0.0,0.0,0.0,0.0,0.0,0.0,0.0,0.0,0.0,0.0,0.0,0.0,0.0,0.0,0.0,0.0,0.0,0.0,0.0,0.0,0.0,0.0,0.0,0.0,0.0,0.0,0.0,0.0,0.0,0.0,0.0,0.0,0.0,0.0,0.0,0.0,0.0,0.0,0.0,0.0,0.0,0.0,0.0,0.0,0.0,0.0,0.0,-0.1568,-0.329,-0.6261,-0.9075,-1.0969,-1.2549,-1.2522,-1.2515,-1.2773,-1.3026,-1.3061,-1.3089,-1.2924,-1.2759,-1.2698,-1.2467,-1.2569,-1.2522,-1.2501,-1.2501,-1.2501,-1.2501,-1.2474,-1.2427,-1.2386,-1.2366,-1.2747,-1.3258,-1.394,-1.458,-1.7068,-1.881,-1.9685,-2.0531,-2.1331,-2.1861,-2.2526,-2.2939,-2.2953,-2.2926,-2.2899,-2.2859,-2.2859,-2.2886,-2.2953,-2.3067,-2.3373,-2.3741,-2.3991,-2.395,-2.2911,1.1619,1.1619,1.1619,1.1619,1.1619,1.1626,1.1633,1.1358,0.9519,0.7668,0.5712,0.3161,0.1503,0.0,0.0,0.0,0.0,0.0,0.0,0.0,0.0,0.0,0.0,0.0,0.0,0.0,0.0,0.0,0.0,0.0,0.0,0.0,0.0,0.0,0.0,0.0,0.0,0.0,0.0,0.0,0.0,0.0,0.0,0.0,0.0,0.0,0.0,0.0,0.0,0.0,0.0,0.0,0.0,0.0,0.0,0.0,0.0,0.0,0.0,0.0,0.0,0.0,0.0,0.0,0.0,0.0,-0.4227,-0.7669,-0.9869,-1.2063,-1.2515,-1.2522,-1.2752,-1.2869,-1.3096,-1.3006,-1.3061,-1.2827,-1.2684,-1.261,-1.2542,-1.2501,-1.2501,-1.2501,-1.2501,-1.2501,-1.2488,-1.2433,-1.2318,-1.2271,-1.2627,-1.3103,-1.3326,-1.3838,-1.5026,-1.6777,-1.8039,-1.8942,-1.9726,-2.1294,-2.2164,-2.2526,-2.2859,-2.2859,-2.2859,-2.2859,-2.2873,-2.2939,-2.2988,-2.3012,-2.3327,-2.3904,-2.4286,-2.4417,-2.3824,1.1619,1.1619,1.1619,1.1619,1.1619,1.1619,1.1619,1.1482,1.0812,0.9983,0.9097,0.6455,0.382,0.1915,0.059,0.0,0.0,0.0,0.0,0.0,0.0,0.0,0.0,0.0,0.0,0.0,0.0,0.0,0.0,0.0,0.0,0.0,0.0,0.0,0.0,0.0,0.0,0.0,0.0,0.0,0.0,0.0,0.0,0.0,0.0,0.0,0.0,0.0,0.0,0.0,0.0,0.0,0.0,0.0,0.0,0.0,0.0,0.0,0.0,0.0,0.0,0.0,0.0,0.0,0.0,0.0,-0.2193,-0.5789,-0.892,-1.1113,-1.2528,-1.2549,-1.2596,-1.2876,-1.2979,-1.3075,-1.3003,-1.2834,-1.2821,-1.2583,-1.2515,-1.2501,-1.2501,-1.2501,-1.2501,-1.2501,-1.2501,-1.2427,-1.2223,-1.2121,-1.2175,-1.2514,-1.245,-1.2947,-1.3858,-1.4382,-1.5506,-1.6339,-1.6997,-1.9016,-2.1533,-2.2241,-2.2644,-2.2775,-2.2859,-2.2979,-2.3086,-2.3292,-2.3227,-2.3248,-2.3327,-2.4024,-2.4382,-2.4569,-2.4275,1.1619,1.1619,1.1619,1.1619,1.1619,1.1619,1.1619,1.1619,1.1332,1.1188,1.0756,0.814,0.567,0.349,0.1602,0.0146,0.0,0.0,0.0,0.0,0.0,0.0,0.0,0.0,0.0,0.0,0.0,0.0,0.0,0.0,0.0,0.0,0.0,0.0,0.0,0.0,0.0,0.0,0.0,0.0,0.0,0.0,0.0,0.0,0.0,0.0,0.0,0.0,0.0,0.0,0.0,0.0,0.0,0.0,0.0,0.0,0.0,0.0,0.0,0.0,0.0,0.0,0.0,0.0,0.0,0.0,0.0,-0.5324,-0.9256,-1.1772,-1.2414,-1.2583,-1.2718,-1.2847,-1.3027,-1.2922,-1.2861,-1.2705,-1.2596,-1.2542,-1.2501,-1.2501,-1.2501,-1.2501,-1.2494,-1.2474,-1.2481,-1.2359,-1.2162,-1.1999,-1.2045,-1.2102,-1.2046,-1.2004,-1.2517,-1.2768,-1.2881,-1.3571,-1.4574,-1.7765,-2.0816,-2.1629,-2.2281,-2.2789,-2.322,-2.3327,-2.342,-2.3588,-2.3607,-2.3471,-2.3642,-2.3945,-2.4302,-2.4636,-2.4356,1.1565,1.1586,1.1613,1.1619,1.1619,1.1619,1.1619,1.1619,1.1619,1.1619,1.1188,0.8868,0.7276,0.5531,0.2914,0.1312,0.0,0.0,0.0,0.0,0.0,0.0,0.0,0.0,0.0,0.0,0.0,0.0,0.0,0.0,0.0,0.0,0.0,0.0,0.0,0.0,0.0,0.0,0.0,0.0,0.0,0.0,0.0,0.0,0.0,0.0,0.0,0.0,0.0,0.0,0.0,0.0,0.0,0.0,0.0,0.0,0.0,0.0,0.0,0.0,0.0,0.0,-0.0471,0.0,0.0,0.0,0.0,-0.4701,-0.8632,-1.0861,-1.1498,-1.2501,-1.2641,-1.2929,-1.2929,-1.2868,-1.2725,-1.2603,-1.2549,-1.2501,-1.2501,-1.2501,-1.2501,-1.2501,-1.2488,-1.2467,-1.2372,-1.223,-1.2088,-1.1959,-1.1837,-1.1894,-1.1825,-1.1784,-1.1763,-1.1749,-1.1872,-1.218,-1.365,-1.7077,-1.9892,-2.0685,-2.1827,-2.3067,-2.3377,-2.3492,-2.3688,-2.3741,-2.3798,-2.3813,-2.3984,-2.4263,-2.4342,-2.4636,-2.4636,1.1468,1.1592,1.1565,1.1613,1.1613,1.1619,1.1619,1.1619,1.1619,1.1619,1.1181,1.0029,0.8729,0.8454,0.466,0.0,0.0,0.0,0.0,0.0,0.0,0.0,0.0,0.0,0.0,0.0,0.0,0.0,0.0,0.0,0.0,0.0,0.0,0.0,0.0,0.0,0.0,0.0,0.0,0.0,0.0,0.0,0.0,0.0,0.0,0.0,0.0,0.0,0.0,0.0,0.0,0.0,0.0,0.0,0.0,0.0,0.0,0.0,0.0,0.0,-0.2023,-0.4243,-0.3929,0.0,0.0,0.0,-0.235,-0.3288,-0.6587,-0.866,-0.9787,-1.1742,-1.2489,-1.2935,-1.315,-1.2793,-1.2617,-1.2562,-1.2515,-1.2501,-1.2501,-1.2501,-1.2501,-1.2501,-1.2501,-1.2454,-1.2199,-1.2059,-1.2074,-1.1932,-1.1769,-1.1701,-1.1619,-1.1619,-1.1619,-1.1619,-1.1756,-1.1784,-1.2438,-1.5276,-1.7769,-1.967,-2.1006,-2.2463,-2.3158,-2.3379,-2.3601,-2.4048,-2.3957,-2.3971,-2.4302,-2.4583,-2.4623,-2.4636,-2.4636]}]]